GFSGBSN_sfc_rhum_000.txt.gz
RH
85 81 84 87 88 89 86 86 87 90 90 92 92 90 83 83 83 84 86 86 94 93 93 92 90 91 88 30 28 20 55 39 25 19 18 20 21 27 28 28 25 23 24 22 23 20 22
82 82 86 90 91 90 88 89 90 91 91 91 92 93 92 88 87 87 88 92 95 94 94 93 92 92 52 29 20 20 20 19 21 23 22 18 23 25 25 27 25 29 28 27 26 24 26
79 83 89 93 93 94 91 93 92 91 90 90 91 92 93 92 92 94 94 95 95 95 94 93 91 83 30 27 22 23 20 24 25 25 25 24 23 21 27 30 27 28 26 24 23 26 27
80 81 87 93 94 96 91 94 92 90 89 89 89 89 90 92 92 93 93 93 94 95 94 93 91 67 32 24 28 20 19 18 19 23 25 28 24 24 25 30 26 26 28 28 21 27 22
79 81 88 93 94 96 94 95 93 90 88 88 88 87 86 87 89 90 91 92 94 94 94 92 72 42 32 26 20 21 18 19 18 20 24 20 23 30 28 27 30 33 36 33 26 31 36
75 81 90 93 94 95 95 95 95 92 90 89 87 86 85 85 88 91 93 93 92 93 80 55 40 28 21 23 22 19 20 20 20 27 24 24 29 27 33 29 28 38 33 53 41 32 38
74 78 88 93 95 94 92 92 95 93 90 88 86 84 84 84 86 92 95 88 40 32 36 28 29 28 23 18 21 20 22 23 23 23 28 32 31 34 35 36 33 34 38 46 43 36 42
78 79 86 91 92 91 91 91 95 94 92 89 88 88 86 85 85 91 78 63 60 56 34 31 26 25 23 23 23 22 20 24 26 30 29 32 34 31 30 31 31 35 43 39 38 39 49
77 76 87 90 91 90 91 91 94 94 93 90 89 89 90 87 75 70 71 78 79 65 35 28 27 26 24 21 26 25 22 30 28 27 33 36 32 29 29 33 36 39 40 42 42 43 53
77 75 85 90 92 91 92 92 92 93 93 92 89 89 88 78 58 72 64 72 79 50 52 33 26 25 21 24 26 25 31 29 30 31 34 34 27 30 36 35 39 47 34 42 46 56 53
76 75 84 89 92 93 95 94 93 93 93 91 90 90 85 63 64 60 66 82 82 49 61 31 26 22 24 23 28 31 34 28 42 42 36 36 31 36 40 39 41 42 48 54 54 60 64
76 77 84 88 93 93 94 94 93 93 93 91 90 89 81 65 68 76 84 79 65 77 65 39 30 30 28 31 34 36 39 36 41 42 45 50 36 36 39 38 46 43 55 50 60 60 69
80 82 85 88 92 93 93 93 92 92 93 91 90 87 76 77 52 83 83 65 71 75 42 39 36 32 33 36 42 43 48 54 58 40 66 53 49 47 41 47 46 52 59 69 68 78 77
88 88 87 87 92 93 92 91 92 92 93 90 86 83 87 84 90 83 67 69 59 53 48 39 36 39 41 40 46 50 53 60 54 57 75 74 57 52 43 51 56 58 63 81 66 90 84
89 91 88 87 91 92 92 91 91 92 93 90 86 85 73 76 87 74 63 82 65 52 41 41 41 45 49 49 47 52 62 62 59 60 64 85 64 53 53 55 52 59 72 63 82 97 92
88 90 90 90 92 92 91 90 90 91 92 90 86 65 71 84 84 61 83 66 47 44 43 46 50 54 57 58 55 55 61 55 56 60 60 70 78 61 53 52 49 53 53 72 88 92 91
88 89 90 93 94 92 90 89 90 91 93 90 82 52 57 88 64 64 78 63 43 49 47 51 56 59 61 63 60 65 64 56 53 56 55 64 69 56 56 59 68 65 76 72 72 88 95
88 90 91 93 96 92 89 90 91 91 92 82 67 58 62 72 61 85 60 48 55 52 49 51 54 56 60 65 67 65 65 59 53 61 64 69 76 83 62 57 64 67 69 68 86 77 93
90 89 89 92 97 93 90 93 96 92 92 79 74 71 66 60 78 88 60 54 53 50 54 52 56 58 59 67 69 64 64 67 64 61 69 66 78 81 51 54 57 70 72 71 80 87 85
92 91 90 93 96 92 93 98 98 91 94 79 68 83 80 82 77 59 59 60 58 52 53 60 58 55 60 66 68 74 73 65 65 67 76 65 75 67 76 59 66 80 79 75 80 92 84
92 91 91 94 97 93 98 98 97 91 95 75 78 80 78 84 81 70 66 58 61 58 52 56 60 60 63 75 74 83 74 68 63 71 75 71 82 81 75 70 75 75 80 81 89 83 89
93 92 93 97 98 98 98 98 98 92 91 78 79 79 85 88 71 59 74 61 64 60 55 63 63 67 67 70 68 78 78 79 74 74 81 82 85 91 90 88 90 94 84 86 86 87 89
95 94 96 98 97 99 98 98 98 93 86 83 95 84 74 90 72 78 79 58 55 58 60 56 61 63 69 67 66 72 67 68 75 77 76 82 94 98 89 92 92 76 67 83 80 74 73
95 96 98 97 95 95 98 98 94 94 94 88 94 76 81 89 90 78 66 61 60 62 62 60 60 66 57 65 64 64 63 61 75 80 79 98 96 97 98 91 97 60 60 54 66 62 58
95 96 96 96 96 94 97 98 94 94 96 96 97 76 84 96 95 81 66 65 65 63 71 64 76 73 67 70 85 81 81 68 78 95 95 90 98 98 98 95 82 67 59 69 72 66 61
94 95 95 96 96 95 96 96 94 94 95 96 98 89 79 92 85 64 68 70 83 82 81 83 82 80 76 95 89 89 84 82 79 75 91 93 93 95 99 99 97 69 59 61 77 88 80
96 96 96 95 95 96 96 96 95 94 95 95 98 89 80 90 78 74 79 77 75 85 83 88 83 84 84 99 98 97 93 86 92 87 82 99 98 98 94 99 90 70 63 64 89 81 70
96 97 97 97 96 95 96 96 96 94 94 93 98 96 87 94 86 80 71 79 84 84 89 81 83 90 98 99 99 99 96 91 93 82 81 74 84 95 98 98 95 66 71 78 72 79 72
96 96 97 98 98 97 95 96 97 94 94 90 96 96 95 89 74 95 89 81 71 65 81 89 79 84 95 98 99 99 100 99 92 95 81 87 76 82 84 86 68 58 67 62 66 80 86

GFSGBSN_sfc_rhum_003.txt.gz
RH
84 81 85 88 90 90 86 84 90 92 92 91 92 90 82 81 81 82 84 86 88 90 91 91 91 90 78 27 23 16 54 37 24 20 17 18 20 22 22 20 20 19 17 17 16 16 15
82 83 88 91 92 90 85 85 91 92 92 92 92 93 90 83 83 84 86 88 90 94 92 92 91 91 47 29 16 19 20 18 18 18 19 17 18 19 22 21 21 21 19 19 18 18 18
80 83 90 94 94 90 85 87 92 92 92 91 91 92 94 92 88 88 90 92 95 94 93 92 92 86 30 28 18 20 18 19 18 19 19 18 18 18 21 22 24 22 18 18 19 20 17
79 81 89 94 94 93 86 89 93 91 91 90 89 91 92 93 94 94 95 95 95 94 94 94 92 77 32 23 23 17 15 15 16 18 20 22 21 23 22 22 20 19 21 20 18 22 20
79 82 89 94 96 94 88 92 95 91 90 89 87 88 88 90 92 93 93 93 94 93 93 94 71 42 30 24 18 18 16 17 17 20 22 17 22 26 22 22 21 25 17 22 21 26 27
74 81 90 94 96 92 89 91 96 93 91 88 85 85 85 86 89 92 93 91 90 90 82 74 37 30 20 20 19 18 17 20 21 24 21 23 24 24 26 18 20 25 22 25 26 23 29
73 78 87 92 94 92 89 90 94 94 92 88 86 84 82 85 87 95 81 64 32 35 33 28 30 26 21 17 18 20 19 20 20 23 26 28 24 26 27 27 24 24 26 30 27 28 33
78 79 85 90 92 90 90 90 94 94 93 90 88 87 88 88 86 93 80 59 46 47 32 31 26 24 22 21 24 23 20 22 26 26 24 26 30 23 26 26 23 26 29 26 29 31 34
79 77 86 90 92 90 91 91 94 94 92 90 89 88 89 88 90 78 72 70 70 54 36 29 27 25 23 22 31 30 25 28 25 30 30 32 22 26 26 31 34 32 28 31 33 33 34
79 76 85 90 92 92 92 92 92 94 92 90 88 90 88 83 62 67 63 62 73 56 49 34 26 22 22 23 28 28 32 27 33 28 30 26 25 32 34 33 33 37 30 38 38 40 35
78 77 85 90 93 93 93 93 93 93 93 90 89 89 84 61 63 59 60 76 78 52 58 29 27 21 26 27 29 28 32 32 38 39 30 28 31 35 38 33 35 39 42 43 40 42 40
79 81 86 88 92 93 93 92 92 93 93 91 89 88 80 61 72 71 81 72 64 70 56 37 29 29 31 36 38 35 38 35 33 39 41 41 34 31 32 34 38 40 42 40 46 45 51
85 86 87 88 92 92 92 91 91 93 93 91 89 86 76 69 53 80 78 63 63 69 41 37 33 32 36 42 42 42 47 52 50 40 60 44 40 39 37 38 38 43 41 49 62 64 56
89 90 89 89 92 92 91 90 90 92 93 91 88 82 82 80 85 80 67 64 61 52 44 36 35 42 42 42 44 48 48 52 51 50 61 58 45 43 42 40 42 50 49 64 56 64 60
87 91 90 91 93 92 92 90 90 91 93 92 86 74 74 79 87 72 62 80 62 49 35 36 38 43 46 46 44 48 54 52 51 54 56 66 50 45 46 45 40 46 60 52 70 89 80
87 88 90 92 94 93 91 90 90 90 93 92 74 68 70 82 78 65 81 64 47 42 40 39 46 49 51 53 50 51 51 47 48 54 49 58 61 48 45 41 42 44 46 56 68 78 71
89 88 90 93 96 93 90 90 91 91 94 90 70 63 64 84 65 61 75 61 47 49 48 46 51 56 53 55 52 55 53 49 48 47 50 50 56 48 47 52 53 52 55 61 60 71 81
89 89 91 94 96 93 90 93 98 93 93 72 68 68 69 72 58 75 60 45 55 50 48 50 53 54 55 60 61 57 59 53 54 51 55 57 66 63 48 47 51 50 52 53 65 62 74
91 90 90 92 96 92 93 98 98 91 93 73 68 67 67 63 79 89 60 54 51 50 54 50 55 57 56 62 65 61 60 62 63 55 57 55 68 60 39 45 44 54 55 60 67 76 72
91 91 91 92 97 94 98 99 97 91 94 74 64 85 77 76 71 62 59 60 57 52 54 57 54 54 58 63 67 66 63 60 64 61 79 64 65 59 53 42 51 65 64 61 66 86 67
90 91 92 94 99 98 98 99 98 92 94 71 76 79 75 82 78 66 62 56 57 55 51 53 55 54 58 70 69 73 62 59 58 68 67 65 78 69 64 61 65 64 65 66 70 68 81
92 91 93 96 99 98 98 99 98 92 92 76 75 76 81 80 66 60 71 64 59 56 52 58 60 61 58 62 57 64 64 65 63 58 67 71 77 85 85 75 73 84 68 70 70 71 72
94 93 96 98 98 98 98 99 95 92 87 77 90 78 72 87 70 73 71 58 55 58 59 53 58 60 63 58 58 57 62 68 60 63 73 78 88 93 81 83 82 78 56 68 62 60 57
95 95 98 97 95 97 98 99 93 93 92 82 88 71 83 89 85 71 62 57 59 58 61 59 56 67 55 60 59 61 59 59 62 76 71 98 93 97 97 90 85 50 49 48 56 53 50
95 95 96 96 95 94 95 96 94 93 96 90 93 70 79 100 88 73 62 64 61 64 67 60 72 69 64 67 84 84 78 70 78 90 85 80 96 99 98 86 75 57 50 54 61 50 51
95 95 94 96 96 95 95 96 95 93 95 94 96 85 75 94 86 61 65 64 76 77 77 83 77 75 72 92 92 87 80 74 66 68 83 84 89 96 99 99 94 66 46 50 56 71 60
95 95 94 94 95 95 95 96 96 94 94 92 97 88 73 90 72 65 73 73 71 76 78 79 81 83 78 99 100 97 90 76 79 84 83 98 98 95 92 95 82 62 56 54 86 89 73
96 96 96 96 94 94 95 96 96 93 93 91 97 94 81 88 78 74 67 72 76 76 87 80 83 90 99 100 100 98 98 86 82 70 72 71 85 92 95 97 94 54 57 84 77 81 73
96 96 97 97 97 96 95 96 97 93 95 89 91 94 92 86 74 92 86 72 65 61 79 85 74 81 91 97 98 100 100 99 92 92 69 84 74 81 82 80 60 54 62 69 76 82 90

GFSGBSN_sfc_rhum_006.txt.gz
RH
84 82 84 88 90 89 85 84 86 87 93 92 90 89 82 80 80 81 82 84 85 86 88 88 88 89 61 18 15 11 52 34 15 12 10 11 10 11 11 10 9 10 12 12 11 10 11
83 83 86 91 92 87 83 82 85 92 92 91 92 92 90 83 82 82 84 85 87 89 91 88 89 92 29 18 11 12 12 10 10 10 11 11 12 12 13 14 12 15 13 13 14 14 14
81 82 89 93 94 87 84 85 90 91 90 90 90 92 93 87 85 85 86 88 89 92 91 89 90 56 16 17 12 10 10 11 11 12 13 14 12 12 14 16 16 15 15 14 15 14 15
81 79 87 93 95 90 85 87 93 90 89 87 87 90 92 93 93 92 90 92 94 92 91 92 89 49 18 14 11 10 9 10 12 13 14 14 12 14 14 16 12 12 12 13 16 15 16
79 79 87 94 94 90 90 89 94 90 87 86 86 87 88 90 92 92 93 93 92 91 90 87 51 25 16 20 12 12 11 11 13 13 14 12 13 15 14 14 12 12 10 12 16 16 17
75 78 88 93 94 90 88 90 94 92 90 86 85 84 84 86 88 91 92 91 89 82 58 45 22 17 13 15 13 13 11 13 13 14 13 13 13 12 11 9 11 14 13 13 14 15 16
74 74 85 91 93 90 88 88 93 93 91 87 85 82 79 82 88 93 77 43 25 24 17 18 17 16 14 12 13 13 14 13 12 13 14 16 13 17 19 19 17 16 16 16 14 20 26
78 76 84 90 90 90 89 90 94 93 91 88 87 85 85 84 89 92 55 28 36 28 20 19 16 16 15 15 15 16 13 13 14 15 17 14 20 18 19 20 18 18 18 18 20 22 26
79 76 84 89 90 90 88 89 93 94 92 89 87 88 86 88 92 71 42 45 47 36 18 19 18 16 16 16 23 21 17 16 14 16 16 17 19 19 20 22 24 21 21 26 26 23 24
79 77 85 89 90 90 89 89 91 93 92 90 88 89 86 89 57 40 38 43 50 40 23 21 17 17 16 16 22 19 20 20 20 20 18 20 22 24 23 27 27 25 25 30 29 27 22
80 79 86 89 92 92 91 90 91 92 92 91 89 85 87 78 43 28 44 49 53 42 41 22 18 15 19 20 21 21 22 19 24 25 23 25 25 26 27 29 29 31 33 32 31 28 28
82 83 86 88 91 91 90 90 90 92 92 91 89 86 79 48 48 51 52 50 49 48 42 26 20 23 24 24 24 21 23 20 24 23 22 26 24 26 28 27 28 30 32 33 32 31 40
86 87 87 88 91 90 90 89 90 92 92 90 90 86 60 44 40 59 57 40 36 45 30 25 24 25 27 31 30 27 31 36 30 29 34 27 29 27 29 27 29 26 29 39 51 49 44
88 89 89 90 92 92 89 90 91 92 91 90 87 79 78 54 53 62 46 41 42 36 30 24 25 26 30 31 32 31 30 32 32 31 29 32 38 33 32 35 35 35 35 51 49 49 38
86 90 89 92 93 92 90 90 91 92 92 91 84 52 52 63 64 55 33 59 45 29 23 25 25 27 34 32 30 32 37 35 37 36 37 39 37 32 34 31 32 35 43 39 55 79 64
86 88 88 93 95 92 90 91 91 92 92 90 38 41 47 64 61 45 50 49 33 29 28 24 30 32 34 34 34 34 38 38 38 37 35 42 43 35 32 32 33 33 35 44 44 76 45
88 88 89 93 95 92 91 95 98 93 92 89 46 32 54 61 53 37 51 42 34 35 33 31 34 37 37 39 35 40 41 39 37 37 34 34 39 36 37 38 37 38 41 41 38 48 54
89 90 90 94 95 92 96 98 93 93 91 64 53 42 54 59 40 40 38 33 49 35 34 36 37 37 39 43 44 44 45 40 41 39 39 43 46 40 33 39 38 37 40 38 50 45 53
88 90 90 91 96 95 98 99 95 93 90 44 40 41 48 53 66 75 42 40 37 35 38 36 41 39 39 45 52 45 45 47 45 40 42 41 49 38 36 42 38 42 40 42 48 57 62
89 89 90 92 96 98 98 99 99 92 93 48 40 72 47 40 43 38 41 42 42 38 41 38 41 37 42 45 44 51 49 47 48 45 76 56 46 43 32 30 34 38 34 36 43 71 53
89 88 91 98 98 98 98 98 94 92 92 50 45 57 54 67 54 41 39 39 40 41 38 36 38 37 41 56 48 51 46 45 45 60 52 48 50 48 40 36 35 40 40 36 40 46 61
90 90 94 97 99 98 98 98 92 93 92 48 49 51 48 50 48 41 57 40 38 40 36 39 39 39 33 40 33 43 36 39 36 47 47 50 58 65 60 46 40 50 40 37 41 42 43
93 94 96 98 98 98 99 99 91 94 81 47 59 53 43 70 51 53 50 40 38 40 46 36 37 40 54 37 35 44 45 47 45 46 55 62 71 76 85 60 63 85 52 38 38 40 40
94 96 98 97 94 98 98 94 93 94 84 53 54 46 71 77 60 45 42 40 41 41 46 44 38 62 45 46 46 45 45 50 52 60 56 94 82 92 99 92 92 46 33 34 40 37 32
95 95 95 95 95 95 95 95 94 93 95 59 60 48 64 100 56 50 44 46 46 46 48 44 53 53 46 49 68 100 67 95 80 62 62 61 84 100 100 74 54 43 38 42 45 44 39
95 95 94 95 96 95 96 96 94 93 95 66 69 62 54 88 76 40 46 44 55 58 60 68 60 56 53 80 88 99 73 56 47 55 67 68 79 92 92 99 92 48 38 39 42 56 51
96 95 94 94 94 94 95 96 95 93 93 67 74 77 49 86 50 48 50 51 47 52 58 64 64 75 60 100 100 99 75 58 57 87 89 95 97 98 90 99 69 41 44 44 83 80 68
96 95 94 94 94 93 94 95 96 94 94 72 81 80 61 74 55 54 50 54 51 47 72 68 67 77 93 100 100 96 100 73 66 51 62 65 92 97 96 99 96 43 44 83 65 72 82
97 96 96 96 96 94 94 95 97 93 93 84 65 77 77 64 62 74 68 56 52 38 50 70 58 61 67 90 99 100 100 100 98 85 50 67 58 59 67 67 42 42 52 53 67 79 71

GFSGBSN_sfc_rhum_009.txt.gz
RH
81 83 83 84 89 90 87 87 88 86 83 91 92 89 86 83 80 80 81 82 84 84 85 87 88 87 59 24 12 9 41 43 17 9 8 8 8 7 7 6 6 7 7 6 6 6 6
84 83 84 87 91 88 87 85 86 85 92 92 92 91 91 82 82 82 83 84 85 87 88 87 87 90 38 18 9 8 8 8 8 8 7 7 7 7 7 7 8 8 8 9 9 10 10
82 82 84 91 93 91 89 88 86 90 90 90 90 92 92 86 84 84 84 86 87 89 88 88 87 49 28 14 8 7 8 8 8 9 9 9 8 8 9 12 10 10 11 11 11 11 11
82 80 80 91 92 92 89 86 87 90 88 87 86 90 92 93 89 87 87 88 90 90 90 89 89 37 18 10 8 8 7 8 8 10 10 9 9 10 10 11 10 10 11 12 11 11 12
81 77 80 91 94 91 88 87 90 88 84 83 83 87 89 91 92 93 93 93 93 90 90 87 53 38 14 21 10 8 8 8 10 11 10 9 10 10 12 12 11 11 11 10 14 11 12
79 74 80 89 93 90 87 88 91 89 87 81 76 80 84 87 88 90 90 90 88 84 66 32 22 18 10 12 10 9 9 10 11 12 12 12 11 12 8 8 13 11 9 9 10 12 10
79 72 78 88 91 90 88 89 91 90 88 82 78 76 81 84 87 90 76 39 25 28 17 16 13 13 10 9 10 10 10 11 11 12 14 12 11 14 15 14 12 11 11 11 11 14 16
81 74 78 86 89 89 86 88 91 91 88 84 82 79 80 82 88 90 61 24 30 20 18 13 13 14 13 12 12 11 10 12 13 12 12 11 16 14 15 15 15 14 14 14 14 15 18
83 77 80 86 88 88 85 87 90 90 89 87 84 81 84 86 91 76 30 32 27 26 17 16 14 13 14 12 16 16 12 10 10 10 10 16 16 16 17 17 18 17 18 22 20 16 15
82 76 82 86 89 89 88 88 90 90 89 88 86 86 88 91 62 31 30 30 33 35 20 17 14 15 13 14 19 14 16 14 13 12 13 17 18 18 18 21 20 21 20 22 21 20 19
80 77 83 87 90 90 88 89 90 89 88 87 87 86 89 91 32 24 32 34 38 41 39 17 16 14 13 17 17 18 14 14 15 16 19 22 20 22 23 23 22 26 25 24 23 21 20
78 79 84 86 89 89 88 89 90 90 88 87 88 82 87 50 38 36 34 37 42 42 40 21 16 19 19 18 18 17 18 16 18 18 17 20 18 21 23 21 22 23 25 24 25 23 33
77 82 84 87 89 89 88 89 90 91 87 84 89 81 69 32 32 43 45 37 28 44 20 21 20 20 20 22 23 20 22 25 22 27 27 21 23 22 23 23 23 20 24 38 46 42 41
83 82 85 89 92 91 90 90 91 91 88 85 84 78 66 42 37 50 40 30 46 26 19 16 18 19 24 21 25 23 22 24 24 22 20 24 37 25 24 28 29 26 28 48 43 42 32
83 83 86 90 92 91 90 90 92 91 89 85 84 46 42 55 54 49 27 50 36 21 18 20 19 22 26 24 23 25 28 27 27 27 29 30 31 24 26 24 25 28 34 28 46 57 55
83 83 86 91 94 91 92 94 94 91 89 83 29 29 34 55 55 46 40 46 27 22 18 17 23 25 26 24 26 26 28 29 29 26 24 28 36 25 25 25 26 28 25 41 38 65 40
86 85 87 92 94 92 96 98 92 92 89 83 36 28 51 50 50 29 46 33 26 24 22 24 24 27 26 30 25 29 31 31 29 28 25 24 28 30 26 29 27 30 32 33 27 38 48
87 87 89 92 94 95 98 98 93 92 88 77 41 33 46 48 31 35 36 27 43 26 27 28 26 26 29 30 33 33 34 34 31 29 31 33 34 39 23 29 29 29 30 30 48 39 43
88 87 88 91 94 99 97 98 96 92 92 35 29 35 43 49 60 64 35 33 28 28 27 28 33 30 29 33 41 34 37 39 36 32 38 33 41 39 28 34 30 31 29 29 35 49 51
89 88 88 96 98 98 97 97 94 92 90 51 30 59 38 36 31 31 34 32 36 30 32 29 32 30 33 35 32 41 40 40 41 37 70 52 33 35 39 28 22 28 24 23 30 55 51
89 88 93 97 98 98 97 98 93 92 90 50 32 43 39 52 44 33 31 30 32 34 29 27 32 30 34 43 36 39 34 39 37 61 42 37 44 38 32 25 24 26 28 26 26 29 46
90 91 97 97 98 98 98 97 92 93 93 38 33 40 36 40 34 34 47 33 29 30 29 30 31 29 27 39 26 33 26 27 30 37 36 38 54 58 51 29 27 35 27 25 25 29 30
92 94 97 97 98 98 99 94 91 93 88 34 40 41 36 60 40 44 40 31 29 34 38 24 27 28 43 31 32 34 35 35 33 37 44 51 60 61 73 52 58 83 46 27 27 27 34
94 97 98 95 96 98 94 94 92 94 90 40 42 34 63 66 49 36 32 30 31 30 37 29 26 44 41 33 35 37 38 39 40 45 43 73 65 86 96 90 92 39 26 26 30 29 26
94 96 96 95 94 93 95 94 92 93 93 44 42 40 56 100 40 37 34 32 36 36 37 39 44 38 36 38 59 79 68 92 72 44 45 46 71 94 99 66 49 36 35 36 41 41 29
94 95 95 95 94 94 94 95 93 92 93 50 54 54 46 85 72 31 36 38 48 51 53 56 50 45 45 69 79 98 67 43 46 50 48 56 70 81 93 98 90 48 32 33 35 57 46
94 94 94 94 94 94 94 94 94 93 91 61 58 71 41 77 40 35 45 45 35 42 47 53 55 65 48 96 99 98 63 43 48 81 90 92 95 97 86 97 65 34 37 37 67 72 58
96 95 94 94 93 93 93 94 95 92 92 71 61 65 56 61 50 43 40 45 43 38 70 55 59 65 80 100 100 89 100 62 57 37 57 69 92 97 88 99 91 36 38 73 53 51 61
96 95 94 94 94 93 93 94 96 92 90 88 48 54 57 50 56 56 54 50 48 35 39 56 46 54 55 76 94 98 100 99 85 70 32 55 52 60 60 58 36 42 49 49 49 62 67

GFSGBSN_sfc_rhum_012.txt.gz
RH
76 82 83 83 85 90 85 82 84 82 82 83 84 91 88 85 81 79 79 80 82 84 85 85 85 86 67 39 15 10 37 51 20 17 11 8 8 8 8 6 6 7 6 6 5 5 6
83 83 83 84 88 89 86 83 83 83 84 86 93 93 91 88 83 80 81 83 84 85 86 87 86 90 56 30 8 7 8 8 7 8 7 6 7 6 6 6 7 7 6 6 6 8 8
82 82 83 86 92 86 84 88 87 84 86 92 93 93 92 90 83 83 83 84 86 87 88 87 86 60 37 18 7 7 7 8 8 9 9 8 8 7 7 9 8 8 10 9 10 10 10
82 81 78 86 92 89 88 89 84 87 89 89 89 91 92 92 85 84 85 86 88 89 89 89 88 53 29 10 8 7 7 7 7 8 9 8 8 10 11 9 8 9 11 13 11 10 11
81 80 76 85 92 94 87 86 87 89 86 84 86 89 91 92 93 88 90 91 92 91 89 85 67 45 22 20 10 8 7 8 8 9 9 8 10 9 9 10 12 12 13 13 14 10 11
79 77 74 83 92 93 88 89 91 89 86 81 82 85 89 91 92 93 93 91 90 85 73 43 31 29 13 10 9 8 7 9 10 11 11 12 12 12 11 12 17 15 11 9 10 11 10
79 76 72 80 89 90 88 87 90 89 86 80 74 80 85 88 89 90 84 50 35 33 24 17 12 13 9 7 8 8 8 10 11 12 16 12 13 18 16 14 11 10 10 10 12 13 14
80 76 72 80 87 88 87 86 90 89 85 80 78 76 80 84 87 88 72 35 27 20 20 12 12 12 10 10 11 9 9 13 13 14 12 10 17 14 12 12 12 12 13 13 12 13 13
81 77 72 80 86 88 86 86 90 89 86 84 82 76 82 83 90 80 43 29 22 28 18 15 13 12 13 11 14 13 13 10 12 13 9 20 16 13 14 15 16 15 16 23 20 16 14
82 77 76 82 87 88 87 88 88 88 86 85 84 81 84 91 73 32 28 24 29 38 22 16 14 13 12 12 17 12 12 14 11 11 12 17 15 16 16 18 20 20 21 21 19 19 20
82 75 79 84 89 90 88 89 89 88 85 84 85 81 91 90 61 25 29 28 32 44 48 16 14 12 11 16 15 15 12 14 14 15 16 20 19 20 21 22 20 24 22 21 21 22 21
78 73 79 84 89 88 88 89 90 89 85 83 84 80 89 58 56 32 31 37 44 55 50 19 14 16 16 16 16 15 14 14 16 15 17 19 16 20 22 20 19 21 23 22 23 26 48
80 73 79 85 88 88 88 90 90 89 84 87 84 84 68 39 42 39 48 42 35 46 16 19 19 17 18 20 18 18 20 22 22 26 27 20 22 20 19 24 22 20 26 52 67 60 58
82 80 79 85 88 88 89 91 91 90 84 82 80 84 64 40 39 51 48 36 48 22 18 14 17 18 21 20 21 20 20 24 22 26 20 26 39 23 21 25 26 24 26 67 58 65 48
84 82 79 84 88 89 90 92 94 90 86 84 83 60 50 57 56 54 41 52 37 18 16 18 17 22 24 21 22 24 26 25 25 26 30 29 32 22 22 22 22 29 36 24 48 68 68
84 84 78 85 89 90 94 99 94 91 86 83 40 38 34 52 55 55 52 51 27 19 14 16 21 21 24 21 23 23 25 26 26 24 20 24 36 22 20 22 24 25 22 42 54 72 51
86 85 79 86 91 92 99 98 96 91 87 82 58 32 54 48 54 37 50 40 23 18 20 18 19 22 22 23 22 25 27 27 26 25 22 25 28 30 24 27 27 28 30 32 28 46 60
87 87 85 86 91 98 98 96 95 93 90 74 52 39 51 54 37 33 39 25 42 24 24 25 23 21 24 26 28 29 31 34 27 25 30 29 32 60 24 24 22 24 28 29 70 50 65
88 88 86 89 93 97 98 95 93 93 92 49 37 42 47 50 57 69 33 27 23 24 22 24 28 26 26 30 38 32 40 36 34 36 43 34 44 58 35 34 27 24 25 26 36 64 62
90 88 87 97 98 97 97 96 92 92 90 55 37 59 38 38 38 38 36 33 34 27 28 25 27 26 30 34 30 36 43 39 37 38 66 54 30 36 50 30 24 27 22 21 26 72 63
90 88 93 97 97 97 98 96 91 92 91 53 39 43 32 50 44 33 30 27 31 35 27 26 28 26 31 43 35 36 36 38 33 55 39 36 46 39 33 27 25 26 26 25 27 30 49
90 90 96 98 98 98 98 93 91 93 97 48 45 40 37 36 35 33 44 30 28 25 29 28 29 27 28 41 30 34 28 27 32 35 34 38 68 67 59 28 31 37 31 29 26 25 25
91 94 96 98 98 98 94 93 91 93 88 39 39 39 36 55 38 45 42 31 27 30 34 23 25 30 49 35 35 34 34 33 30 38 43 53 74 76 80 56 64 89 56 28 28 26 30
93 96 98 94 96 91 94 93 91 92 94 59 49 38 68 68 48 36 31 27 27 32 34 25 25 48 38 30 36 38 40 40 36 41 39 73 76 93 95 90 87 37 27 27 32 28 26
96 98 96 94 93 93 94 93 91 91 92 51 46 50 61 100 47 33 32 29 31 33 32 42 40 34 33 35 69 71 81 87 66 39 40 43 81 95 100 71 52 40 34 40 46 46 31
95 95 95 95 93 94 94 94 92 90 91 55 64 67 54 87 66 29 32 35 48 50 53 55 44 38 38 81 94 97 80 49 57 51 45 52 76 90 100 94 82 54 32 34 36 65 50
95 95 95 94 93 93 94 94 93 90 91 72 66 74 63 78 39 42 42 48 37 49 56 55 56 66 46 98 100 99 74 38 60 80 95 92 94 97 92 90 74 37 34 36 65 77 60
94 95 94 94 92 92 93 95 94 91 90 77 68 64 69 72 51 43 38 43 37 45 78 54 61 70 95 100 100 94 100 79 67 42 75 85 94 96 88 98 88 35 37 69 63 60 59
95 94 94 94 93 91 89 95 96 92 90 90 55 55 61 62 61 56 56 52 51 48 48 59 48 59 67 84 93 98 99 99 95 80 28 61 65 74 68 73 47 42 48 53 67 72 79

GFSGBSN_sfc_rhum_018.txt.gz
RH
81 79 82 86 89 89 83 81 81 84 83 83 82 82 82 82 83 90 92 78 80 80 80 82 82 83 90 72 39 21 65 76 56 34 28 24 26 20 18 15 12 11 9 8 11 11 12
83 84 87 90 90 85 82 82 83 84 83 83 83 84 86 90 91 92 89 81 81 82 82 83 82 84 88 54 22 17 27 41 25 26 25 26 22 16 16 16 11 12 8 8 9 12 13
81 86 90 90 90 88 91 84 86 83 85 85 85 89 95 94 93 93 86 80 83 84 84 84 82 81 77 46 27 21 12 16 20 24 19 17 17 18 20 16 14 11 12 12 15 15 16
84 85 87 89 87 88 93 95 83 85 86 87 92 94 94 94 94 91 84 84 86 85 87 86 84 88 54 26 24 11 12 12 12 13 16 16 18 20 16 16 13 14 18 21 18 16 18
87 88 88 88 85 88 94 95 88 91 94 93 92 91 92 92 93 91 88 90 91 91 89 90 94 91 29 28 15 11 13 14 15 16 16 10 16 20 15 20 21 23 22 24 22 17 18
85 89 88 86 83 89 93 93 93 93 92 91 90 87 89 92 92 93 92 92 92 94 91 73 62 60 35 27 15 12 12 14 19 20 18 17 25 25 26 24 25 24 24 48 23 22 23
87 88 87 83 82 89 91 91 91 91 90 90 86 86 86 90 92 93 96 92 64 61 71 27 33 37 21 12 12 13 13 15 19 19 27 26 28 28 25 22 19 19 27 26 26 21 20
89 88 86 80 82 89 88 88 90 90 90 87 86 85 84 88 90 91 92 76 43 39 32 34 36 32 20 13 20 17 17 23 26 27 28 27 31 23 21 25 27 27 28 30 24 19 20
91 88 86 78 84 89 87 86 89 89 89 87 86 84 82 88 92 90 77 61 49 58 46 26 24 20 22 19 24 21 20 26 24 25 30 31 23 22 26 29 31 38 34 36 31 28 24
91 88 84 78 84 88 88 87 89 89 88 87 86 84 87 95 75 77 63 44 50 50 40 25 24 21 18 22 25 18 18 23 27 27 27 25 25 26 31 30 34 45 35 32 32 35 28
90 88 81 80 84 88 88 88 89 89 87 87 87 85 91 87 76 75 52 63 65 54 61 23 26 18 19 24 24 22 20 24 29 23 29 36 34 34 33 34 32 38 36 37 37 41 45
89 88 80 82 85 88 88 89 89 90 88 87 87 86 92 82 87 67 74 77 54 79 56 30 24 25 25 27 26 22 24 24 27 27 28 30 31 31 34 31 31 30 40 44 46 50 66
89 87 81 84 87 87 89 91 90 91 88 87 89 89 86 65 74 77 85 54 76 73 31 26 29 27 28 32 31 28 34 37 44 41 43 34 36 30 30 37 33 34 54 75 77 80 74
89 86 85 85 88 85 90 92 93 92 89 89 90 93 84 70 87 83 68 56 77 38 32 26 26 31 32 30 35 35 37 42 35 42 45 49 54 36 30 37 41 42 49 77 71 77 68
88 86 87 86 87 88 94 98 97 92 88 89 86 86 90 83 80 80 67 84 68 42 26 27 30 36 37 32 33 35 41 40 41 41 46 52 47 36 31 32 38 44 48 42 66 81 81
86 87 88 86 87 94 98 96 95 92 87 85 79 78 65 79 82 74 82 80 53 31 32 28 35 36 40 33 37 42 46 43 43 37 40 43 47 35 30 34 33 29 34 58 72 66 67
87 89 88 88 92 98 96 95 94 91 87 91 83 55 56 82 66 70 83 74 42 32 36 35 40 34 36 36 37 46 48 44 43 40 37 51 47 44 42 40 45 43 49 50 52 73 77
89 89 88 88 98 97 96 94 94 90 91 76 84 66 75 59 46 87 70 52 42 34 34 37 42 44 37 44 54 59 58 53 50 54 43 50 56 69 50 35 34 37 47 52 77 58 86
90 90 89 92 98 96 97 94 93 90 89 83 77 83 78 57 66 86 59 42 38 38 39 40 44 44 45 48 63 63 61 59 51 52 60 49 56 77 61 52 41 38 39 55 64 76 64
91 90 91 98 97 96 96 94 92 91 86 87 85 81 78 82 75 60 64 50 48 44 42 40 40 40 45 50 57 64 65 56 50 47 70 62 58 58 70 56 44 44 42 51 60 84 76
92 91 98 97 96 96 96 92 92 92 86 75 86 72 58 67 60 64 59 47 50 50 43 40 41 44 47 61 63 69 62 59 51 56 54 57 68 62 52 50 47 48 47 46 46 55 68
92 95 97 97 95 96 94 91 94 95 84 75 77 74 70 59 50 59 70 54 48 47 44 48 48 49 50 60 55 65 55 58 55 54 62 69 79 73 71 60 68 59 59 56 51 46 48
92 98 96 97 97 96 92 93 94 96 84 68 79 79 63 85 56 65 66 50 51 49 51 46 54 64 68 63 64 64 62 59 56 55 77 75 82 77 73 78 78 75 59 51 48 50 49
96 97 97 98 97 92 93 93 93 93 92 84 88 88 82 80 74 58 54 46 53 52 57 60 56 61 59 58 52 48 51 57 60 69 61 81 94 94 80 72 60 58 48 46 51 63 68
98 97 95 95 95 95 94 93 92 93 94 85 90 85 81 94 84 60 52 67 67 70 71 69 67 58 58 61 71 60 79 71 71 76 83 70 89 98 77 88 55 55 50 53 52 60 70
97 97 96 95 95 95 95 93 92 90 93 89 96 96 77 90 79 68 64 64 78 84 80 76 66 70 75 94 81 84 76 57 78 73 71 80 81 81 99 72 61 52 55 49 51 82 74
98 96 95 95 95 95 95 94 92 90 92 90 92 91 84 89 77 73 68 68 75 83 87 83 77 77 73 97 98 94 89 65 85 84 91 97 96 92 99 93 81 58 54 52 73 65 82
95 95 95 95 95 95 95 95 93 93 94 85 88 90 79 91 82 82 80 67 78 80 87 78 75 82 100 87 91 97 98 85 84 75 83 86 95 99 97 98 81 58 55 63 65 84 84
95 94 94 94 93 94 95 97 97 94 94 94 79 88 90 84 79 80 78 76 77 64 82 81 63 84 86 96 98 99 98 99 90 88 70 67 71 84 77 80 59 60 58 60 78 83 84

GFSGBSN_sfc_rhum_021.txt.gz
RH
85 83 83 84 87 89 87 85 81 82 82 84 82 82 82 82 81 82 83 92 77 79 78 79 81 81 93 76 38 22 78 77 43 31 26 26 28 25 22 17 20 12 11 12 11 10 9
87 86 85 86 89 88 85 87 82 83 85 84 83 83 83 83 83 89 92 88 83 80 80 81 81 81 91 40 23 22 41 37 33 33 29 25 22 23 22 18 12 12 12 11 12 13 11
87 86 86 89 92 91 88 90 89 84 84 84 86 85 85 89 94 94 93 88 82 81 82 82 80 81 82 31 30 32 28 32 27 26 24 27 26 24 21 17 16 11 12 13 16 16 16
86 86 87 90 92 91 88 91 95 92 84 86 85 88 96 96 95 94 92 82 83 82 83 82 82 91 50 28 34 24 16 12 17 22 18 16 19 21 20 15 17 17 20 19 17 18 19
87 86 88 90 92 89 87 92 95 94 93 94 94 94 93 94 94 94 86 85 87 89 85 86 95 93 29 27 19 13 13 15 17 16 18 12 18 22 18 19 22 25 24 26 23 18 20
87 87 89 91 90 86 87 93 95 93 93 93 92 91 90 92 93 94 92 90 91 92 90 79 71 62 33 22 18 13 14 16 21 24 20 20 27 24 26 21 23 25 26 47 23 22 23
86 88 90 90 89 84 87 93 93 92 91 91 90 87 88 92 93 95 96 96 73 67 80 28 32 35 31 14 13 14 15 19 21 22 28 28 28 29 28 28 22 23 30 29 29 23 24
88 89 90 90 86 82 86 91 92 90 90 90 86 84 87 91 92 94 94 72 40 48 37 44 42 38 30 25 20 17 19 21 25 28 30 27 31 28 29 32 28 28 29 32 29 24 30
90 90 90 89 84 83 88 90 89 89 90 88 84 83 87 91 92 95 74 55 53 56 55 27 29 28 23 19 24 23 22 27 25 27 30 32 29 25 27 32 35 41 38 37 31 28 32
90 91 91 88 82 85 89 90 89 89 89 86 84 85 90 94 80 74 62 47 62 49 43 27 25 19 21 23 25 20 20 24 27 30 28 30 33 30 32 31 37 43 39 35 33 31 46
91 91 90 88 82 87 89 89 88 89 88 86 84 86 94 87 72 80 57 74 69 49 58 26 26 18 20 25 26 19 21 24 26 28 31 40 38 34 33 36 36 41 40 37 39 43 45
90 91 89 87 84 88 89 88 89 90 88 86 86 90 93 87 91 65 78 76 51 73 54 35 28 28 25 28 28 23 27 28 29 32 32 36 34 33 37 35 34 34 42 49 57 54 66
90 89 88 85 86 88 89 88 89 90 88 85 88 93 85 71 75 82 83 50 69 80 34 32 33 29 32 36 33 33 38 40 41 42 49 38 38 34 35 41 38 40 53 74 77 80 75
90 89 88 84 88 90 87 89 91 91 87 88 93 95 90 71 90 84 59 46 77 48 36 30 31 34 35 36 39 39 41 42 38 44 50 53 54 38 31 40 43 46 50 78 65 77 69
89 89 87 87 89 90 88 96 97 91 88 93 93 90 93 88 85 74 58 74 68 52 29 32 34 38 42 36 36 40 47 42 43 43 49 52 48 38 34 34 40 48 52 48 74 82 82
88 88 86 89 91 90 96 96 97 91 88 89 84 75 67 83 80 72 75 74 60 39 33 32 39 40 42 38 42 47 51 46 47 41 44 46 46 38 32 37 37 36 39 59 72 65 67
88 87 88 89 92 97 97 96 95 90 90 88 75 47 49 87 57 64 70 74 58 34 39 33 37 41 39 40 44 52 53 50 52 46 42 51 42 43 43 43 47 45 51 56 59 75 76
88 88 90 90 96 97 96 94 93 91 92 79 79 53 74 52 46 90 75 59 49 38 36 40 45 45 42 51 60 61 59 57 56 57 44 54 58 71 51 40 41 44 52 52 72 60 88
88 90 89 94 98 96 96 94 92 92 83 84 76 93 83 48 61 88 60 50 42 39 39 42 46 49 50 60 64 67 64 61 50 54 56 51 59 74 58 52 42 48 47 63 66 76 67
88 90 91 97 96 95 97 95 92 92 92 84 76 85 78 84 69 52 61 52 51 44 43 43 44 46 50 60 64 69 68 61 52 48 70 60 63 56 64 55 50 45 45 59 59 82 73
90 91 97 96 95 96 97 92 93 92 91 79 87 69 64 76 75 79 61 52 51 51 46 43 45 48 51 65 70 74 68 62 49 60 61 57 63 64 61 59 51 50 46 52 57 60 64
91 98 98 95 96 97 93 91 95 92 90 78 88 75 76 59 54 60 75 58 50 50 46 50 48 59 55 57 55 68 57 56 46 57 71 72 77 68 76 66 70 59 49 55 53 51 60
96 97 95 96 96 94 91 94 97 91 78 76 84 88 66 86 68 73 75 57 51 50 58 54 56 63 66 67 65 67 68 64 58 61 80 74 79 67 58 79 72 57 62 57 52 51 50
97 96 97 97 96 92 93 94 96 88 87 82 94 83 84 88 63 55 59 54 56 53 58 63 58 63 59 58 54 50 55 68 73 80 66 83 92 88 76 72 53 43 53 50 51 58 70
97 98 98 97 94 94 94 94 93 93 92 78 96 80 82 96 81 66 66 72 70 76 76 76 73 62 61 52 67 59 74 67 72 84 82 74 89 97 77 76 50 45 55 59 59 57 72
98 96 95 95 96 95 95 94 94 95 94 85 97 92 78 91 81 64 72 67 76 83 78 79 75 74 68 88 78 68 57 53 78 82 79 79 77 77 98 65 52 43 60 53 51 74 75
97 94 94 95 96 96 95 94 94 95 92 79 92 93 80 90 81 73 73 70 76 81 86 81 77 78 69 94 91 88 85 62 80 81 94 96 97 87 100 86 72 53 56 53 66 57 83
95 94 95 94 96 96 97 96 96 95 95 81 93 94 77 92 88 86 81 76 81 80 84 76 76 82 92 83 86 94 96 88 85 75 88 92 98 98 98 96 68 55 61 64 64 76 78
95 94 95 94 95 98 98 98 98 97 96 85 86 94 91 84 85 84 80 82 80 62 84 84 68 78 83 93 98 98 98 99 88 85 73 76 69 82 74 75 57 61 64 63 71 79 86

GFSGBSN_sfc_rhum_027.txt.gz
RH
89 88 87 87 88 89 86 86 89 92 93 89 80 83 81 80 80 84 85 85 80 87 81 76 76 78 84 72 43 41 81 77 50 24 22 23 25 23 26 24 19 17 13 11 10 24 26
90 90 89 89 89 89 86 86 88 92 93 92 84 81 84 82 81 80 81 82 83 85 82 77 76 77 86 46 21 49 53 43 31 23 24 22 21 21 22 19 17 16 10 11 11 14 15
90 91 90 90 91 90 89 89 91 92 91 92 86 83 86 83 81 84 82 82 82 79 80 78 77 76 92 44 23 43 36 33 30 24 26 24 21 23 24 21 14 11 12 12 14 12 13
90 91 91 92 92 91 90 91 92 92 90 92 90 84 87 84 87 83 82 85 84 82 80 81 81 80 66 31 33 30 33 24 29 25 22 23 24 22 23 16 17 14 17 14 13 14 15
91 90 90 91 92 91 91 92 92 91 89 92 95 95 94 94 96 89 86 86 84 81 83 86 89 90 48 31 23 17 16 16 24 28 26 20 24 25 16 19 19 22 16 19 16 18 15
93 91 90 91 91 91 91 92 92 90 89 94 94 94 94 94 94 96 87 84 84 88 84 74 80 75 36 20 23 14 14 16 25 25 23 22 22 22 21 16 20 20 19 19 18 20 26
86 91 90 90 90 90 90 91 91 89 90 94 93 92 92 92 94 95 92 90 86 81 93 46 40 40 27 24 22 13 15 21 21 23 26 25 21 22 22 20 15 19 20 20 22 26 45
85 91 90 90 90 90 89 89 90 88 91 93 91 92 90 92 95 91 91 82 47 46 57 61 50 44 36 30 24 16 18 22 28 27 23 25 27 22 29 26 25 24 25 27 31 33 42
84 87 91 90 89 90 89 89 90 88 92 91 90 90 90 94 96 94 93 76 52 54 61 40 45 33 20 25 23 20 21 24 23 24 25 29 24 28 29 30 31 32 30 30 30 36 37
82 85 93 89 89 90 90 89 88 88 91 90 90 90 94 96 94 88 76 55 57 63 45 33 27 23 22 22 26 18 20 22 26 28 34 33 30 28 29 31 30 38 30 30 30 30 31
81 83 92 90 90 91 92 90 87 89 91 90 91 90 95 88 80 75 58 76 72 52 56 28 23 18 23 22 21 22 26 23 28 30 30 35 33 30 33 33 33 38 34 32 32 33 33
82 82 87 91 90 92 91 89 87 89 91 90 92 91 95 93 92 74 73 63 55 65 65 32 26 24 28 28 29 25 29 28 30 35 35 34 29 30 30 35 33 40 39 42 45 42 40
84 83 85 92 90 92 90 88 86 90 91 91 92 93 91 76 74 87 75 54 60 69 37 34 32 29 32 37 34 34 37 40 34 42 44 35 34 30 33 34 33 36 40 52 56 60 52
86 90 91 90 90 90 89 87 88 91 91 91 93 95 93 84 82 84 56 47 56 47 41 31 32 33 36 35 37 36 36 39 37 38 42 39 41 30 31 32 34 40 40 61 54 64 54
84 88 94 92 90 89 87 86 89 92 91 93 95 97 93 89 85 80 53 63 54 51 33 34 34 39 40 36 37 40 42 38 39 38 42 46 40 30 32 31 32 40 41 43 62 69 61
80 88 91 94 90 88 86 88 91 93 94 94 93 92 84 88 89 66 58 55 46 48 36 33 39 41 43 38 42 42 42 44 40 42 38 42 44 34 30 32 36 35 39 47 52 58 46
81 88 92 94 90 88 86 89 93 94 95 91 81 77 68 83 65 57 58 51 56 52 39 33 39 42 41 42 44 46 44 46 47 42 39 37 44 43 36 37 39 41 45 53 48 55 49
82 91 94 93 89 86 87 92 94 93 95 97 74 61 79 63 56 75 60 53 61 40 42 44 39 42 43 50 52 50 49 46 51 50 41 44 54 57 37 36 39 36 41 44 53 47 66
87 89 92 88 88 86 89 94 93 93 90 90 68 93 84 59 68 83 58 52 49 41 45 44 49 48 53 59 59 58 58 56 49 46 50 47 56 57 44 36 35 39 46 48 54 61 60
87 91 90 88 87 88 93 95 94 95 89 80 85 92 81 70 65 54 57 52 50 49 48 44 50 51 58 60 63 66 60 55 54 51 74 58 53 50 46 38 42 43 52 46 46 62 52
90 92 90 90 87 92 94 95 97 94 91 83 79 81 79 80 69 55 50 53 49 51 47 45 48 48 56 65 64 67 59 48 48 66 62 50 53 52 54 54 46 37 43 51 43 45 52
94 92 91 89 93 93 95 95 96 95 92 84 80 73 69 73 72 57 70 58 49 50 49 50 51 55 54 59 52 66 57 48 40 58 61 60 63 54 59 60 58 52 44 43 50 49 46
95 90 92 93 94 94 95 96 96 93 81 80 94 76 62 84 80 64 69 63 52 56 64 53 51 57 59 59 59 64 61 64 54 62 69 62 68 59 59 60 52 60 50 45 45 46 43
91 94 95 96 96 94 97 96 96 90 82 78 89 76 76 82 80 61 63 58 56 54 58 62 56 58 62 61 57 53 59 70 66 69 61 68 64 68 73 71 60 36 45 43 45 44 42
94 95 94 97 95 97 95 96 96 89 89 86 95 74 76 97 70 67 70 74 73 77 77 74 75 66 61 54 72 66 74 75 74 70 63 59 70 81 78 58 42 27 36 49 56 37 43
97 94 96 95 98 95 95 97 96 91 91 91 96 86 75 85 75 61 74 70 76 81 79 85 72 64 61 78 77 78 73 58 55 71 71 64 66 72 78 64 61 41 33 47 43 60 43
97 96 97 95 95 95 95 96 95 90 91 90 97 87 78 90 82 71 73 73 73 77 84 79 71 74 63 84 89 78 64 55 56 69 92 96 95 84 82 80 59 42 41 46 54 53 55
97 96 96 96 97 98 98 95 92 87 90 87 97 95 77 94 90 84 74 75 76 76 83 79 75 80 86 88 91 79 90 75 67 58 80 75 91 92 89 80 70 45 49 61 56 55 55
95 97 99 99 97 98 99 97 90 83 88 89 93 97 88 87 88 85 81 81 80 62 79 84 69 75 75 86 90 93 99 98 82 75 71 70 67 72 63 66 51 49 57 52 56 53 53

GFSGBSN_sfc_rhum_030.txt.gz
RH
90 89 89 89 89 89 88 89 90 91 92 93 93 85 83 80 81 82 86 86 86 83 86 75 76 76 66 48 24 28 75 72 31 15 16 14 14 13 11 11 13 14 11 9 14 20 14
91 91 90 90 90 90 89 89 90 90 92 93 93 91 86 84 82 83 86 87 86 84 82 74 76 80 60 35 13 26 30 24 16 14 16 14 13 12 15 16 14 12 10 8 9 15 22
86 93 92 92 90 90 90 91 91 90 92 92 91 92 85 86 81 82 85 88 87 85 77 77 76 64 62 28 15 23 22 19 15 13 15 15 13 14 16 17 12 9 10 9 9 12 19
84 87 92 93 92 92 92 92 91 90 91 91 90 94 89 86 86 85 89 88 87 80 77 79 80 71 41 19 16 20 17 20 20 15 15 16 16 16 18 12 10 9 9 11 11 11 12
85 87 92 93 93 92 92 91 91 90 91 90 89 94 94 95 93 93 92 88 84 79 79 82 78 70 30 27 18 12 16 12 20 19 19 17 18 18 16 14 13 12 12 12 13 13 13
84 86 89 93 93 92 92 91 91 91 91 89 89 93 93 93 93 94 90 84 81 84 77 66 61 69 31 15 14 11 10 13 19 21 22 21 18 16 14 12 18 15 14 9 11 15 11
81 79 84 91 92 92 91 91 91 91 90 88 90 92 91 91 93 94 81 67 64 62 67 31 25 30 17 14 14 10 10 16 15 16 19 19 18 16 12 13 11 10 12 13 15 25 18
79 81 80 82 93 91 90 90 91 91 89 87 91 90 90 91 95 92 69 55 34 43 37 36 32 30 22 19 18 11 12 14 20 15 17 18 17 19 20 15 14 12 14 19 22 24 23
79 79 83 80 89 91 90 90 91 91 88 87 91 89 90 94 94 87 62 47 37 38 45 29 29 20 13 18 15 11 12 14 16 15 18 19 21 21 18 17 17 20 18 22 20 25 24
77 82 83 82 83 92 90 90 91 90 87 88 90 89 94 96 82 56 53 34 35 46 30 21 22 19 17 17 16 14 15 14 17 18 22 21 21 20 19 20 19 21 21 20 23 20 18
80 82 83 85 84 93 91 91 91 90 87 89 90 90 96 87 57 46 43 36 54 47 38 18 18 13 15 16 15 18 18 15 15 22 23 26 22 21 20 24 24 25 22 20 20 19 22
79 82 83 84 84 94 92 92 91 89 88 90 90 92 96 85 66 50 49 54 51 45 39 22 17 18 20 18 18 19 19 18 20 22 22 24 21 22 23 26 23 26 25 25 24 23 29
80 82 83 83 85 93 92 91 91 88 88 90 91 93 88 58 44 65 65 51 40 45 24 23 21 19 18 21 23 23 23 23 19 29 30 24 25 22 24 25 27 26 26 31 40 38 34
80 81 82 84 86 89 93 91 90 88 89 91 92 94 86 55 48 67 53 41 42 25 24 21 19 20 22 22 26 27 26 24 26 23 23 24 33 23 24 25 21 25 24 31 29 35 29
80 81 83 83 89 86 94 91 88 87 92 92 94 82 73 62 68 67 47 47 33 29 22 22 21 23 26 24 23 26 26 23 26 27 21 26 27 24 26 24 24 29 28 31 42 56 50
80 80 82 84 90 91 92 90 87 89 93 94 62 67 50 58 68 59 52 41 27 30 25 20 23 20 27 23 24 27 29 30 29 30 29 28 32 26 27 25 27 27 26 35 37 49 33
80 79 79 84 89 93 91 89 86 91 93 90 58 50 64 70 62 55 47 34 28 33 28 23 21 26 23 29 21 25 27 32 31 29 26 24 26 34 30 28 26 32 30 31 28 38 31
82 82 81 83 91 90 94 88 89 95 93 88 57 50 72 60 53 44 39 28 47 28 30 27 24 25 26 29 31 24 28 28 34 30 29 30 32 42 30 28 28 27 27 25 33 34 46
84 83 83 83 94 94 95 88 92 95 88 62 49 60 63 54 56 61 38 30 36 27 28 30 28 28 32 34 37 36 37 40 37 33 34 33 36 43 37 31 28 29 28 26 34 40 40
84 84 84 86 91 94 94 90 93 91 87 52 46 74 69 50 35 36 35 31 34 33 32 32 35 36 39 40 42 45 43 41 39 36 70 46 36 34 37 27 26 32 32 27 25 40 28
82 84 85 91 92 90 94 93 94 93 88 63 48 48 45 60 46 37 31 28 31 36 32 31 36 32 34 46 43 46 41 37 40 63 45 37 38 36 33 34 31 27 27 30 27 25 35
81 85 89 91 92 91 95 93 95 92 90 61 48 49 50 41 37 35 43 34 28 34 32 32 34 36 37 40 32 43 38 34 34 43 41 41 45 44 45 40 37 36 28 25 27 25 28
82 84 92 91 94 90 94 93 95 93 88 51 63 47 36 68 42 39 36 29 27 38 46 34 33 38 43 42 42 39 40 35 32 41 47 45 51 46 41 42 41 73 39 27 25 27 28
85 87 91 94 91 91 93 91 94 92 89 41 52 40 52 61 46 32 31 32 34 35 42 44 38 39 51 41 38 38 41 40 40 46 41 52 48 59 68 69 82 21 26 26 26 23 20
84 90 94 90 90 93 92 94 92 94 88 59 58 44 52 99 44 35 36 38 46 49 53 48 54 46 42 42 51 54 65 80 63 48 44 38 48 76 92 44 28 14 23 27 34 22 20
92 95 91 96 94 94 94 95 95 93 84 70 65 55 47 80 62 30 41 46 50 53 58 64 55 47 42 54 66 73 63 43 50 55 49 43 47 56 72 89 88 29 30 34 33 35 24
91 94 95 96 95 96 97 96 95 93 87 70 76 76 45 68 44 47 43 52 46 50 57 59 56 59 48 76 97 79 58 38 44 62 89 82 86 88 72 91 46 25 25 36 43 35 32
96 97 96 97 97 96 96 97 96 92 89 69 83 77 54 70 61 61 51 53 53 47 63 58 55 61 68 91 91 68 90 52 45 37 54 59 79 93 78 97 80 30 38 46 38 35 36
97 97 96 96 95 95 95 96 94 90 88 86 73 74 61 58 69 65 67 63 59 46 51 55 50 51 48 68 83 87 97 96 66 59 48 53 47 52 46 44 34 34 35 34 40 42 40

GFSGBSN_sfc_rhum_033.txt.gz
RH
83 89 92 91 90 90 89 89 90 90 91 91 92 92 88 83 82 84 87 87 85 84 83 79 76 76 63 42 20 27 76 73 24 19 13 11 10 10 10 8 8 12 10 9 16 18 19
80 85 89 92 92 90 89 89 91 91 91 90 91 92 91 88 83 83 86 86 86 87 84 78 74 77 60 34 10 16 18 18 12 14 11 9 9 8 10 9 11 10 9 12 14 16 15
79 82 86 93 92 92 90 91 91 91 90 90 91 90 91 88 87 86 85 86 88 88 78 76 73 56 49 26 11 16 15 14 10 11 11 11 10 12 13 15 11 10 11 12 13 13 17
80 82 84 86 95 93 92 92 92 91 90 90 90 90 91 94 88 88 87 89 88 81 75 74 74 53 39 13 11 12 14 14 13 11 11 12 12 14 15 12 12 10 10 14 11 10 14
78 82 82 87 89 94 92 92 91 91 90 90 90 89 91 94 93 92 89 88 80 76 75 76 70 54 28 26 14 10 11 12 14 14 14 13 15 17 15 17 14 11 15 13 12 9 12
74 80 82 89 89 95 93 92 92 91 90 90 89 88 91 92 92 91 91 82 80 80 68 49 44 56 30 15 12 9 10 12 17 18 19 18 16 19 17 15 17 16 15 12 11 11 12
72 78 80 82 84 87 94 92 92 91 90 89 88 88 91 90 91 92 79 55 47 52 49 32 23 21 14 11 10 10 9 12 15 17 19 18 18 18 14 14 15 13 12 10 10 12 11
72 74 80 80 80 80 90 93 92 91 90 89 87 89 89 89 93 91 72 36 32 38 41 27 20 19 16 13 14 10 8 15 17 18 15 18 20 16 14 12 12 11 11 14 12 13 15
74 74 73 80 79 81 81 93 93 92 90 88 87 89 88 92 94 83 51 35 30 34 45 22 18 18 13 14 12 10 10 11 15 20 22 24 29 17 16 12 12 12 13 15 14 14 14
75 76 78 78 79 81 82 89 92 92 90 88 87 89 92 93 81 41 44 28 28 37 46 21 18 14 13 13 15 9 9 11 18 22 16 24 17 16 17 14 12 17 16 14 16 18 19
77 76 77 79 80 82 84 87 93 92 90 88 88 90 95 91 57 39 37 28 35 52 47 15 14 11 11 14 12 12 11 11 16 17 17 23 18 16 17 18 17 22 17 17 16 15 21
80 76 76 78 82 85 86 90 94 92 90 89 90 91 95 80 61 43 38 48 52 61 45 18 15 15 16 14 12 12 12 11 13 16 16 20 16 17 18 19 18 18 19 20 18 17 27
79 79 78 80 82 83 86 89 93 93 90 89 91 93 87 50 41 42 52 53 47 50 17 18 17 15 15 16 15 14 15 16 15 21 22 16 18 18 17 20 19 17 20 33 37 32 32
79 81 78 80 81 83 87 87 93 94 90 90 92 94 87 50 42 55 59 50 55 22 20 14 14 15 17 15 15 16 16 15 13 15 17 22 29 19 18 19 18 20 18 34 34 30 23
73 76 81 80 83 83 86 87 93 93 89 91 93 76 66 61 60 60 60 59 40 19 14 17 16 19 17 16 16 16 17 13 13 14 22 22 24 18 20 19 16 20 24 20 28 48 40
73 76 83 80 80 82 86 87 93 94 90 93 63 71 56 55 64 65 60 48 28 17 17 15 20 18 21 20 19 18 19 16 20 20 20 19 25 19 22 20 20 23 18 27 26 41 34
75 75 83 80 81 84 86 87 91 94 91 89 57 56 41 52 60 58 58 39 25 17 18 19 17 18 18 19 16 19 18 22 20 22 21 16 20 28 23 24 19 25 24 22 22 28 34
78 75 83 77 78 80 88 90 92 94 90 85 64 57 57 60 57 54 46 30 28 18 24 20 21 18 19 19 20 17 19 18 19 20 22 22 22 33 26 22 20 21 22 22 36 28 33
76 80 86 76 78 79 84 88 93 94 86 57 61 59 73 55 65 65 37 26 21 22 24 23 20 19 17 21 25 19 18 35 30 27 22 25 25 35 31 26 22 21 19 20 20 30 32
82 82 82 79 78 77 82 85 94 94 84 55 48 71 80 70 39 42 39 30 29 22 22 19 17 23 24 24 24 26 26 34 34 27 62 42 25 28 36 24 20 28 20 19 23 37 30
80 87 80 80 80 81 88 87 95 93 82 66 52 44 46 65 51 41 34 28 27 30 24 24 25 25 26 32 30 32 28 35 35 58 34 32 34 26 22 24 22 20 19 20 20 20 29
88 82 83 83 83 82 84 86 95 91 80 72 50 36 36 43 43 39 41 30 24 24 27 28 25 22 21 26 28 30 30 30 31 36 34 30 36 36 41 28 27 28 22 18 17 17 15
81 84 85 85 86 87 87 92 95 91 79 60 62 42 36 54 47 41 36 27 24 28 36 22 22 24 29 31 33 31 29 26 26 35 39 38 40 44 36 32 32 63 36 24 18 16 19
82 82 85 86 90 89 89 92 96 92 78 43 53 44 51 61 44 34 27 25 23 29 33 30 25 29 41 31 30 31 30 30 31 36 32 44 44 52 56 68 81 17 16 16 21 17 14
82 82 84 88 90 88 90 91 95 93 90 70 70 50 44 99 35 29 27 27 24 33 34 37 42 35 33 32 44 53 59 67 42 32 30 30 41 62 89 39 24 16 14 19 22 18 16
83 85 85 89 89 92 94 91 96 93 92 91 79 50 38 68 44 23 26 25 36 43 51 54 43 38 38 46 60 53 52 36 45 45 33 33 37 49 56 85 87 33 22 22 23 32 20
84 87 86 90 90 93 92 93 94 93 91 86 70 69 31 37 24 26 29 32 27 32 40 55 54 53 42 72 96 67 54 33 45 58 88 74 78 80 64 82 46 22 21 26 41 42 28
90 89 91 89 93 94 95 94 94 94 94 91 65 62 41 47 45 42 28 30 33 31 58 49 51 53 57 76 85 63 81 48 43 30 51 57 74 89 71 97 79 22 26 37 38 28 26
86 90 95 94 97 96 95 93 94 94 94 89 72 55 46 44 58 54 57 52 47 39 34 49 36 46 43 51 76 81 96 94 60 53 32 47 40 50 41 43 29 24 25 24 27 33 31

GFSGBSN_sfc_rhum_036.txt.gz
RH
78 80 85 87 94 92 90 90 90 90 90 90 90 90 88 86 85 85 84 81 86 83 83 83 79 77 66 44 26 33 78 68 25 17 16 13 12 10 11 9 8 10 10 9 19 19 20
77 72 80 85 88 94 91 90 91 91 91 91 90 90 90 89 88 88 87 87 88 88 86 81 75 79 61 35 10 15 20 27 12 13 15 11 9 8 10 9 8 10 11 17 18 14 16
72 78 81 85 88 92 92 92 92 92 91 91 90 89 89 90 91 90 88 87 89 88 85 77 75 60 46 27 12 14 14 13 10 12 11 10 9 11 11 14 10 11 12 14 14 15 21
74 76 79 83 88 88 95 93 92 92 91 91 90 89 89 90 92 93 89 88 88 85 78 77 76 58 43 15 13 13 12 14 12 10 10 11 12 13 15 15 12 13 14 18 15 12 18
75 75 77 82 85 89 91 95 93 92 91 91 90 89 89 89 92 93 92 87 86 80 78 76 73 55 38 24 14 11 10 12 13 13 13 11 15 17 16 20 18 15 18 14 16 10 16
72 75 76 80 84 88 90 95 94 93 92 91 89 88 88 89 91 92 90 88 83 78 72 49 42 48 36 18 11 10 9 10 15 16 18 18 18 20 18 19 33 23 18 17 14 10 11
74 72 75 78 81 86 85 87 95 94 92 90 89 88 86 90 90 91 86 59 59 67 52 30 25 26 14 10 10 11 9 11 14 18 24 21 22 22 20 23 18 17 17 14 11 9 12
77 75 74 73 80 80 82 82 91 95 93 90 89 87 87 88 90 89 77 49 32 38 48 32 16 20 16 14 14 10 8 14 18 22 33 26 21 26 21 17 17 16 16 19 11 10 11
77 78 77 74 75 80 80 82 84 96 94 91 88 87 88 89 92 85 58 38 26 31 44 25 18 16 16 13 14 11 9 11 20 29 28 35 25 26 18 15 17 15 15 19 16 11 10
76 79 79 78 75 74 80 82 85 92 95 92 89 87 89 93 88 51 48 33 32 39 48 25 19 15 14 12 15 8 8 10 32 30 29 40 25 22 18 16 14 17 19 17 15 17 20
72 78 79 79 78 77 80 84 86 88 95 93 89 89 94 91 68 42 36 26 38 54 66 17 17 10 11 14 12 11 9 11 17 18 19 44 40 28 18 20 18 21 22 20 14 17 29
74 74 78 80 79 79 82 85 87 88 95 94 90 90 94 84 72 55 42 51 51 65 57 18 14 16 15 14 12 10 12 12 13 16 15 29 37 42 24 19 17 19 20 18 19 21 57
79 75 76 79 79 79 79 85 88 90 95 95 90 92 88 50 52 41 52 62 61 54 16 18 17 16 16 16 14 12 17 16 17 26 24 16 18 18 20 26 16 16 19 42 77 74 51
74 81 78 82 80 79 80 85 88 91 96 94 92 93 88 55 48 57 64 87 61 25 26 12 14 15 17 15 14 14 14 16 13 14 18 21 42 18 16 17 38 40 17 48 67 93 46
74 77 79 84 82 80 81 84 88 92 96 95 93 79 72 68 70 68 80 91 49 27 16 16 14 18 18 14 14 15 16 15 13 12 21 41 38 25 18 14 16 19 23 19 35 56 66
73 79 78 81 85 82 82 85 87 90 95 95 79 67 65 65 70 75 88 69 38 21 16 14 19 17 19 16 18 17 17 13 13 12 26 46 78 38 21 17 18 20 17 34 31 52 47
75 82 74 73 83 86 81 84 88 91 95 93 73 66 52 61 69 77 80 56 40 20 16 19 17 17 17 17 17 17 16 13 14 17 17 30 45 33 23 23 16 24 25 21 18 34 58
81 80 75 74 75 84 83 81 87 92 95 98 74 67 56 64 78 52 67 42 35 25 16 20 18 16 17 19 19 17 18 18 14 16 22 19 24 41 25 18 17 19 24 22 62 37 44
83 75 73 76 76 84 84 80 86 91 94 95 67 61 73 66 65 65 52 42 28 26 21 22 21 19 16 19 22 19 18 30 26 22 26 26 31 46 29 24 21 22 18 17 22 39 44
78 75 74 78 78 77 85 80 87 90 93 92 59 85 98 89 40 48 55 42 34 25 19 19 20 17 20 20 19 22 20 32 31 27 58 43 26 26 43 26 23 29 23 16 21 66 46
76 77 78 80 79 73 85 78 82 91 93 99 75 58 64 90 73 48 46 37 33 30 21 20 21 18 25 27 22 26 21 36 32 53 33 31 30 24 20 19 22 24 21 18 19 23 38
76 80 81 82 79 86 83 78 85 93 93 99 68 50 51 50 55 51 53 44 30 23 23 27 24 20 24 26 25 28 24 34 32 37 32 30 42 37 39 27 25 29 22 21 20 17 17
78 82 87 84 88 82 76 76 87 91 94 96 59 54 54 60 56 56 53 40 32 27 25 21 23 24 27 26 31 30 30 33 26 38 40 38 52 57 63 34 35 59 37 27 22 18 19
81 80 86 88 83 79 77 78 77 88 95 76 58 54 75 65 50 47 44 34 27 26 36 24 24 29 34 28 30 31 30 30 32 33 30 44 52 72 80 74 75 23 16 15 20 16 14
85 84 82 83 81 80 82 84 87 86 91 88 86 87 76 94 42 40 41 34 27 27 33 30 38 34 33 36 52 58 69 69 49 30 31 32 55 81 97 60 32 22 16 19 20 21 18
80 82 83 85 84 84 88 91 90 88 92 94 90 93 95 76 57 31 32 31 37 58 56 51 40 37 38 53 76 67 68 41 41 40 27 29 43 77 76 90 84 37 21 19 20 47 24
81 83 84 86 88 91 90 90 92 93 89 97 89 92 96 80 39 37 35 37 38 58 59 55 53 53 47 92 97 84 66 30 56 66 91 80 87 91 78 95 62 24 22 23 51 56 31
82 84 86 87 89 90 90 91 93 90 90 97 87 89 96 84 38 35 27 32 35 48 70 57 56 53 70 87 91 79 92 61 49 33 63 73 86 96 88 100 89 22 26 41 46 38 34
83 85 88 89 90 90 92 93 93 92 93 93 94 86 84 98 60 56 55 48 46 46 50 57 48 48 50 59 79 89 98 97 80 69 27 57 47 66 58 64 36 25 29 27 32 35 37

GFSGBSN_sfc_rhum_042.txt.gz
RH
74 75 80 82 85 85 86 89 94 93 92 90 90 90 90 88 88 90 91 93 92 89 87 87 86 85 85 72 59 42 72 74 35 24 23 26 30 32 27 18 16 16 15 28 47 49 48
77 78 79 81 83 82 83 86 89 96 93 92 91 90 90 90 90 90 91 93 94 92 90 88 86 84 89 54 26 46 40 35 29 26 24 26 26 23 19 19 24 22 22 39 43 43 42
75 78 79 81 85 86 85 86 86 93 95 93 91 91 90 90 90 90 90 93 94 93 90 88 83 75 81 33 31 32 32 29 28 21 21 20 23 26 24 24 24 24 32 43 44 54 38
79 77 78 80 83 87 86 85 90 89 95 94 92 91 91 90 90 89 90 93 93 92 90 88 81 86 73 38 44 34 27 23 20 19 18 19 21 23 28 23 25 24 29 47 41 39 33
70 76 78 79 82 85 88 88 90 89 90 94 94 92 92 91 90 90 91 92 93 91 90 87 92 93 68 41 35 30 22 21 21 19 21 14 24 31 27 34 36 31 29 30 40 32 31
68 71 71 79 79 82 84 88 90 90 91 95 95 93 91 89 89 90 93 92 90 91 82 68 65 77 50 31 28 19 19 19 24 26 29 28 33 35 37 38 45 33 30 29 27 37 37
75 70 70 68 80 79 81 82 89 90 91 93 95 93 90 88 87 90 93 89 78 85 82 60 40 38 29 26 21 21 16 20 25 37 40 50 45 48 43 38 32 33 33 35 31 27 36
79 79 67 69 78 78 78 80 86 91 87 91 95 94 90 87 88 90 95 82 64 54 69 57 50 45 37 32 30 23 17 21 32 43 53 50 53 41 37 31 33 34 34 37 27 23 33
78 78 78 76 78 81 78 76 85 88 88 88 95 95 90 86 91 95 96 77 52 49 75 59 52 50 43 35 29 26 17 27 40 46 46 48 39 36 36 31 31 33 40 36 31 26 22
77 78 79 76 72 80 80 78 78 86 88 88 92 96 90 91 87 86 92 66 66 60 89 58 45 40 25 20 29 20 17 28 41 42 46 44 37 39 39 38 34 35 29 28 27 34 34
75 76 78 79 74 71 81 77 79 82 88 89 92 96 92 83 91 83 66 60 66 74 84 36 42 25 21 25 24 21 17 23 36 40 41 40 43 41 43 36 33 33 34 32 33 38 41
83 76 75 80 80 73 78 82 78 79 88 90 92 96 94 94 99 89 71 72 84 84 87 44 28 27 26 26 26 21 19 18 28 40 41 38 42 39 34 29 30 30 35 41 52 47 50
82 85 76 75 78 81 77 70 82 78 86 89 92 96 90 76 79 81 83 87 95 90 41 36 32 27 28 30 28 24 27 24 27 45 51 39 39 38 33 35 32 32 40 60 65 75 60
75 78 84 72 76 80 80 75 77 80 84 89 92 97 93 72 86 85 92 94 92 59 52 32 29 28 30 28 28 27 27 28 30 31 43 48 48 35 36 40 47 47 41 65 55 78 63
72 76 81 75 76 78 82 81 70 78 82 89 95 98 96 85 89 78 99 96 74 64 31 32 29 36 34 29 27 29 30 30 24 26 32 49 52 44 38 36 35 41 45 40 68 82 84
74 78 87 77 73 77 82 84 75 80 79 89 97 98 94 82 79 84 99 78 68 48 40 37 38 34 39 32 32 31 30 25 26 23 31 46 58 46 39 36 33 33 30 45 58 62 72
76 75 88 80 73 73 75 79 84 72 80 88 96 94 83 78 78 90 92 73 61 41 46 48 44 35 32 32 29 34 29 23 24 32 38 51 44 47 48 40 35 40 39 40 43 62 64
75 76 82 83 77 76 79 80 81 75 79 90 94 94 85 77 94 90 85 66 60 47 48 52 50 42 34 35 34 32 30 25 33 42 40 48 60 63 42 36 38 40 41 43 68 45 67
76 79 79 80 77 75 78 79 77 81 78 91 92 87 86 74 93 86 71 64 56 49 52 51 48 43 33 35 42 41 45 47 45 36 42 47 60 70 49 40 44 39 34 40 55 65 59
75 78 80 82 77 77 77 78 76 82 76 90 94 93 99 89 70 60 70 70 70 49 52 55 56 51 43 40 39 41 52 49 54 44 65 47 49 54 59 41 42 49 45 47 44 74 60
77 81 81 76 75 78 78 78 77 81 80 91 94 74 76 94 89 60 57 63 70 64 54 51 51 52 55 44 38 56 54 51 52 54 49 42 47 40 37 37 39 39 36 41 37 43 51
79 84 79 76 75 76 80 81 82 80 84 93 92 94 81 89 71 79 61 62 56 50 48 43 55 50 46 40 38 43 50 53 45 54 45 48 48 50 52 47 41 45 37 39 37 38 41
81 81 78 77 78 78 77 84 82 88 89 96 86 85 88 73 77 87 74 58 49 45 48 39 46 48 52 41 39 39 45 48 47 49 56 55 65 72 68 53 49 64 45 37 37 40 36
80 78 76 74 76 74 81 90 86 86 93 95 74 84 98 85 81 80 64 53 50 47 45 45 40 49 47 51 50 49 51 62 60 62 55 67 72 82 82 69 70 48 35 33 41 39 34
79 76 74 73 74 76 84 83 86 86 87 96 91 90 98 97 68 74 64 55 46 46 57 40 48 41 47 64 76 71 82 65 60 51 54 59 79 86 75 78 57 41 28 32 42 49 44
76 74 74 74 77 82 81 79 80 84 81 92 88 98 99 98 84 57 71 55 57 70 57 65 67 71 64 88 86 77 82 66 64 51 56 65 79 79 93 73 69 52 36 34 40 68 46
77 76 76 80 81 81 80 80 80 82 80 90 92 93 98 100 91 60 64 63 50 68 83 87 72 72 74 97 94 86 84 58 74 70 69 87 89 82 97 84 69 49 35 38 46 52 51
80 80 79 80 80 80 80 82 82 80 80 89 92 95 95 96 91 90 55 57 50 63 84 84 85 83 95 88 90 92 85 77 79 67 69 68 88 93 96 91 66 48 40 45 55 60 58
81 83 84 85 82 83 84 84 82 83 80 84 95 93 93 99 97 88 84 84 62 52 86 89 72 75 84 88 97 99 92 95 81 90 68 71 66 78 74 76 59 59 54 60 61 66 73

GFSGBSN_sfc_rhum_045.txt.gz
RH
75 76 79 82 84 86 81 86 89 96 94 92 91 90 90 88 89 91 90 91 92 92 91 88 87 86 88 67 40 39 70 80 57 29 24 24 31 33 34 23 19 19 17 39 44 53 53
77 79 80 80 83 80 76 82 89 89 97 95 93 91 91 90 90 91 90 90 92 94 92 88 87 84 89 46 23 43 42 38 34 31 27 25 27 26 30 23 28 26 43 53 53 49 46
70 78 79 81 82 84 84 87 89 86 87 96 95 93 92 91 90 90 90 90 92 93 91 88 86 80 88 34 40 34 32 32 31 28 22 25 26 29 31 25 27 29 45 48 51 46 36
70 78 79 80 82 85 87 86 86 90 88 91 96 95 93 92 91 90 90 90 92 92 90 88 81 89 76 38 48 46 38 28 27 27 22 24 24 28 30 24 28 25 44 57 46 45 34
76 73 77 76 81 83 85 87 87 88 90 90 91 96 95 94 92 91 90 91 92 91 89 88 92 92 70 43 43 34 27 24 25 24 25 16 28 34 31 36 39 33 39 44 46 39 37
72 77 77 76 79 81 81 84 87 89 90 90 92 94 96 93 92 90 92 91 90 90 85 72 70 64 43 30 30 24 28 22 28 30 31 34 37 39 44 41 47 43 38 54 48 38 41
74 77 72 78 79 79 81 80 84 90 91 92 93 94 96 92 89 89 92 87 72 86 82 54 39 34 30 30 27 26 21 24 33 32 40 52 46 50 44 44 36 37 37 35 31 25 38
76 76 76 79 77 78 77 80 80 87 91 89 90 94 95 92 88 90 94 83 60 61 67 59 54 49 39 39 44 28 18 23 36 40 55 50 51 41 39 42 37 40 39 37 30 27 40
85 76 76 77 80 76 76 79 80 83 87 89 88 92 96 92 90 94 92 75 54 61 66 58 58 55 48 44 47 36 20 31 40 51 50 49 38 40 38 40 37 40 42 35 35 29 36
78 86 77 75 77 78 78 81 83 80 84 89 88 89 97 89 88 85 92 72 69 68 80 57 62 52 43 35 29 24 21 29 44 40 47 46 39 43 42 42 37 45 33 35 37 38 38
70 76 86 79 76 77 78 79 82 81 80 87 90 89 97 86 82 86 73 70 72 79 55 29 49 32 29 25 27 26 20 27 38 44 44 40 44 45 45 37 34 38 36 37 39 39 44
72 71 79 88 78 78 79 78 82 83 82 84 90 90 97 94 98 86 77 81 86 83 67 45 39 40 30 28 29 23 23 23 33 45 45 38 46 40 35 32 33 33 38 42 52 49 54
75 72 74 79 88 78 77 79 78 83 83 81 89 90 97 78 83 86 79 88 96 93 36 42 39 34 31 32 31 30 26 29 38 48 53 42 41 42 41 41 36 36 45 61 63 72 60
76 74 72 73 78 85 77 79 77 79 83 80 86 92 95 79 90 85 86 94 96 63 56 44 35 34 32 32 32 31 30 32 30 37 52 48 48 39 37 40 42 47 42 64 54 73 56
78 77 75 74 78 87 77 80 82 74 83 82 88 98 96 90 87 85 96 99 76 64 44 34 34 38 38 32 31 31 33 32 28 29 37 52 47 48 43 40 33 47 50 42 69 82 84
80 78 76 74 76 80 82 75 81 79 77 83 98 96 88 84 82 86 99 76 66 52 48 51 41 38 42 37 36 36 36 29 28 28 30 42 47 46 46 42 38 38 35 48 62 55 65
81 80 77 75 73 78 86 77 81 85 79 82 96 97 77 79 86 92 94 76 62 46 46 62 59 52 39 39 36 39 33 28 29 31 32 50 42 47 49 47 39 42 43 44 47 62 64
83 80 79 76 74 76 83 80 78 86 80 87 97 94 90 83 98 89 80 70 63 48 53 58 62 60 51 40 39 37 35 28 27 42 37 48 51 57 42 43 43 40 43 44 68 50 72
85 82 80 78 77 79 81 78 78 82 82 92 91 86 91 74 95 86 72 60 59 52 54 58 60 56 50 44 40 41 39 39 48 40 47 51 58 62 47 42 48 44 44 49 57 66 65
88 83 80 77 76 86 84 80 77 76 84 93 94 95 97 94 68 70 73 73 72 55 57 56 64 62 58 49 42 46 49 48 51 42 64 52 58 50 53 44 44 52 43 45 51 78 61
89 85 81 78 78 88 81 78 77 75 81 97 94 72 78 96 90 79 66 66 72 66 58 53 58 65 64 66 46 51 59 58 53 58 57 44 49 49 45 37 41 41 42 48 44 46 55
90 86 81 79 82 88 79 79 79 75 77 98 90 87 89 87 69 75 70 68 65 63 61 59 56 56 48 61 49 49 54 56 51 53 49 49 54 47 66 48 44 46 40 43 43 42 44
90 87 85 83 81 82 82 77 78 75 84 98 81 85 88 76 77 74 67 63 60 56 57 50 51 57 64 56 50 40 48 49 44 50 55 53 65 66 55 59 54 65 49 41 40 41 40
88 88 86 81 79 81 79 77 78 77 79 96 70 84 96 84 80 70 62 60 58 55 57 51 46 52 53 53 55 55 58 64 61 62 56 66 69 77 78 72 72 44 44 39 44 46 42
89 87 84 80 81 81 79 78 78 79 77 95 80 93 98 98 71 68 69 64 55 52 54 49 47 33 57 63 71 72 81 70 60 66 68 64 80 84 76 78 58 47 43 42 42 48 47
88 86 81 80 78 78 78 80 81 82 74 92 97 93 98 99 80 64 72 63 68 64 63 57 50 58 70 83 87 78 83 72 67 60 62 66 76 80 87 76 75 57 43 36 42 64 46
88 85 83 80 79 79 80 82 81 82 81 93 97 94 97 97 92 71 79 72 58 66 74 73 65 80 75 94 95 86 82 62 73 71 71 89 89 86 97 84 72 50 40 39 46 49 55
86 81 79 78 78 77 77 82 87 84 86 93 95 95 95 95 91 93 90 75 69 59 73 83 82 90 94 88 91 90 88 78 76 66 67 74 89 91 93 81 68 48 45 42 51 67 60
83 79 77 76 77 79 82 81 82 84 87 90 96 92 94 97 96 88 85 76 82 71 59 92 73 82 82 89 97 98 94 95 83 87 70 62 69 80 71 72 57 67 53 64 62 61 69

GFSGBSN_sfc_rhum_048.txt.gz
RH
76 73 78 78 77 81 80 82 86 90 91 96 94 92 91 90 90 90 91 91 90 89 91 90 88 87 86 58 31 40 81 80 61 37 25 28 30 34 36 30 25 25 19 35 44 56 58
76 78 79 78 82 77 74 80 84 88 91 92 96 95 92 91 91 91 91 90 90 90 91 89 88 85 84 38 21 43 53 39 31 31 30 27 29 29 34 32 31 38 54 55 50 52 51
76 76 78 78 82 79 82 84 87 87 90 90 92 97 95 93 92 91 90 90 89 90 91 89 87 82 85 30 46 39 39 35 33 30 27 26 29 31 32 31 30 33 53 50 51 49 45
74 76 76 78 78 82 83 84 86 86 86 89 90 94 97 96 93 92 91 90 90 91 89 88 82 90 71 37 51 48 47 37 32 30 25 22 27 32 34 28 31 35 46 57 49 49 42
76 77 77 76 80 80 80 82 84 85 86 88 90 90 93 96 95 93 91 90 91 90 89 88 94 94 56 40 38 32 35 28 29 29 26 18 30 36 34 40 40 36 45 49 46 42 44
78 76 77 76 75 79 78 79 77 83 87 88 90 91 93 95 96 93 91 90 88 88 87 78 72 73 33 32 33 31 37 28 30 34 33 38 41 43 48 44 45 44 40 34 49 42 42
72 83 74 78 76 79 74 77 77 75 86 89 90 92 94 95 96 90 89 76 60 78 82 59 49 32 27 33 38 30 28 27 34 33 42 52 47 50 44 44 40 40 39 35 39 30 45
75 74 77 76 77 78 76 76 79 83 83 88 90 90 91 96 95 90 94 80 59 65 76 58 58 50 40 44 50 38 23 27 36 39 55 51 53 41 42 47 46 43 42 40 32 31 40
74 75 76 76 79 75 76 77 79 81 80 82 87 88 88 97 93 92 91 71 59 69 75 50 57 57 50 48 49 45 23 30 40 49 53 51 40 41 45 43 41 42 42 40 39 36 43
73 72 71 75 78 80 74 77 77 79 83 71 84 88 88 97 92 87 86 70 69 73 72 52 64 57 52 50 41 36 23 30 47 40 51 48 42 41 48 43 38 47 36 37 37 40 46
76 74 73 73 77 84 78 73 79 77 83 80 81 88 89 94 81 93 75 70 74 73 54 29 60 39 47 31 28 30 23 30 38 44 44 42 49 50 46 40 36 38 39 42 43 46 49
78 77 75 73 72 76 87 75 77 78 83 83 81 87 89 98 96 88 74 80 83 78 61 35 46 46 39 31 31 28 26 30 37 48 50 41 48 43 39 38 36 36 41 45 55 52 56
80 79 77 76 73 73 82 82 76 78 79 84 83 85 93 83 87 88 77 91 96 89 36 41 50 38 35 35 33 29 30 38 41 47 54 46 44 45 44 45 41 43 46 62 64 72 61
79 80 80 78 76 74 78 88 76 79 79 84 84 85 93 83 80 83 84 97 96 64 56 44 39 39 35 34 32 34 32 35 36 40 54 50 48 42 41 39 42 47 45 66 55 71 53
80 79 81 79 78 75 78 84 84 78 79 83 85 95 98 88 86 76 94 99 72 65 50 41 37 41 40 34 34 34 36 36 31 37 38 56 46 47 46 44 37 50 51 45 71 82 84
81 81 81 81 79 76 75 78 87 80 79 81 96 95 90 86 88 86 97 80 67 51 54 58 43 41 46 39 37 38 39 33 31 33 34 41 46 52 46 43 43 42 40 51 63 60 62
80 81 82 82 81 78 75 75 81 83 79 82 97 95 81 88 93 99 93 78 62 50 52 62 69 63 42 43 37 44 39 33 31 36 33 48 38 45 52 48 43 47 50 50 50 62 62
84 82 82 83 82 80 77 76 82 79 80 84 95 96 86 90 97 88 82 71 64 54 56 58 67 66 61 44 44 41 39 30 30 38 34 46 49 50 41 44 43 42 45 48 68 52 73
88 84 83 82 84 81 78 80 82 85 77 89 94 81 88 78 85 82 74 66 62 60 58 61 66 62 60 52 45 45 43 36 43 36 45 49 53 54 44 43 51 50 48 50 60 68 67
87 87 85 86 85 81 78 78 81 87 76 90 97 93 98 94 60 70 72 73 66 60 59 59 66 68 64 55 50 48 42 47 56 42 62 48 58 46 46 42 46 59 48 56 56 79 65
82 89 87 88 85 82 78 79 81 82 82 93 98 79 82 95 84 75 64 67 69 64 57 59 66 68 67 62 56 53 58 58 55 67 56 46 49 53 48 42 44 45 47 52 50 52 56
84 85 89 90 85 83 78 78 81 79 80 96 98 95 89 78 68 82 78 69 68 62 65 60 66 61 64 75 57 53 58 60 53 56 56 53 53 50 65 52 50 51 46 52 51 50 49
84 84 90 91 88 84 80 78 81 81 84 98 95 91 93 72 78 79 74 66 65 61 56 57 53 56 66 57 47 44 50 52 55 59 59 54 64 66 57 59 54 66 50 46 46 48 44
85 84 91 91 89 86 82 81 78 78 78 94 94 92 95 90 81 75 63 64 62 60 64 53 56 61 54 52 57 59 61 62 58 69 60 67 64 74 79 72 67 46 49 45 47 45 43
85 86 88 90 88 85 82 81 78 76 76 87 93 93 93 92 78 71 65 63 62 58 63 57 50 46 47 53 71 73 83 75 71 75 76 68 76 82 75 77 57 49 44 46 44 40 46
85 88 92 88 88 85 86 85 79 78 75 82 97 98 96 98 81 63 71 61 69 70 74 65 54 51 62 82 81 81 90 72 71 66 67 66 74 73 86 75 72 55 46 40 38 53 49
84 92 90 89 88 85 88 84 78 79 78 84 92 95 98 98 89 72 76 69 63 69 78 72 64 84 68 94 94 87 76 72 77 74 80 88 88 80 96 84 75 56 43 40 49 53 55
92 90 91 89 88 83 81 81 76 80 80 86 90 92 99 93 93 93 91 77 66 62 84 80 76 82 95 89 92 90 92 83 82 69 76 77 87 91 90 86 77 47 46 46 51 70 62
90 90 89 88 85 84 82 80 80 81 78 80 93 86 91 98 96 88 88 84 82 73 66 83 76 84 74 91 96 96 89 96 80 82 68 71 70 78 72 74 60 57 51 54 58 63 65

GFSGBSN_sfc_rhum_051.txt.gz
RH
75 71 73 70 75 72 71 69 77 86 89 89 90 95 95 93 91 91 91 91 90 89 88 88 87 87 74 37 26 44 84 78 54 36 20 22 22 24 24 23 20 19 17 25 29 46 48
74 75 77 72 72 71 73 79 81 86 89 89 90 92 96 96 94 92 92 91 91 90 89 88 87 85 66 29 22 47 56 42 31 24 22 21 23 23 24 25 22 22 44 44 46 46 45
73 75 76 81 73 69 72 78 82 84 87 87 89 92 92 94 97 95 93 92 91 91 89 87 86 78 71 29 37 34 35 29 26 24 20 20 21 23 23 25 22 25 38 40 42 41 38
79 76 76 79 82 80 78 70 80 75 84 87 87 89 90 92 95 96 95 93 92 91 89 88 83 81 58 32 39 44 40 34 29 25 18 18 23 24 25 25 24 29 35 39 38 38 34
73 75 79 77 77 80 80 77 80 76 79 84 87 88 90 91 93 96 96 93 90 89 89 88 85 79 44 34 27 25 31 28 30 28 24 17 23 28 28 30 30 29 29 36 38 36 34
67 71 75 81 76 79 78 80 78 78 81 81 86 87 89 93 94 97 95 90 86 86 85 79 71 62 38 24 29 29 36 26 25 28 27 29 33 31 35 30 33 33 28 27 32 34 38
64 65 71 76 80 78 69 77 79 80 81 82 81 88 91 92 93 96 85 74 53 72 86 62 50 40 20 28 36 28 28 27 27 27 34 42 34 36 35 36 31 30 32 28 27 30 29
72 73 73 73 75 77 79 65 80 79 79 80 79 84 88 89 96 93 85 77 56 69 83 59 57 52 40 38 44 37 24 27 32 31 41 40 44 36 34 37 36 34 33 33 28 27 32
78 74 74 73 72 72 76 79 76 79 78 80 78 79 83 88 96 92 84 71 60 67 86 58 55 54 46 40 45 42 24 28 32 41 43 42 33 37 38 35 36 32 33 32 30 28 31
79 78 76 75 74 71 74 80 77 77 79 79 78 71 86 89 94 85 83 67 69 74 74 48 54 52 51 46 42 34 22 28 36 34 44 40 36 38 40 38 33 36 30 31 31 30 31
75 79 79 77 75 74 72 76 85 75 78 76 82 73 85 93 90 87 70 73 74 76 65 32 62 40 50 36 29 34 24 28 37 39 37 38 41 42 41 38 34 34 31 32 32 34 35
78 76 78 79 78 76 74 74 83 83 77 78 80 78 82 95 98 82 79 78 81 85 77 31 49 54 54 35 27 26 25 32 34 42 39 34 35 35 33 32 33 32 34 38 42 40 46
79 79 78 78 80 78 76 75 78 82 79 78 80 82 85 88 84 84 78 86 94 91 41 35 51 42 40 36 32 30 33 40 37 47 49 37 36 35 35 35 33 32 36 46 50 52 50
81 80 79 80 80 80 78 76 76 80 83 80 80 86 82 78 80 81 87 94 96 62 53 40 39 41 38 32 32 31 34 36 33 32 40 36 37 36 37 34 35 38 36 53 47 51 41
83 82 81 80 80 80 80 77 74 79 83 80 82 95 94 88 83 90 94 96 67 64 48 44 34 41 39 33 33 33 37 33 31 36 34 50 39 33 38 35 30 39 42 37 57 67 62
83 84 83 81 81 81 81 79 77 79 86 81 94 95 85 86 84 97 98 75 72 49 50 54 48 41 44 37 38 35 41 33 31 34 34 41 40 41 37 35 37 36 35 46 51 54 53
81 82 83 84 82 81 82 81 77 81 85 81 94 97 69 80 92 99 91 69 59 50 50 56 65 64 42 43 38 42 38 30 29 32 30 40 37 40 40 40 36 41 41 45 40 47 47
77 79 81 84 85 82 83 83 79 82 84 90 93 94 80 78 98 82 77 64 57 51 52 55 61 65 61 45 46 43 40 31 30 34 34 41 48 53 39 35 33 36 41 42 57 47 58
79 78 77 81 84 86 83 84 80 82 84 96 96 90 88 78 84 82 68 64 56 59 56 60 62 61 58 56 46 44 44 38 42 36 43 46 46 45 36 36 40 40 40 41 49 56 57
81 81 78 78 83 88 86 86 81 80 80 95 98 99 99 94 61 59 72 71 69 54 56 56 60 61 59 57 52 47 46 44 48 38 66 44 49 44 40 35 39 51 44 44 45 61 53
81 82 80 78 83 89 88 88 81 80 80 94 98 90 82 96 81 65 61 61 67 67 53 58 65 57 63 60 56 52 49 54 53 68 50 46 47 48 38 32 38 39 39 47 42 44 51
82 82 83 80 81 89 91 88 82 79 79 93 98 92 84 76 68 73 68 66 66 60 54 59 62 64 59 64 59 57 52 52 54 54 55 50 49 52 48 42 39 42 39 42 43 40 42
85 83 84 82 82 88 92 88 83 81 83 96 96 84 70 77 77 75 72 63 62 60 56 49 54 60 71 60 50 53 53 52 51 53 58 55 62 59 52 48 45 64 49 44 43 41 40
84 87 83 82 85 90 91 87 83 81 86 94 95 84 89 79 87 71 60 64 61 59 64 54 53 54 53 53 55 57 55 58 62 60 55 62 61 65 73 68 72 40 39 36 41 39 36
90 84 84 83 84 91 89 86 83 80 79 95 88 94 93 85 73 71 64 60 62 61 60 53 57 54 53 55 74 67 77 73 70 66 64 55 68 74 80 63 50 37 37 40 41 30 34
79 78 83 83 88 91 87 86 82 80 77 93 91 96 95 85 81 62 66 60 67 69 73 68 59 58 64 78 75 76 80 73 69 63 60 65 66 71 73 71 70 51 36 36 31 44 37
83 85 85 89 92 89 87 84 80 80 79 79 99 93 95 97 89 75 73 68 56 71 79 78 62 69 62 89 95 86 78 65 76 78 83 78 78 74 78 81 62 46 37 38 49 44 44
87 86 86 90 90 89 88 84 81 80 79 73 98 95 91 95 87 85 91 75 66 60 77 78 72 77 93 87 91 88 93 78 76 67 74 71 77 85 78 89 68 46 39 46 46 46 49
84 87 91 90 90 88 84 81 81 78 79 76 97 93 94 97 95 88 88 83 71 50 64 76 68 73 70 86 92 90 98 96 78 74 62 75 65 69 60 63 55 47 44 43 46 46 55

GFSGBSN_sfc_rhum_054.txt.gz
RH
71 74 73 74 74 74 72 76 75 78 83 86 87 87 88 91 95 94 92 92 91 90 89 85 85 88 54 25 13 24 80 76 35 23 14 11 12 14 16 14 16 17 14 20 18 24 26
79 74 76 75 76 72 70 75 79 77 81 86 87 88 90 93 93 94 96 93 92 91 90 86 85 89 46 27 13 31 33 29 18 18 12 12 15 16 17 17 17 16 22 30 28 30 32
70 77 80 76 75 77 75 77 77 76 72 82 86 88 90 91 91 92 96 96 94 93 91 86 85 59 51 28 18 26 24 19 17 14 12 13 15 18 18 18 18 18 27 29 30 31 31
69 71 73 83 79 78 78 78 78 77 79 79 81 86 86 85 88 91 93 95 95 93 90 88 85 57 39 20 18 26 21 21 20 17 14 14 16 18 20 18 18 19 26 20 29 29 27
67 68 70 75 80 84 78 77 76 75 78 80 80 82 86 87 91 92 95 96 94 90 86 85 67 58 31 32 24 15 21 21 22 22 18 14 18 21 20 18 17 20 20 21 25 23 24
67 66 70 72 72 79 85 76 75 77 76 78 80 78 85 87 90 93 96 95 82 83 72 62 54 57 30 15 17 21 17 16 21 23 22 22 21 20 18 17 17 19 19 17 24 21 25
72 71 71 72 72 72 73 83 76 76 77 73 74 75 82 87 88 96 83 52 49 55 65 36 35 31 15 18 27 23 23 22 20 21 23 25 22 22 17 21 20 20 20 17 18 21 22
72 76 74 74 73 72 68 74 85 78 78 75 76 76 78 83 88 95 79 58 53 59 52 36 41 36 31 27 30 24 20 24 25 24 24 28 25 20 22 25 27 24 21 19 20 21 23
73 74 76 76 75 74 71 70 75 84 78 79 75 76 75 72 91 86 61 55 46 48 60 41 38 34 31 31 28 21 20 19 22 23 25 23 22 25 26 25 28 26 23 21 20 19 18
78 76 74 78 79 76 75 74 71 73 86 80 78 78 78 79 83 59 60 50 49 57 54 27 35 33 34 26 32 17 19 17 23 22 21 22 20 26 26 26 23 24 20 22 22 22 22
79 79 78 75 77 78 78 76 74 73 79 84 79 78 78 84 79 66 53 57 59 63 34 21 40 29 33 23 20 24 17 20 22 24 26 25 26 29 29 25 24 23 24 24 23 23 25
80 80 80 79 77 78 79 78 76 74 76 83 81 77 81 76 80 59 53 62 61 56 46 22 38 45 45 33 23 21 22 20 17 22 24 19 23 24 21 23 24 24 26 27 28 25 34
82 82 81 80 79 78 79 79 78 76 76 84 87 79 81 55 62 54 66 67 62 49 22 18 39 40 34 30 25 22 24 28 24 31 30 23 23 21 24 24 26 25 28 37 42 40 40
83 83 82 82 81 79 80 80 79 78 78 82 89 82 80 63 54 70 71 86 52 19 22 26 30 37 35 24 22 24 23 26 21 19 19 27 29 23 23 22 24 26 26 37 45 44 33
83 84 83 83 82 81 80 81 81 79 79 81 83 92 91 84 64 87 92 86 32 26 24 27 27 41 40 27 21 24 24 22 22 21 23 26 22 21 24 24 22 30 32 24 37 50 47
83 83 83 84 84 83 82 82 82 80 79 82 92 94 85 82 71 96 97 61 29 21 29 35 25 32 41 32 33 26 27 21 21 20 16 24 27 26 29 27 28 26 22 35 33 46 42
82 83 83 84 84 84 83 82 82 81 78 82 92 96 59 78 83 98 89 54 31 28 32 40 36 34 33 30 25 29 27 23 20 23 17 20 24 36 33 32 26 31 31 30 27 32 39
83 89 86 83 83 85 84 83 83 82 82 87 93 99 67 64 99 93 78 48 36 29 36 43 44 45 47 34 29 24 26 21 19 20 27 22 26 32 26 26 25 22 26 28 41 40 39
77 79 77 81 79 80 84 84 85 83 85 85 98 96 84 66 92 90 64 47 35 34 37 42 46 44 47 50 38 29 27 22 23 24 24 27 29 35 30 29 28 26 24 24 28 35 33
78 76 77 77 77 80 82 85 88 86 87 83 98 99 99 96 41 59 62 56 45 35 31 39 39 43 47 48 45 40 31 32 32 22 56 35 24 28 33 23 19 30 26 24 29 40 31
81 80 79 79 79 78 80 84 89 87 88 87 98 96 82 97 70 48 52 43 44 44 38 37 44 44 46 51 43 45 38 40 38 54 30 29 30 27 20 17 16 17 18 22 25 26 30
83 82 81 80 81 79 79 82 87 89 89 94 98 70 73 60 62 55 54 54 43 38 36 45 42 43 43 43 39 55 45 41 38 43 34 31 31 31 31 22 21 22 19 18 21 20 24
85 84 83 82 82 81 80 81 84 90 89 94 81 51 52 58 61 63 54 50 45 41 34 28 39 43 50 43 39 39 42 42 37 40 44 41 35 38 37 30 30 54 35 24 22 25 26
85 83 82 84 82 82 80 80 84 89 87 78 71 61 70 61 62 59 46 40 39 38 46 33 32 45 40 42 41 44 48 42 42 42 39 46 44 43 49 69 83 25 24 21 23 22 21
85 84 83 87 82 84 82 80 88 89 86 83 63 62 59 86 50 52 50 44 38 38 43 36 36 32 44 39 45 46 58 63 42 41 48 42 45 56 81 50 31 30 30 30 31 25 19
83 85 89 88 82 85 82 81 91 88 85 88 62 60 65 66 55 42 58 43 46 46 49 42 36 46 46 63 60 56 41 37 47 54 50 48 51 57 61 59 82 30 21 22 24 36 18
90 86 85 87 84 84 83 85 88 86 85 86 86 70 72 64 42 43 67 55 40 40 54 48 53 56 47 69 90 68 52 38 51 59 86 69 67 76 62 71 42 27 24 25 40 36 23
90 89 86 87 84 82 83 89 86 86 86 78 89 73 74 70 55 48 49 56 41 45 60 49 56 58 65 73 71 65 78 56 49 38 58 59 67 83 62 89 77 31 29 31 27 31 27
87 85 84 85 84 84 90 86 87 86 79 76 97 78 72 78 95 82 75 72 78 34 41 53 42 38 48 55 64 54 96 92 52 60 46 62 48 52 47 43 33 34 26 26 29 25 33

GFSGBSN_sfc_rhum_057.txt.gz
RH
76 77 74 74 76 74 72 73 78 80 77 80 84 84 79 81 86 93 93 94 94 92 92 89 86 87 51 25 16 25 74 70 23 18 14 10 11 12 12 10 11 12 10 11 12 13 16
72 74 76 80 76 74 68 75 78 79 78 78 80 85 86 82 87 92 91 94 95 94 93 90 87 90 42 29 10 12 22 29 18 16 12 9 8 10 14 12 12 12 12 14 16 13 16
68 71 74 77 82 80 75 76 78 76 75 77 75 81 85 81 84 89 88 91 93 94 94 90 86 53 38 27 12 12 19 17 14 12 10 9 12 14 13 15 11 13 15 17 21 16 18
65 67 69 74 76 80 85 78 77 76 75 76 75 77 81 84 83 85 89 91 93 94 93 86 85 46 40 14 11 15 15 16 13 11 11 10 12 16 16 13 13 13 14 20 65 39 18
69 67 67 72 75 76 79 84 80 76 74 75 75 76 78 83 85 86 91 91 94 94 84 82 62 47 31 30 18 12 14 17 15 14 14 12 14 16 14 16 14 14 18 24 30 21 19
68 75 74 73 73 75 75 75 82 82 76 75 76 76 77 79 84 88 92 94 82 85 71 47 39 46 29 17 11 9 11 17 18 18 18 19 17 18 15 13 17 14 18 16 28 36 16
65 70 72 77 76 73 74 71 73 81 82 78 76 75 76 78 83 88 84 44 48 58 46 28 23 19 14 12 16 12 11 20 16 19 23 19 19 19 14 14 14 15 15 14 27 31 20
72 72 69 72 75 77 71 71 72 77 84 80 78 75 76 78 81 86 81 40 32 47 37 23 26 24 20 19 22 13 15 20 22 23 18 19 24 15 15 17 17 16 16 15 13 14 17
75 74 74 73 72 73 76 74 74 74 78 84 81 78 76 77 76 76 59 37 34 42 44 21 18 20 20 19 25 15 17 17 20 22 19 22 17 16 19 18 20 19 19 16 16 16 15
78 79 79 77 76 75 75 78 76 76 75 82 86 79 79 81 73 45 45 33 32 48 43 15 27 24 19 18 25 14 14 17 18 21 18 19 14 19 19 20 18 22 15 16 18 18 19
80 81 81 80 80 78 76 78 78 78 76 74 85 83 81 84 61 46 32 37 45 58 28 13 20 19 18 22 11 17 12 16 19 18 18 20 17 21 22 20 17 19 19 18 18 18 20
82 82 81 81 82 81 79 78 79 79 78 76 84 86 82 74 63 58 49 48 57 47 30 16 26 31 32 24 14 12 16 14 13 17 16 16 13 16 16 17 19 16 21 21 21 22 30
82 82 82 82 82 82 81 79 80 80 80 78 83 82 79 50 66 43 69 81 46 34 11 12 26 28 28 28 22 17 20 22 20 26 27 19 19 16 17 20 20 20 23 36 47 36 35
84 83 82 82 83 83 82 81 80 81 81 79 83 86 82 57 45 65 90 92 43 16 15 18 17 27 30 22 23 22 22 22 20 18 20 23 25 18 17 18 20 24 22 37 53 49 34
85 84 83 83 83 84 83 83 81 82 82 80 85 66 91 71 58 75 99 96 40 17 8 12 18 30 29 21 21 21 23 20 19 17 22 22 21 13 14 15 15 20 28 20 32 35 43
84 85 85 84 83 83 84 84 82 82 82 82 72 60 59 76 65 75 100 91 36 15 10 13 17 24 28 24 22 22 23 17 18 15 15 17 24 15 16 16 17 20 20 31 29 52 50
84 84 85 85 84 84 84 85 84 83 82 82 85 93 48 57 85 94 95 60 42 16 11 13 18 18 22 26 20 23 21 17 17 16 15 16 21 24 23 25 22 24 27 25 23 28 50
84 86 88 84 84 84 85 85 85 84 82 90 93 98 54 72 99 89 76 48 45 29 22 17 22 27 16 23 26 23 23 20 19 18 22 19 23 31 27 16 15 20 24 24 37 37 34
88 87 82 82 92 85 85 85 86 85 84 96 98 89 69 69 95 88 53 43 28 33 26 21 28 27 26 29 32 24 22 22 21 22 22 21 24 34 27 23 20 22 22 22 25 27 44
78 78 79 80 81 86 89 86 86 86 87 94 99 99 97 95 57 58 48 41 33 36 34 23 28 25 28 33 31 31 25 27 26 24 45 31 23 28 33 24 20 25 21 19 23 42 34
80 80 80 79 79 80 85 91 86 86 89 95 99 88 81 96 89 58 42 33 30 36 34 31 32 28 30 35 33 38 30 32 32 44 29 27 29 24 19 16 15 16 19 18 20 21 30
80 80 81 81 80 79 81 88 89 88 91 98 100 57 63 55 69 58 50 39 28 28 26 34 41 36 26 29 30 37 36 35 36 32 31 25 33 26 25 18 16 18 14 13 14 15 16
82 82 83 82 83 80 78 77 77 83 93 98 95 43 49 57 70 62 53 40 31 29 26 20 28 35 34 28 35 37 39 41 39 42 34 31 34 33 41 22 21 38 22 16 15 15 16
87 85 87 86 84 83 81 78 78 78 92 95 90 41 70 61 74 51 42 35 30 25 31 23 22 33 32 29 35 34 42 36 45 39 34 41 37 38 53 65 71 26 16 16 19 16 14
84 84 89 88 88 85 83 82 78 81 81 97 64 50 58 85 48 44 40 37 30 30 37 25 24 21 37 38 50 45 47 58 44 45 37 36 46 56 68 50 30 20 22 22 21 19 14
87 85 84 84 86 87 84 84 81 81 82 96 70 47 57 62 48 34 40 36 38 38 38 36 25 26 37 53 53 47 35 26 31 42 35 37 42 62 59 57 64 30 19 16 17 34 16
87 87 87 86 85 85 84 84 80 80 86 93 86 63 56 58 37 40 59 44 34 35 40 38 32 45 46 67 82 58 38 17 32 44 79 72 67 79 68 61 38 20 17 16 40 37 17
89 88 86 85 84 84 83 81 82 82 89 91 83 59 57 59 44 39 39 54 37 34 48 39 43 53 64 78 66 50 59 35 36 30 50 69 67 85 67 73 74 27 23 30 27 24 19
89 88 90 90 84 86 82 81 82 85 86 90 86 61 58 73 71 59 69 68 56 32 30 42 45 44 39 47 53 50 77 80 42 54 24 53 46 56 43 43 30 30 29 23 21 21 23

GFSGBSN_sfc_rhum_060.txt.gz
RH
69 69 72 75 80 77 70 74 77 73 79 77 69 79 78 77 76 85 93 92 92 93 93 93 92 91 58 30 24 35 75 63 22 18 16 13 12 12 14 11 10 11 11 8 9 11 10
68 70 72 76 77 75 78 75 77 78 76 74 75 70 80 80 78 81 89 90 89 90 92 93 91 94 55 45 14 14 18 30 18 17 16 12 10 8 11 12 13 11 11 10 21 22 21
66 69 72 76 78 76 76 84 80 77 77 73 67 75 70 80 82 82 82 86 88 89 91 92 90 64 56 44 16 12 13 20 16 15 15 10 9 10 14 15 12 12 14 14 30 25 27
69 68 68 73 75 77 80 81 83 82 77 76 73 75 67 68 81 84 83 85 89 90 92 93 86 60 49 18 15 15 13 15 13 12 11 9 8 14 16 15 14 14 14 18 35 24 19
68 71 74 75 75 76 78 80 80 81 82 79 75 74 75 75 78 84 84 87 89 89 91 87 68 58 35 24 22 15 12 14 13 12 11 10 12 17 16 18 19 15 17 16 31 28 30
65 69 71 73 80 77 76 78 78 81 82 84 79 75 75 76 78 83 84 87 75 83 71 51 45 42 30 17 13 14 11 12 16 16 15 17 17 20 18 19 22 17 14 15 22 30 28
64 66 71 72 74 74 77 76 77 78 80 80 84 79 76 77 77 81 72 53 50 70 58 41 27 25 15 14 12 11 10 14 16 18 23 19 22 24 19 17 15 15 16 16 23 19 21
73 73 71 71 72 72 68 74 78 78 77 83 85 84 79 77 79 79 64 60 22 41 46 23 31 29 22 17 24 16 8 20 24 24 21 22 28 18 14 14 17 18 14 14 14 18 22
79 79 78 74 73 74 71 71 71 80 79 78 82 84 81 78 80 70 58 52 29 33 50 25 15 13 14 17 23 19 11 17 23 24 22 26 19 16 15 17 19 18 18 16 17 23 17
81 80 80 79 78 77 77 76 76 76 79 80 84 83 83 80 75 48 48 38 36 41 60 17 11 15 11 13 22 16 12 16 19 22 20 20 16 17 18 20 16 23 15 15 15 21 21
81 82 82 82 81 81 81 80 78 78 78 80 82 84 83 84 56 56 50 54 36 57 37 8 11 14 15 17 15 18 14 16 22 20 20 23 18 18 21 18 16 20 17 20 19 19 21
81 82 83 83 82 83 83 82 81 79 80 80 82 85 85 81 66 52 48 62 61 66 37 14 24 25 23 20 18 14 17 14 16 19 18 18 13 14 15 17 15 16 18 21 21 22 35
83 83 83 83 83 84 83 84 83 80 81 81 82 84 79 60 76 43 70 83 63 45 10 11 25 25 25 26 23 19 21 22 24 30 30 19 18 13 14 18 18 20 24 38 60 51 46
84 85 86 84 83 83 84 84 85 83 81 82 83 86 72 51 55 60 86 98 59 23 21 11 12 22 30 25 27 24 20 22 21 19 24 27 32 17 16 20 21 23 24 41 51 81 54
82 83 85 85 85 84 84 85 85 84 82 84 83 72 71 59 59 78 96 98 51 25 13 16 13 19 28 24 23 26 22 22 19 19 26 29 26 14 16 16 17 22 31 22 34 55 68
83 84 84 84 85 85 84 84 85 85 83 84 89 66 69 57 69 88 99 80 44 22 16 14 17 18 26 26 25 26 24 19 19 17 18 23 31 20 14 14 16 18 15 35 32 60 57
84 84 84 84 84 85 85 85 86 86 84 84 93 94 57 58 83 98 96 71 48 22 20 24 22 18 15 20 22 23 24 19 18 17 17 21 27 26 16 19 20 20 24 29 28 33 53
84 84 85 84 85 85 86 86 86 86 85 90 96 99 62 64 99 96 82 60 45 28 20 26 26 21 23 19 29 33 22 21 15 17 23 22 28 34 24 16 16 18 24 26 43 39 42
84 86 87 86 85 84 86 87 87 86 86 96 98 96 74 67 95 93 68 54 44 38 27 21 27 24 24 26 38 28 32 19 22 19 24 24 30 39 29 24 20 22 22 26 27 30 42
86 82 80 85 88 84 81 85 90 88 88 96 99 99 98 93 53 64 66 59 54 37 30 21 27 23 26 38 37 36 31 23 27 21 54 38 30 33 42 40 24 27 22 23 33 58 43
81 81 80 79 80 81 81 82 92 89 89 96 99 98 74 96 88 62 51 42 48 42 32 27 27 26 29 54 52 48 34 36 25 43 28 34 40 32 25 20 19 21 21 20 20 34 56
79 79 79 80 80 80 79 82 84 91 89 98 100 93 58 49 63 66 60 50 43 35 30 30 32 31 30 48 49 54 48 54 48 27 30 30 39 34 38 22 20 25 21 17 17 18 18
79 80 82 81 81 81 80 80 83 89 92 98 98 66 60 60 68 74 66 54 44 38 30 21 25 33 35 37 44 89 78 64 35 34 40 39 40 42 50 29 26 39 25 19 17 17 18
83 83 83 83 82 82 81 81 80 84 93 98 95 58 89 78 66 68 51 48 44 37 38 23 23 32 26 25 63 61 76 58 49 39 38 46 42 43 65 69 61 29 20 17 19 17 14
87 88 87 86 85 86 83 82 80 81 88 97 94 67 73 94 50 54 50 45 43 39 38 30 23 20 22 53 67 87 92 79 49 43 42 41 51 90 75 60 39 27 22 23 24 22 16
87 85 85 85 85 86 87 85 81 81 82 96 96 70 68 77 64 42 46 43 49 46 43 36 26 26 36 55 80 95 86 46 70 42 44 53 54 72 86 74 70 43 25 17 20 38 19
86 86 86 86 85 84 84 88 85 82 81 90 96 86 79 75 55 45 54 52 40 42 45 39 36 54 61 69 80 72 58 29 39 51 71 83 88 89 80 89 57 27 23 21 42 43 25
87 86 85 84 87 87 90 91 88 85 83 87 92 88 94 80 56 62 60 62 47 41 52 39 45 55 91 84 75 63 74 42 32 23 60 77 88 94 82 93 87 31 25 32 35 34 30
88 87 88 90 87 87 89 89 89 86 86 82 93 88 86 88 85 66 64 68 49 57 57 44 45 65 61 73 59 57 88 78 44 59 23 55 51 70 67 59 42 44 37 35 37 37 34

GFSGBSN_sfc_rhum_063.txt.gz
RH
68 70 71 71 72 74 74 79 79 77 68 67 67 66 68 74 76 83 84 84 89 89 88 89 92 94 89 64 43 45 70 64 36 24 24 20 20 19 19 18 17 19 15 13 20 22 25
67 68 72 74 72 72 71 75 82 84 80 76 72 65 67 67 76 82 84 84 83 86 88 88 92 94 89 80 29 33 42 40 26 23 23 22 19 15 16 17 21 16 17 15 21 24 28
77 73 74 75 75 75 74 80 81 81 85 82 77 74 69 65 69 76 81 84 84 85 88 87 89 82 84 69 30 28 23 28 32 25 24 20 17 18 17 24 20 20 22 19 28 25 25
66 68 73 80 77 77 79 80 81 81 80 84 82 79 75 74 73 72 80 83 83 84 87 89 89 86 84 33 33 34 28 27 22 24 20 19 17 16 26 21 21 25 23 29 24 32 27
66 67 68 73 74 80 79 80 81 81 81 80 83 83 79 78 78 76 79 82 81 80 85 88 93 91 75 33 34 25 22 21 18 20 19 12 16 25 26 32 35 30 31 25 31 31 31
64 65 71 72 74 75 76 80 80 82 82 83 83 83 84 79 80 80 81 79 73 79 76 68 66 78 56 32 21 20 21 18 20 22 22 21 25 30 31 37 43 32 29 24 37 35 36
64 69 67 71 73 74 69 74 77 82 83 81 83 82 84 83 81 80 78 67 70 92 83 72 60 44 25 20 19 18 19 18 20 26 33 27 33 34 31 28 25 24 22 24 32 30 37
71 72 72 71 72 71 69 71 73 76 82 80 80 85 86 82 80 81 79 78 61 58 74 52 56 48 36 30 32 25 15 23 26 31 30 32 34 25 22 21 23 23 25 24 25 27 29
78 79 77 77 74 74 73 74 75 76 76 82 82 84 84 84 81 86 76 66 47 50 80 46 36 30 24 25 36 31 21 19 26 34 32 35 28 22 23 23 24 24 25 26 25 27 24
79 81 81 78 78 78 78 78 78 77 78 79 84 84 84 81 87 73 70 58 58 58 98 43 21 26 20 14 28 20 20 16 28 34 32 32 24 25 23 25 22 28 21 22 23 30 39
79 81 82 83 83 83 83 82 82 80 80 80 82 84 85 81 86 80 56 54 54 74 61 16 14 14 14 17 19 22 18 22 24 30 30 31 30 28 28 23 22 25 25 29 30 34 36
80 80 81 83 82 84 85 85 84 84 82 81 83 84 84 88 93 76 59 59 88 86 89 22 25 28 24 17 16 18 20 20 23 26 25 26 20 22 23 18 21 21 26 28 32 37 50
82 83 83 83 84 84 85 86 85 85 84 83 84 82 85 64 86 66 72 89 98 94 13 12 36 29 31 27 19 19 27 27 32 39 40 28 25 20 18 22 24 26 34 57 71 72 66
85 84 83 84 84 86 85 85 86 86 86 84 85 86 84 69 64 66 88 99 99 34 27 15 21 27 38 30 29 26 27 33 27 29 37 40 44 24 20 21 28 30 33 65 64 84 70
84 85 84 83 83 85 86 86 86 87 87 86 85 95 94 81 71 87 98 96 69 37 21 22 16 22 34 31 34 31 32 31 26 26 35 39 35 20 18 20 22 32 38 30 50 68 79
84 85 86 84 84 84 85 87 87 87 88 86 97 96 86 74 81 91 100 90 69 37 28 24 25 26 30 33 37 38 39 28 29 22 23 35 42 24 21 18 23 24 24 48 53 75 82
83 83 83 84 84 85 85 86 88 88 88 86 98 99 74 70 89 98 96 78 53 44 34 32 29 29 30 32 28 37 39 28 24 23 23 25 36 40 24 28 26 33 30 35 42 51 71
82 83 83 83 84 85 85 86 87 88 88 91 97 100 68 66 99 91 87 70 55 38 38 44 36 33 35 38 36 34 49 46 26 22 27 26 38 42 34 23 19 23 27 33 65 57 61
84 84 84 84 84 85 85 86 87 87 89 96 98 98 86 71 97 95 71 68 58 56 47 42 40 33 31 36 44 41 47 38 37 29 28 27 31 51 45 30 26 25 27 29 35 50 61
83 83 84 84 84 85 87 87 86 87 89 96 99 99 98 96 70 69 72 74 70 53 54 45 41 39 41 40 34 46 54 48 58 34 44 33 38 36 47 44 36 37 29 27 36 68 61
84 84 84 84 87 84 80 82 87 88 90 97 99 98 85 96 96 79 64 60 68 68 47 44 51 49 42 44 42 54 56 64 57 50 41 34 34 33 36 28 30 31 32 28 30 38 57
84 86 89 88 83 81 82 89 90 90 94 98 100 98 82 65 72 86 75 68 64 54 47 53 53 41 41 44 37 62 75 69 80 70 75 41 50 37 40 33 31 32 29 33 29 27 43
86 81 80 81 82 82 80 80 83 83 86 98 96 86 71 73 78 93 84 72 64 56 49 42 43 44 47 40 43 76 79 84 85 86 86 72 58 58 54 38 37 53 39 31 30 28 30
82 82 81 81 80 80 80 81 80 82 85 95 96 74 90 93 76 82 66 66 62 56 56 41 38 40 33 65 68 73 74 69 69 77 89 85 57 68 80 64 66 41 27 27 30 25 22
83 82 82 82 82 82 82 81 81 80 82 96 98 78 81 98 66 63 73 61 58 54 55 51 40 34 29 32 73 91 92 90 74 79 87 82 77 90 78 66 50 37 30 33 34 33 23
84 84 85 86 86 88 88 85 82 81 81 92 96 94 86 84 82 48 61 60 65 64 60 54 41 41 45 58 72 77 97 86 96 69 82 88 78 89 96 88 73 54 36 31 29 44 28
88 88 89 89 89 87 87 88 89 82 81 90 96 92 97 98 67 58 62 65 53 54 61 55 52 56 66 72 82 93 86 69 88 94 93 98 95 99 98 99 86 49 32 34 52 52 32
92 91 88 85 85 86 87 86 86 88 82 91 95 91 97 97 70 59 64 72 58 56 66 60 62 63 90 86 76 86 89 69 68 54 76 83 93 99 99 98 96 50 42 42 45 42 36
86 86 87 86 86 86 86 85 86 87 85 88 98 90 92 99 92 73 72 68 72 63 79 59 53 53 89 86 92 86 88 85 64 60 45 86 74 83 72 83 62 60 54 49 49 46 48

GFSGBSN_sfc_rhum_066.txt.gz
RH
69 68 68 69 70 71 72 73 79 85 84 83 78 73 71 66 67 69 78 84 84 83 80 80 85 92 94 78 60 38 69 65 42 26 24 24 26 27 26 21 20 22 20 18 16 22 36
76 77 75 73 72 70 68 72 79 83 82 83 84 81 78 73 72 71 70 79 82 83 84 80 84 90 97 89 29 29 47 43 27 25 25 26 23 22 22 20 26 24 25 23 20 25 31
67 69 71 78 83 79 75 79 82 81 83 82 84 84 83 80 78 76 76 78 80 82 82 78 82 82 80 74 42 32 29 35 35 26 26 24 24 27 23 23 24 24 27 25 22 29 32
65 67 68 74 77 79 80 83 81 81 81 82 83 83 83 83 81 81 80 79 79 81 80 79 82 84 85 44 48 46 45 41 30 30 25 24 26 25 23 22 25 28 34 34 28 32 28
65 66 67 72 75 76 78 81 83 81 81 82 84 85 84 84 84 83 82 82 80 76 78 83 91 92 87 48 48 39 32 28 26 28 29 21 28 25 27 35 39 41 40 35 28 29 31
65 65 70 72 74 74 76 76 78 82 84 84 83 85 85 85 85 85 84 82 71 78 78 70 73 85 61 31 28 25 30 25 26 29 31 28 26 30 37 40 44 40 39 37 31 32 41
66 63 66 70 74 73 70 73 75 77 81 84 82 82 86 87 86 83 84 69 64 81 90 80 72 59 29 28 27 26 24 27 27 31 35 32 34 33 35 34 30 32 34 35 28 31 40
68 64 67 70 73 74 74 74 76 78 78 78 82 82 84 85 86 84 83 80 64 66 74 52 62 61 46 37 47 35 25 28 30 34 36 38 37 26 28 30 32 32 31 31 25 28 37
70 68 69 72 74 75 74 75 79 81 80 81 80 84 81 84 85 84 86 68 50 63 87 55 44 46 51 45 58 44 29 26 30 35 36 40 34 25 28 29 31 30 31 31 28 26 32
69 73 76 74 75 77 79 79 81 81 81 81 83 84 83 83 85 81 77 60 59 69 88 48 41 33 29 27 40 23 21 23 29 30 32 41 28 30 31 30 29 36 26 26 30 38 44
70 75 79 78 79 82 84 85 84 84 82 82 84 84 84 81 86 86 64 56 62 82 22 15 26 22 26 22 22 26 19 29 28 31 35 44 36 34 33 30 27 31 27 28 30 37 42
75 79 79 82 82 82 84 86 86 85 85 84 84 84 84 89 98 88 63 66 88 94 70 32 22 27 28 22 21 24 28 28 24 26 31 34 27 29 29 26 27 24 29 35 38 43 56
77 80 81 83 83 84 84 85 85 86 87 86 86 84 83 73 89 79 65 89 97 95 22 17 36 32 28 26 20 24 28 31 39 39 35 32 31 26 25 29 27 29 37 56 66 65 62
77 79 81 83 85 86 84 84 86 88 88 88 86 88 84 77 81 76 88 99 95 39 25 20 24 22 43 29 25 25 31 36 29 38 40 39 51 30 27 28 31 35 37 64 62 77 62
77 79 81 83 86 86 86 86 87 89 89 86 85 95 96 83 85 90 98 99 74 47 27 21 18 23 25 36 37 27 32 32 31 30 44 48 43 28 25 24 25 36 45 34 55 73 78
75 78 80 82 85 88 88 86 87 88 89 87 98 97 87 78 88 92 99 91 70 45 36 36 40 31 40 33 47 51 45 35 33 30 29 38 50 30 25 25 24 27 31 49 63 70 76
78 80 81 81 83 86 88 87 87 88 89 88 99 100 76 83 92 99 97 75 56 46 44 52 46 48 41 41 38 41 53 41 39 28 29 29 42 43 33 31 31 35 39 42 47 64 77
78 80 82 82 81 83 84 87 88 89 89 96 98 100 83 75 98 89 90 68 60 52 45 47 50 48 49 43 44 46 44 39 37 42 39 31 40 46 36 31 24 24 32 38 57 61 71
81 81 82 83 83 84 88 87 90 91 89 97 99 98 88 73 95 91 70 66 63 59 54 52 50 42 41 51 53 50 46 41 54 56 52 42 45 58 44 36 28 34 31 30 43 56 56
80 82 84 84 85 85 88 90 90 90 90 98 100 100 100 96 75 73 69 69 64 54 61 57 57 50 49 49 47 52 48 45 60 57 75 63 52 41 48 41 37 41 34 28 33 72 56
81 83 84 84 84 84 85 86 88 89 89 98 100 98 91 97 97 83 68 63 69 68 55 57 59 60 66 65 51 50 54 72 60 71 69 69 61 42 33 29 30 35 37 30 35 41 59
83 84 84 85 86 86 86 87 88 90 90 99 100 98 91 83 73 88 80 75 67 62 61 62 63 49 50 64 55 60 51 70 76 70 76 76 84 52 49 36 28 30 30 36 36 36 40
84 84 85 85 85 85 88 87 89 86 90 98 98 90 71 75 83 97 84 74 64 62 58 53 53 57 60 54 49 52 69 82 84 84 88 86 92 92 75 45 36 56 43 38 37 37 42
85 85 85 86 86 86 84 84 83 84 87 94 98 86 98 96 77 83 72 68 68 64 68 50 48 60 48 42 64 84 82 75 82 85 79 84 88 97 97 69 72 43 32 33 36 30 27
86 84 85 86 84 82 82 82 83 83 82 97 98 96 97 91 81 66 68 68 68 62 64 62 55 48 45 48 67 73 83 77 82 80 94 76 90 99 100 73 56 47 36 35 34 38 30
83 83 82 82 83 82 82 82 82 82 82 93 97 95 98 92 89 59 62 66 76 78 74 64 49 47 55 66 75 70 83 86 86 86 82 88 88 90 100 97 74 54 37 35 37 57 33
84 85 85 84 83 83 83 83 82 82 82 90 97 91 98 100 79 68 68 70 60 70 79 69 63 60 62 85 93 90 66 61 81 94 98 98 100 97 99 98 88 64 53 41 54 51 44
91 91 90 90 88 86 85 86 85 85 83 90 91 90 94 100 94 72 60 71 64 62 74 70 71 74 88 87 87 84 92 79 80 72 86 93 95 99 100 99 93 57 51 57 58 53 50
95 93 91 91 91 89 90 88 87 89 85 85 95 91 84 96 98 82 69 61 49 51 64 70 68 63 70 86 92 90 90 92 78 77 55 84 74 90 85 77 60 60 61 69 66 65 62

GFSGBSN_sfc_rhum_069.txt.gz
RH
74 77 76 74 72 71 70 69 77 82 85 82 82 84 80 74 75 76 77 78 79 80 78 78 77 84 86 85 66 43 69 67 48 24 21 23 26 26 29 26 25 25 21 22 20 23 35
66 68 71 71 76 79 76 76 79 83 84 85 84 84 85 82 81 81 80 80 80 80 82 78 76 80 85 90 35 33 49 52 28 29 28 24 21 23 28 26 26 24 26 26 25 23 51
64 66 68 74 75 74 76 77 79 82 82 83 83 85 86 83 82 84 82 82 82 81 80 76 75 75 78 74 47 45 42 41 37 27 27 26 25 28 29 31 27 28 27 27 26 26 30
65 66 67 73 75 78 78 81 78 75 79 83 82 84 87 87 84 84 85 83 82 82 80 77 76 88 83 47 56 54 56 47 38 32 32 29 28 30 29 29 27 30 37 38 29 30 28
67 65 66 70 74 77 79 79 78 77 77 81 84 85 85 87 87 87 86 85 82 79 78 79 87 89 83 51 51 45 42 36 30 34 36 26 30 34 34 36 38 44 38 36 29 29 37
66 65 65 66 72 76 77 78 78 79 79 82 84 85 84 86 87 87 87 83 74 82 77 71 75 81 55 32 30 29 43 32 30 32 39 36 34 35 42 40 44 42 43 57 37 29 43
67 66 66 64 65 70 72 74 78 80 81 80 78 82 84 85 85 86 87 70 61 82 76 76 72 66 44 31 34 33 32 32 30 34 42 37 41 43 34 36 32 35 40 42 32 26 41
69 68 61 62 66 69 72 74 80 82 82 82 81 82 84 84 85 87 86 82 72 67 93 60 55 60 52 46 59 40 30 34 37 40 38 42 41 32 29 33 35 38 40 39 32 27 40
70 70 67 64 65 70 73 74 79 81 83 84 83 82 84 84 85 87 88 72 50 59 95 70 51 44 34 50 59 52 38 32 34 40 42 43 37 29 29 32 33 37 40 39 36 30 40
69 72 68 64 68 72 75 76 79 82 84 84 85 85 84 85 79 83 83 60 55 65 99 46 51 39 33 44 63 34 28 28 33 36 38 42 30 34 35 33 33 37 33 31 33 40 46
69 72 71 70 73 79 81 83 83 83 85 85 86 84 85 82 82 85 70 59 60 77 25 14 33 28 32 32 24 30 24 28 35 34 37 43 41 38 39 34 31 35 34 35 37 41 47
70 67 68 72 78 81 84 84 84 86 86 86 86 86 85 92 98 90 77 70 85 92 61 26 27 37 39 32 24 29 30 29 25 31 36 33 33 35 34 31 32 30 36 39 48 47 59
71 69 69 71 78 80 83 84 85 86 86 86 86 88 87 79 88 82 74 91 97 93 29 18 36 33 33 32 27 28 33 33 37 42 43 34 36 33 31 35 35 37 42 62 67 63 55
68 69 72 71 77 79 83 85 86 86 86 86 86 89 88 83 83 79 90 96 96 51 37 22 23 24 39 28 27 25 35 32 35 37 41 40 50 33 31 32 36 40 40 66 62 73 58
67 70 72 76 78 80 83 85 87 87 86 86 86 96 97 97 83 91 96 99 68 59 38 46 31 25 30 37 41 30 34 37 24 35 44 48 42 32 27 28 29 40 48 34 53 77 81
67 69 72 76 78 81 82 84 87 88 87 86 98 98 88 91 84 95 98 90 64 54 49 50 48 45 48 40 47 51 52 42 34 23 34 44 55 37 30 31 31 33 34 51 65 71 76
69 71 74 77 78 81 82 83 86 88 87 87 99 99 82 83 89 94 95 82 62 52 52 61 60 55 52 50 45 46 55 42 43 42 30 31 48 48 41 41 38 41 37 46 50 67 72
76 77 78 78 79 81 82 83 84 87 90 93 99 100 88 84 100 97 83 69 59 54 55 55 57 57 56 52 49 50 50 39 49 57 53 39 48 48 38 31 31 30 37 42 63 58 76
78 78 78 78 80 81 81 82 82 87 88 99 99 98 92 78 97 95 69 64 63 63 56 59 59 60 48 51 48 53 51 45 60 50 55 57 62 58 49 41 33 36 36 36 49 59 58
78 78 78 78 80 81 82 84 84 88 89 98 100 100 99 98 86 72 72 67 73 57 62 63 65 60 66 61 55 58 54 43 52 67 80 72 67 74 66 49 39 45 33 33 38 62 55
77 78 78 78 81 81 83 84 85 90 91 99 100 98 91 98 96 73 66 64 67 71 55 63 66 63 67 80 65 59 48 40 52 75 71 81 90 76 70 57 41 35 34 33 34 39 50
79 79 79 78 82 82 84 85 85 89 92 99 99 99 91 88 86 81 78 74 67 62 59 66 73 66 60 66 63 63 52 59 66 69 74 81 90 94 86 54 42 40 32 36 38 37 38
81 81 82 83 81 84 84 84 87 88 94 98 96 90 83 93 97 96 82 70 71 63 62 51 61 66 70 60 55 55 52 51 56 82 83 86 91 97 95 76 69 72 48 34 30 39 40
84 82 83 84 85 86 87 87 88 89 92 96 97 88 99 98 83 84 75 70 68 66 67 58 57 68 57 50 58 71 72 77 87 86 78 94 92 95 98 87 97 63 40 33 36 31 36
87 89 88 86 87 88 88 88 89 89 91 97 98 96 92 97 83 70 71 75 68 62 68 60 53 48 51 57 71 75 86 85 74 84 88 82 92 99 98 88 73 50 46 45 44 39 34
84 84 86 86 85 85 89 90 90 89 92 97 96 94 95 96 94 66 68 71 89 77 74 68 55 55 59 71 79 79 85 73 86 82 80 86 84 89 99 97 89 44 48 35 40 56 37
86 85 84 83 83 83 87 88 85 85 88 94 97 94 98 100 81 68 74 76 67 76 83 75 67 72 68 89 94 94 82 63 81 94 91 98 99 98 98 96 87 65 49 52 82 67 50
88 87 88 87 84 84 83 83 83 82 81 91 96 92 97 100 91 78 63 69 64 68 82 73 72 77 93 87 93 87 96 80 73 76 93 93 96 97 98 100 89 65 70 91 71 68 69
95 90 90 92 89 87 85 84 83 82 82 82 98 93 91 98 95 95 86 77 49 50 61 70 63 73 79 88 93 89 93 96 81 90 68 85 80 87 86 79 61 56 73 71 77 73 68

GFSGBSN_sfc_rhum_072.txt.gz
RH
66 68 71 72 74 77 77 75 77 82 84 85 85 81 76 75 77 82 84 85 83 80 78 76 75 77 84 84 55 44 65 70 52 28 24 25 29 29 30 27 25 28 23 24 23 26 29
66 66 68 69 70 71 72 74 75 81 85 85 85 85 84 78 78 81 82 84 85 84 82 77 75 76 94 74 32 42 44 54 35 28 27 24 23 25 28 26 25 24 25 28 28 25 36
60 63 67 71 72 72 72 76 79 77 78 81 84 85 85 78 80 82 84 84 84 85 82 77 74 73 83 61 47 48 47 43 42 30 28 28 26 29 29 34 29 29 32 29 28 29 30
65 68 66 72 75 77 78 79 75 74 77 77 77 83 87 86 87 86 86 86 86 84 82 77 74 82 87 46 58 59 61 50 42 37 38 35 30 32 33 31 30 33 36 37 29 34 34
64 65 65 69 73 74 78 80 80 75 74 79 81 84 86 88 87 86 86 85 83 80 81 80 84 88 84 47 51 46 48 39 37 37 38 26 32 37 35 36 39 42 37 38 30 29 42
60 65 64 61 66 68 69 77 79 80 82 83 82 82 81 85 86 86 87 83 78 81 76 70 72 70 44 21 32 36 51 42 34 38 40 46 44 46 48 43 46 41 47 55 42 36 39
64 64 64 65 64 63 66 69 77 81 83 83 82 83 83 84 82 87 84 76 70 76 78 78 76 56 42 40 39 41 36 38 37 41 47 46 52 52 46 41 33 35 40 44 40 32 37
65 61 61 63 66 63 64 70 77 81 83 84 84 84 84 84 87 87 88 87 75 69 93 64 69 66 54 51 60 30 36 39 40 42 44 44 50 37 37 37 36 38 40 42 36 30 34
70 69 66 64 62 64 64 70 77 82 83 85 85 85 84 85 88 83 92 79 61 60 93 69 60 56 39 41 52 44 38 37 39 45 45 44 41 32 32 39 38 41 38 44 38 37 38
69 71 70 68 66 64 67 73 75 79 83 85 86 87 86 85 78 87 89 66 56 65 96 56 66 49 31 47 61 33 28 26 37 40 41 43 30 38 37 35 33 39 36 35 37 44 51
70 70 70 69 65 70 76 77 78 80 84 86 87 88 86 83 81 86 75 64 57 83 28 17 43 29 38 29 27 35 26 35 34 37 39 46 43 38 45 37 32 33 36 38 39 48 53
72 69 69 68 69 73 73 78 84 85 86 87 87 87 86 95 97 85 88 68 87 88 61 26 34 41 46 39 34 36 42 33 31 34 43 37 38 37 32 30 33 35 44 45 53 55 68
72 70 72 68 70 70 70 75 82 85 86 87 87 87 87 81 87 82 80 89 97 93 37 25 34 42 42 41 36 34 39 43 34 37 44 39 37 35 33 41 41 40 47 66 70 72 68
72 72 72 69 69 69 70 76 81 85 87 87 87 88 87 88 83 83 88 96 94 56 55 35 34 31 39 32 32 30 37 43 35 40 33 41 47 35 34 35 40 46 49 71 64 75 58
70 69 70 68 71 68 71 78 81 84 86 88 87 95 97 95 86 89 94 99 73 63 50 54 39 37 42 37 46 34 39 35 28 35 38 49 44 28 32 32 29 44 54 41 54 78 80
67 67 71 74 72 73 77 79 80 84 86 88 97 98 91 89 80 93 96 80 69 57 58 59 58 50 54 46 48 49 49 45 40 32 40 45 53 39 33 32 38 38 39 55 69 68 72
68 69 70 72 74 76 77 79 81 83 85 87 99 99 91 82 90 99 94 81 60 49 54 65 67 64 59 55 46 46 49 50 58 57 36 41 50 49 39 43 42 44 45 50 53 67 66
71 72 73 73 72 77 78 79 81 82 85 92 98 99 95 82 100 98 90 71 61 57 56 58 62 62 63 58 51 52 51 55 54 58 60 54 53 54 37 34 33 40 42 43 58 58 79
73 72 74 73 76 78 78 79 81 82 85 97 99 99 97 79 98 94 70 66 66 65 61 63 63 67 60 55 51 52 53 50 44 59 73 69 76 74 57 43 38 42 39 41 54 60 51
73 76 75 73 76 78 78 79 82 82 83 97 100 100 100 99 87 74 78 79 70 62 69 67 69 64 66 66 56 59 56 48 48 42 81 68 71 73 85 76 70 66 46 36 40 62 59
75 76 75 75 77 78 78 80 80 82 83 97 100 99 96 98 98 80 69 69 72 78 62 62 69 70 71 77 76 64 52 49 48 60 64 66 84 86 80 71 66 67 61 48 42 40 49
78 77 77 77 78 78 79 80 80 82 84 99 100 100 97 96 76 88 80 76 69 63 68 69 70 69 67 71 67 68 58 57 55 60 78 83 80 93 89 73 65 68 61 48 44 42 40
84 82 81 81 80 80 80 79 80 83 85 98 98 94 94 96 92 97 84 72 70 60 59 55 63 67 70 64 61 61 55 58 62 64 66 82 91 96 88 80 69 74 66 55 48 41 42
86 86 86 84 84 82 80 79 84 82 86 96 97 91 99 98 95 91 72 68 65 62 68 61 55 64 59 56 60 70 71 66 69 67 69 82 90 96 96 88 94 53 57 41 56 48 39
86 85 83 86 86 87 89 88 82 84 84 98 95 93 92 98 92 82 77 74 64 61 65 61 56 49 53 62 80 78 84 90 84 81 73 79 92 99 98 94 70 53 36 49 52 50 38
85 85 84 86 84 86 86 86 87 87 87 96 96 98 96 97 96 71 80 87 89 78 73 67 56 54 60 80 99 96 89 75 80 92 78 83 84 92 99 100 93 53 42 45 48 52 49
90 87 86 84 83 84 88 88 89 90 90 95 97 92 98 99 84 73 84 94 76 74 80 72 67 77 68 99 97 97 91 64 79 88 91 98 99 95 99 97 84 66 65 59 83 61 81
86 92 87 86 86 84 86 84 86 90 91 95 96 93 97 100 95 80 70 82 71 67 82 76 82 87 94 95 91 89 95 78 70 79 90 92 96 97 95 98 94 60 75 79 78 74 74
87 89 92 87 87 86 84 85 82 91 91 93 99 95 94 98 99 91 85 80 56 54 58 66 69 78 83 92 94 89 95 96 83 92 82 87 80 90 86 83 66 66 63 64 73 53 63

GFSGBSN_sfc_rhum_075.txt.gz
RH
64 65 65 67 69 71 71 72 77 79 82 84 82 81 78 75 73 77 83 84 83 81 80 79 77 76 78 51 29 36 61 67 54 28 21 22 24 26 26 22 20 23 18 18 17 18 22
62 60 66 67 70 69 68 70 74 79 81 82 83 85 81 80 75 76 82 82 85 85 83 80 77 75 82 36 20 39 40 41 29 23 22 20 19 22 23 22 21 20 19 18 21 20 22
67 66 68 71 72 71 71 73 74 75 78 78 81 83 84 79 82 81 83 84 83 82 80 78 76 72 77 32 28 39 42 33 35 26 24 22 19 21 23 23 21 22 24 22 20 18 20
64 66 67 69 73 73 72 74 76 74 75 75 74 80 85 84 86 87 87 86 84 80 78 75 76 76 75 46 46 51 45 42 38 34 32 28 23 25 24 24 24 25 27 26 19 25 34
68 65 68 68 69 70 72 73 76 76 76 80 81 84 85 85 84 84 85 87 80 78 78 79 83 84 58 43 48 38 42 33 36 33 31 25 28 31 27 28 28 32 23 28 21 21 35
68 67 66 69 69 68 68 70 74 78 82 84 84 84 84 86 86 87 89 77 74 76 72 69 71 74 36 17 27 37 46 38 30 37 37 36 37 39 36 30 32 28 32 30 25 25 28
62 62 60 64 67 67 65 66 70 78 82 80 81 83 85 86 85 88 81 73 65 64 67 71 66 42 36 44 38 37 40 38 32 33 41 46 41 48 40 34 25 26 29 25 26 26 26
70 70 69 60 64 65 65 66 69 78 80 80 82 84 85 86 86 88 80 76 71 72 89 62 66 60 50 51 57 37 32 37 38 32 39 42 49 39 36 35 32 30 31 29 26 26 28
69 68 67 65 60 62 65 64 69 78 80 83 85 84 86 87 87 80 83 76 57 59 96 64 57 60 46 41 48 37 34 37 35 39 39 39 37 35 36 38 37 35 34 31 26 28 26
67 70 68 64 66 64 62 63 71 75 78 83 86 88 88 88 72 79 86 70 58 67 90 50 64 58 39 40 52 27 21 24 39 38 40 36 29 37 34 34 35 41 31 30 30 30 25
68 71 71 70 62 69 69 67 73 74 78 83 87 88 88 84 78 76 63 70 60 85 40 22 45 27 34 26 24 37 25 26 21 38 40 40 40 38 40 34 30 30 32 31 29 31 34
67 68 72 69 70 71 68 72 70 72 77 81 86 87 87 89 93 78 80 80 82 90 66 31 36 43 41 37 34 38 36 30 24 32 40 34 32 31 28 31 28 29 33 36 42 41 52
66 68 70 69 72 70 65 68 71 72 79 82 87 87 87 79 80 76 78 82 88 86 39 35 35 44 46 44 38 38 46 41 34 33 44 38 33 32 31 34 34 31 38 46 58 59 49
68 67 71 72 72 69 60 68 73 77 81 84 87 90 87 80 75 75 83 89 87 51 54 39 40 42 44 33 33 34 42 41 34 34 24 35 45 32 32 35 39 41 39 50 46 58 44
66 66 68 74 71 67 67 70 70 77 80 85 87 97 96 92 80 86 91 98 60 55 51 59 48 46 42 37 42 35 38 39 30 30 30 37 32 27 32 31 31 44 48 36 47 58 59
64 64 67 71 72 71 71 70 70 72 76 83 97 97 92 89 82 94 98 75 66 55 56 58 65 54 55 46 42 45 47 54 56 34 35 39 43 33 29 29 30 34 34 48 51 53 51
66 66 67 68 71 73 72 70 70 72 75 84 98 97 89 84 92 100 96 78 53 38 44 62 64 61 56 53 45 47 53 49 54 57 37 36 42 41 38 35 35 38 40 43 40 50 46
68 68 68 68 67 73 72 69 70 73 78 87 96 100 96 88 100 100 94 73 58 46 48 55 57 60 57 52 45 42 52 48 36 45 61 58 50 49 35 32 30 33 38 40 53 50 63
65 67 66 67 67 70 74 71 71 76 76 97 98 99 98 87 97 97 97 79 58 54 58 57 58 61 56 54 50 48 48 44 44 37 36 53 65 58 47 39 41 44 37 36 47 50 50
69 70 69 66 68 70 74 72 73 75 74 95 100 100 99 99 88 79 94 78 71 57 55 60 63 60 61 60 51 54 51 43 48 40 60 63 68 88 68 73 67 73 60 55 48 58 47
74 74 74 76 75 73 73 72 75 76 79 95 100 99 96 99 98 87 72 68 70 68 58 58 62 62 63 66 64 56 46 45 43 51 61 56 63 60 66 47 50 57 61 56 58 52 53
79 79 79 77 77 77 77 76 76 78 79 98 100 100 98 99 80 98 91 92 72 65 65 63 70 65 64 64 55 49 52 50 49 50 53 56 76 77 78 54 45 60 56 42 51 49 43
84 85 84 82 81 79 77 77 78 78 82 98 96 95 99 98 84 99 94 77 73 61 58 50 54 58 63 65 59 58 55 56 54 58 60 62 85 88 77 69 68 66 48 48 40 41 43
87 86 86 86 85 84 82 80 79 79 82 93 98 93 98 97 96 94 82 70 66 63 63 54 54 64 59 55 60 60 68 66 65 63 60 64 68 94 90 87 83 40 41 45 47 43 37
83 83 85 86 86 86 86 86 82 81 81 95 94 95 96 96 94 90 74 78 63 62 62 57 57 50 55 57 96 82 72 80 74 68 67 63 69 99 94 85 58 38 30 37 48 39 60
88 88 88 86 86 86 85 90 86 84 83 93 96 93 96 100 93 71 77 71 78 84 82 65 62 60 72 99 94 85 82 66 67 70 70 74 75 98 98 90 83 45 40 51 40 58 60
91 90 90 90 88 85 84 88 90 87 82 91 97 92 97 99 82 74 81 88 66 74 87 77 81 95 80 99 92 84 74 58 62 78 80 87 99 96 89 92 71 56 48 56 61 53 54
84 85 86 86 89 87 84 84 89 86 89 94 96 92 96 100 95 71 70 85 78 80 88 81 93 94 99 96 90 85 87 69 61 60 78 76 78 84 85 89 83 50 58 58 50 59 57
90 87 86 84 88 89 86 82 87 91 87 89 98 94 91 97 98 92 80 73 57 61 71 81 72 79 79 84 84 77 85 86 68 68 73 78 75 76 72 66 55 56 53 45 55 57 53

GFSGBSN_sfc_rhum_078.txt.gz
RH
64 62 62 67 68 68 66 67 72 78 78 79 78 77 76 75 77 78 81 84 82 78 77 76 76 78 53 24 9 15 60 61 34 24 16 16 16 14 15 13 13 17 11 11 12 12 12
62 63 64 67 68 70 66 70 72 77 79 80 82 82 79 76 74 78 84 86 85 83 79 75 73 78 48 34 7 18 26 28 22 21 17 16 16 14 15 14 14 13 13 11 10 11 12
65 60 64 68 69 68 70 71 73 76 78 77 79 80 81 78 76 76 80 83 83 83 82 75 71 56 57 28 10 20 25 17 25 18 20 18 16 15 13 15 14 13 16 12 11 11 11
68 69 64 68 72 72 70 70 69 71 76 77 77 82 84 85 85 84 84 84 84 81 78 77 73 56 52 22 22 27 22 15 12 21 21 17 17 19 18 15 17 17 17 17 13 11 12
68 70 69 66 71 71 71 71 70 69 72 76 80 85 86 87 88 88 87 86 83 75 78 75 68 60 32 31 36 22 20 17 11 16 25 20 21 19 18 19 19 19 17 18 14 12 16
61 64 67 69 66 69 67 67 71 72 75 78 79 83 86 87 88 89 88 83 65 73 58 51 49 61 31 19 17 28 31 28 22 18 22 28 24 26 23 19 24 20 19 17 16 12 14
69 65 64 64 64 63 63 65 68 75 75 78 79 80 84 86 87 88 68 35 31 42 41 43 41 42 32 37 34 31 36 36 25 18 20 27 28 31 24 22 18 16 18 17 13 13 18
66 68 69 68 68 62 65 66 69 73 74 78 79 81 85 86 87 86 54 47 63 61 72 45 41 37 34 38 45 32 28 37 32 24 20 32 34 21 21 22 24 21 20 18 14 16 18
68 68 66 64 61 64 61 63 69 71 76 78 79 82 84 87 87 62 58 50 50 50 66 50 37 40 39 31 38 30 32 25 31 31 22 30 22 22 26 30 28 24 23 21 19 16 16
66 70 67 65 65 65 60 61 65 65 74 77 82 85 88 87 81 48 52 54 48 56 82 36 42 40 39 29 36 25 20 24 26 28 26 24 18 25 31 29 24 25 18 21 22 22 22
68 70 70 71 70 70 69 69 63 69 71 74 83 83 88 83 67 55 49 48 53 66 34 19 31 25 26 29 19 30 20 18 21 24 35 29 25 22 29 29 22 24 18 22 21 22 23
68 68 68 68 72 72 70 70 68 71 69 72 79 81 87 71 73 56 50 52 54 72 33 22 30 36 35 31 24 34 25 16 17 18 30 32 22 23 22 25 24 21 25 25 26 26 36
66 66 66 66 71 72 72 71 70 69 70 72 79 82 82 64 74 53 54 45 61 44 24 27 35 30 32 33 35 36 39 40 29 38 34 29 31 25 25 24 24 23 28 36 45 44 38
66 67 70 72 67 72 74 72 66 70 71 73 81 87 76 63 57 66 54 53 60 30 36 30 36 34 35 32 33 31 48 34 32 25 26 29 38 31 27 26 30 30 29 35 40 40 32
62 68 65 67 68 67 78 72 70 73 74 78 81 65 78 64 68 83 72 81 36 35 36 49 37 36 35 31 35 31 37 39 26 24 27 22 23 20 21 25 25 38 40 27 32 36 42
64 64 72 66 69 70 72 74 73 71 71 74 80 81 60 61 75 94 99 63 42 42 45 46 51 43 45 36 35 34 40 41 44 38 20 32 28 19 22 21 22 26 22 41 38 53 48
63 61 61 66 68 72 72 72 74 70 69 72 86 86 56 66 86 99 94 62 43 29 35 50 55 52 45 43 33 40 44 33 29 36 32 26 39 39 29 31 28 30 32 30 27 33 41
65 65 66 68 73 67 68 66 77 70 72 77 90 96 72 80 100 99 94 56 49 35 31 41 48 49 48 44 39 33 47 36 28 30 38 37 36 36 33 26 22 26 30 29 38 37 36
69 68 68 65 64 67 68 68 75 75 73 71 86 77 85 92 93 90 98 61 44 40 38 39 46 48 44 46 44 37 36 30 33 29 37 40 40 37 30 24 25 27 27 27 30 32 38
70 69 69 66 63 64 66 69 72 78 73 88 99 100 89 97 84 63 73 70 58 44 40 38 43 50 46 46 39 44 42 31 32 29 68 50 66 64 41 47 47 54 48 42 44 49 39
76 77 76 74 72 69 68 70 72 78 77 90 100 96 69 99 89 95 63 50 54 52 44 41 46 47 48 51 45 47 38 35 30 44 41 47 47 57 51 47 40 43 43 40 42 44 55
78 82 81 79 78 76 74 74 75 79 78 94 100 99 94 79 86 86 96 76 52 44 47 49 52 42 46 53 46 46 38 38 40 34 42 44 40 38 39 34 29 33 30 31 32 30 33
79 85 88 86 84 82 80 78 77 78 79 93 82 83 93 74 62 82 98 59 56 48 46 40 44 51 52 44 39 41 42 46 47 48 48 51 61 54 49 40 36 51 38 30 26 30 33
85 85 85 86 87 86 84 82 80 78 78 64 74 87 96 83 81 60 51 69 73 59 52 47 46 55 51 38 50 51 50 46 47 49 47 50 56 69 62 77 71 31 25 27 32 26 26
86 86 85 83 84 88 87 85 84 80 78 86 74 87 89 88 53 48 52 59 54 54 58 56 50 49 53 68 80 66 60 61 53 50 50 47 52 74 74 53 35 28 24 29 34 28 40
85 86 87 87 85 86 89 89 86 86 80 89 76 79 91 92 66 41 54 73 79 62 67 63 63 63 72 96 94 73 68 47 52 51 45 47 50 64 79 63 65 39 34 36 30 35 33
89 89 91 89 89 88 88 91 88 88 86 89 85 80 89 100 64 49 54 58 67 59 71 72 94 96 92 98 92 69 57 42 51 58 85 75 74 84 72 75 52 34 27 38 47 47 34
90 91 87 82 83 85 89 91 89 88 90 92 92 84 87 98 77 56 55 66 56 66 73 88 95 97 99 96 74 65 66 48 45 43 63 63 72 83 70 79 76 39 37 45 42 38 39
87 86 86 87 85 84 86 91 89 83 90 90 98 90 84 95 94 65 58 54 51 57 73 83 66 74 61 69 63 57 67 68 46 53 37 59 44 53 46 45 41 49 42 44 54 57 55

GFSGBSN_sfc_rhum_081.txt.gz
RH
63 63 64 63 65 64 68 67 70 73 75 76 77 76 76 74 73 74 80 84 84 79 76 76 75 74 53 23 17 8 48 56 29 24 17 15 16 15 16 11 10 11 10 8 8 8 8
60 64 62 67 68 67 64 67 69 73 76 79 79 78 76 75 74 76 79 82 82 82 79 73 72 75 48 43 12 6 11 13 16 21 17 14 14 12 12 12 12 11 10 10 9 9 8
68 70 70 68 64 66 65 68 70 68 71 77 78 82 82 79 79 80 81 84 84 83 81 74 71 53 43 34 13 10 11 10 10 18 18 13 12 14 14 16 11 11 13 11 11 9 9
66 65 70 72 70 71 70 69 68 67 69 71 75 81 86 87 87 88 88 87 86 83 81 76 77 47 42 18 16 16 14 12 8 8 12 16 15 18 16 13 13 14 15 17 12 10 9
69 62 66 72 72 70 71 70 68 66 67 71 75 81 86 88 88 88 88 88 85 81 76 74 60 46 30 27 22 16 17 16 12 8 9 13 17 21 18 21 20 18 19 17 14 10 9
67 69 65 64 69 70 68 66 71 70 70 70 74 79 84 86 88 88 88 87 65 68 60 38 35 51 30 15 13 15 19 18 16 13 13 19 17 23 21 19 28 22 18 16 16 11 11
67 69 68 72 72 71 64 64 69 73 71 69 76 78 81 86 86 87 71 33 30 42 38 30 24 31 19 21 20 20 28 29 22 21 19 16 21 18 17 18 17 17 16 15 12 10 13
61 67 68 65 67 68 67 64 69 72 69 70 78 78 81 85 86 87 62 36 47 46 51 29 27 25 19 17 26 24 24 29 42 38 19 17 27 16 14 15 19 19 19 18 15 12 15
65 70 68 68 66 65 60 64 67 70 67 72 77 80 82 86 87 72 44 40 38 42 49 29 26 26 24 23 24 23 27 31 40 43 29 24 21 20 18 18 21 22 24 21 19 14 14
66 68 71 69 66 65 67 66 60 63 67 72 75 79 85 87 77 40 44 39 37 46 61 29 26 26 28 26 28 17 18 36 51 50 33 28 22 23 25 22 20 30 20 19 18 19 23
68 72 70 69 70 72 72 72 64 63 62 71 75 77 84 84 61 48 42 37 40 54 41 14 25 20 22 26 17 23 17 35 45 45 30 44 28 26 25 24 21 27 19 18 17 21 24
70 64 67 68 68 72 70 71 73 67 66 70 70 75 81 55 65 53 42 44 47 79 40 17 23 25 28 24 24 23 23 24 34 47 39 30 28 26 25 19 20 21 20 21 20 22 31
66 67 67 68 71 71 68 72 73 72 69 67 72 75 74 52 70 44 48 48 52 38 16 20 25 23 22 25 28 22 29 32 36 44 54 47 30 28 26 25 21 23 24 34 39 38 39
63 63 66 68 68 75 71 69 75 73 71 68 76 80 60 44 50 54 60 49 52 22 22 21 25 23 25 26 29 29 33 26 25 32 38 62 56 24 27 28 27 26 26 33 45 47 35
66 64 70 64 68 68 70 70 76 70 73 70 75 48 52 52 65 66 73 72 26 23 20 30 26 24 25 26 29 27 32 33 26 27 39 53 39 24 25 26 30 36 33 22 42 36 40
64 65 66 66 68 76 69 69 67 71 71 70 47 67 52 47 70 80 94 61 28 24 31 29 29 30 34 32 32 31 31 35 36 28 26 32 46 22 22 24 30 32 28 42 39 54 52
65 64 64 64 65 66 71 69 73 70 70 72 58 87 38 44 81 95 95 47 32 21 29 33 32 37 34 36 31 37 49 34 27 33 33 27 35 53 19 25 30 32 34 44 40 37 48
70 69 67 66 69 66 70 71 71 70 76 70 57 91 55 73 96 100 75 44 40 27 24 30 38 40 39 37 36 33 73 35 30 30 40 28 39 40 31 18 18 23 28 32 51 49 39
69 67 67 69 69 69 67 70 68 70 77 54 74 59 58 79 90 80 62 45 37 34 28 28 32 34 33 39 41 32 38 35 29 31 39 35 34 41 63 34 24 25 23 24 28 31 50
72 72 71 67 66 67 67 69 67 70 73 76 89 98 60 91 91 73 57 53 48 39 33 25 28 30 37 41 34 38 33 30 30 28 61 48 47 44 45 37 34 31 27 23 28 44 38
75 77 78 76 73 71 67 68 70 72 76 76 96 86 56 86 76 71 62 68 41 45 35 30 32 35 37 44 38 37 31 31 28 40 30 39 52 48 44 42 35 38 36 33 34 34 44
84 80 79 80 80 77 74 72 73 75 78 84 99 77 52 54 50 51 65 69 56 30 34 38 40 32 34 42 42 47 33 34 38 30 34 33 40 39 43 33 32 32 28 29 29 30 29
78 79 84 85 87 84 80 77 76 76 80 98 57 63 71 61 48 68 69 45 62 40 32 28 35 39 48 37 35 39 38 40 38 43 44 44 44 36 50 35 39 51 33 28 25 23 25
81 80 82 83 83 81 87 83 78 77 77 84 49 53 85 74 54 40 36 56 55 60 74 35 33 47 38 38 36 40 43 42 44 42 40 48 44 44 57 51 64 30 20 21 25 22 23
86 85 82 84 85 85 89 90 83 79 78 76 63 70 65 80 36 37 40 55 83 68 58 50 40 39 50 57 64 59 57 61 56 43 40 40 48 56 63 47 31 22 20 21 24 23 27
86 84 83 85 85 86 84 88 90 85 78 75 64 67 88 80 54 29 34 37 47 56 59 56 45 51 63 73 87 70 60 45 51 44 35 40 46 57 60 62 56 27 22 21 23 34 29
86 86 87 88 88 90 89 90 91 88 84 85 65 70 86 95 46 37 36 37 32 49 77 57 68 88 85 99 92 68 59 36 51 60 62 64 67 74 65 62 39 36 26 28 46 46 36
91 90 89 90 90 90 90 90 91 91 89 91 85 64 74 89 52 41 40 55 35 69 98 73 90 97 100 99 73 59 62 46 37 35 53 63 79 81 68 82 72 24 26 42 50 40 38
90 87 89 87 87 86 84 87 89 92 91 91 98 76 68 83 62 47 44 42 43 51 77 83 54 81 58 66 58 54 71 59 44 52 39 74 43 51 43 41 36 41 52 44 45 46 45

GFSGBSN_sfc_rhum_084.txt.gz
RH
66 62 62 65 67 67 67 64 68 71 73 76 77 76 74 74 74 75 80 83 82 78 76 75 73 71 56 32 31 13 60 58 25 24 23 17 18 17 18 14 12 12 11 9 9 9 8
69 69 69 69 64 63 61 64 67 69 71 74 78 80 79 77 77 79 83 85 86 86 82 78 75 72 56 45 16 15 11 8 10 16 20 18 16 15 16 15 14 11 10 10 9 9 9
66 67 68 70 74 66 66 66 67 68 68 70 74 79 80 78 79 81 84 86 87 87 82 78 75 59 56 34 13 12 13 11 9 9 17 17 15 16 15 17 12 11 13 12 11 10 11
70 71 67 69 75 73 70 70 69 67 65 67 70 76 83 85 86 86 86 87 87 85 81 79 76 60 52 17 13 15 16 18 13 9 10 15 16 21 18 16 15 16 16 18 14 11 10
63 63 70 70 71 74 73 72 71 68 68 69 71 76 83 86 87 88 87 87 86 83 80 78 71 58 35 23 21 17 14 17 16 14 12 6 10 23 22 26 26 20 22 20 16 11 11
61 62 68 70 73 72 72 71 71 72 70 71 70 74 81 84 87 86 86 86 71 71 55 42 43 47 36 20 12 12 13 15 20 19 15 12 16 23 27 28 35 27 23 20 19 13 12
68 63 61 67 68 66 73 72 70 74 71 71 70 74 78 83 85 85 76 52 32 48 48 40 30 32 20 14 15 18 17 25 20 20 25 17 30 33 26 28 24 22 22 21 16 12 14
66 67 64 67 68 67 66 67 72 73 70 69 69 75 78 80 84 86 71 54 41 43 57 32 24 22 18 15 19 16 14 31 31 32 25 30 31 22 19 16 21 24 26 24 19 14 15
70 69 63 63 72 67 65 64 68 72 68 69 70 74 77 83 85 72 59 46 34 43 58 32 21 21 20 20 25 19 14 25 32 40 45 55 40 27 27 24 21 21 28 25 23 17 15
72 68 67 72 73 71 71 72 72 72 67 69 71 73 80 85 76 55 46 35 33 53 67 32 28 22 23 22 26 17 14 23 33 40 52 78 47 42 49 45 36 33 21 21 22 25 29
63 65 74 68 68 70 72 71 70 70 66 66 71 70 76 77 65 54 48 40 38 52 53 22 20 18 20 25 20 19 15 19 35 47 57 63 56 51 56 42 42 43 26 31 32 31 28
68 67 70 70 67 69 71 73 75 72 68 67 70 69 75 54 59 50 47 49 54 86 54 17 21 25 25 24 23 18 19 19 28 36 41 52 41 53 55 40 32 43 43 40 36 32 41
68 67 66 65 69 69 74 72 73 72 69 70 70 70 67 47 70 63 55 64 82 56 14 16 21 19 19 18 18 21 28 29 40 57 56 45 45 38 32 54 35 30 44 77 73 54 50
65 66 65 65 66 68 73 68 70 75 71 70 74 76 61 42 45 60 62 72 62 22 20 17 20 20 21 19 23 25 24 30 29 34 35 69 66 44 38 37 46 38 34 70 71 64 46
61 64 67 67 70 68 64 74 68 72 77 70 72 57 53 52 58 76 83 84 37 27 16 22 22 20 16 21 25 26 31 31 24 28 37 57 60 28 35 32 43 52 47 31 51 54 77
66 65 64 64 66 68 67 72 75 72 73 76 62 53 47 49 65 86 95 66 38 20 21 25 26 19 24 24 28 27 32 36 34 25 24 33 59 33 30 29 33 42 37 64 67 77 91
65 66 68 68 67 66 65 65 70 74 68 69 73 77 42 51 80 97 96 53 35 24 21 31 26 26 26 28 28 26 64 48 30 31 30 29 41 41 42 46 54 45 64 74 66 58 97
71 71 67 69 69 69 71 66 72 74 74 73 71 95 60 71 98 96 88 49 47 28 21 23 28 30 34 31 33 32 62 40 30 31 42 37 46 47 40 39 25 36 44 55 92 87 61
71 72 72 72 69 68 71 71 69 72 75 82 81 59 53 82 88 89 61 48 38 35 28 26 28 26 26 32 36 33 32 36 34 33 39 37 43 52 46 37 27 32 41 44 55 64 94
72 74 76 75 72 68 68 70 73 71 74 92 98 92 54 90 75 62 68 54 46 31 30 27 25 23 27 31 29 35 34 31 30 30 54 47 48 53 82 81 79 46 33 39 47 67 76
75 78 80 78 77 74 71 68 69 72 73 90 99 83 53 86 76 78 61 74 50 40 34 28 31 28 28 36 32 34 29 26 25 41 32 38 58 47 39 64 64 62 67 70 40 48 58
76 78 81 88 80 75 76 75 73 74 74 96 100 74 44 62 55 54 59 61 60 47 38 39 35 27 26 31 30 35 35 40 53 36 35 36 50 43 43 36 33 38 48 36 57 54 38
75 80 82 81 86 81 80 80 76 75 78 95 88 64 54 71 48 56 67 43 42 41 40 36 37 28 31 32 53 48 43 45 47 43 43 44 48 46 52 35 41 57 42 30 26 25 26
77 79 80 81 80 80 84 87 82 77 77 63 79 62 84 74 52 53 35 42 43 39 43 39 66 68 43 42 42 41 40 37 39 40 39 48 48 49 63 51 78 38 26 24 30 24 22
82 82 80 82 83 84 84 85 89 82 78 64 56 81 61 82 46 38 37 38 38 54 57 57 65 55 44 48 62 61 59 57 52 44 43 42 50 67 68 57 38 27 21 22 24 24 30
83 85 85 86 85 84 84 86 88 90 80 74 63 70 87 82 64 37 36 34 44 60 81 62 46 48 53 66 76 74 64 52 53 48 41 42 49 64 68 65 63 28 19 22 20 36 37
89 90 90 88 86 86 87 86 86 90 89 76 67 71 89 98 55 47 49 44 39 47 63 73 68 69 69 99 95 70 62 39 58 60 62 63 67 78 75 72 45 24 28 27 44 61 43
91 91 91 91 91 89 89 88 91 89 89 92 78 68 79 92 63 48 41 51 44 46 76 73 98 91 99 99 95 63 71 56 51 42 52 59 80 81 71 73 75 28 29 45 57 49 45
92 91 91 90 89 91 90 91 90 92 91 91 98 66 68 86 57 46 45 42 45 53 93 85 90 79 59 72 60 62 87 75 53 54 38 65 48 58 49 50 35 46 54 47 45 47 48

GFSGBSN_sfc_rhum_087.txt.gz
RH
71 70 68 67 68 66 64 64 68 73 75 74 75 72 74 76 74 76 83 86 86 82 80 80 78 76 75 49 41 21 65 64 54 37 35 34 23 23 29 24 22 21 17 14 13 13 13
69 69 68 69 69 72 65 64 68 74 76 76 76 78 76 76 75 76 82 85 85 85 84 81 78 76 75 62 20 15 16 21 31 18 26 25 24 21 24 23 23 19 17 16 13 13 13
66 68 73 73 71 73 74 74 71 73 74 74 74 76 76 75 78 80 80 84 84 85 82 80 78 72 75 61 23 22 22 20 20 20 15 19 24 26 25 26 20 20 22 17 16 16 16
65 64 63 69 76 76 76 77 73 69 70 69 69 75 80 83 85 86 86 85 84 84 81 79 78 77 84 34 32 24 22 21 20 21 18 14 13 20 31 29 26 27 25 27 21 17 15
69 66 62 66 72 76 78 77 76 73 70 72 72 76 79 84 86 87 87 85 82 82 80 81 87 91 74 34 35 26 24 23 20 21 20 14 13 19 24 42 44 41 42 31 23 16 16
64 66 68 64 64 69 72 73 78 78 75 75 72 73 79 83 85 86 86 85 75 77 70 52 56 84 58 34 20 20 20 16 24 29 27 23 18 25 35 44 55 47 40 33 29 20 17
68 66 67 66 65 66 70 66 72 78 76 72 72 70 74 81 83 85 89 78 55 75 58 64 60 55 33 27 18 17 20 30 31 31 39 27 26 32 35 35 35 33 37 33 27 19 19
64 64 69 69 63 63 70 71 72 75 74 71 72 71 73 76 83 84 86 91 52 56 78 50 43 37 32 23 27 19 16 30 35 42 33 37 35 24 22 24 28 35 48 53 31 23 23
68 71 70 68 66 67 68 70 73 75 75 76 73 71 74 80 82 86 80 67 46 47 83 55 36 37 31 26 30 26 20 23 37 47 48 56 42 38 34 29 36 47 40 40 34 26 24
60 63 63 65 70 69 70 71 70 68 72 75 76 75 78 82 83 72 69 47 50 52 84 48 32 22 21 24 32 22 21 21 37 46 53 75 61 63 55 50 40 50 35 31 45 64 76
65 67 69 69 71 72 69 70 70 71 69 74 76 74 77 73 87 80 54 54 46 61 93 36 26 19 24 29 27 24 22 23 37 51 63 65 65 76 80 56 54 50 43 47 66 67 57
66 69 68 69 68 68 69 72 73 75 76 72 75 76 76 71 84 66 60 64 70 94 89 22 28 31 31 30 29 25 24 25 34 43 54 56 44 55 69 60 56 55 78 70 64 69 93
62 63 66 66 65 66 67 70 74 72 73 76 77 75 74 60 79 54 58 87 91 94 25 22 30 24 26 25 27 28 28 39 56 68 67 50 46 46 44 61 56 79 87 99 99 98 89
62 61 61 64 66 68 68 69 69 75 72 73 78 78 75 61 60 58 85 96 94 44 32 21 23 25 28 22 25 29 32 40 41 50 51 62 79 42 40 55 68 65 86 94 86 94 80
66 67 67 66 64 66 68 70 68 71 74 76 76 85 80 69 65 78 97 99 71 37 27 28 24 29 28 20 30 33 35 40 34 37 50 61 61 44 45 53 44 77 86 57 86 73 99
62 63 65 66 68 69 67 67 68 72 76 72 96 92 77 57 72 91 100 84 52 33 30 27 34 28 31 29 34 58 52 49 41 33 33 41 57 40 39 43 48 68 71 79 97 92 96
63 66 69 70 68 68 69 68 66 66 74 75 95 99 63 56 88 96 98 88 49 36 30 31 35 40 40 38 35 36 76 49 37 38 37 36 50 52 42 61 59 64 94 91 79 77 98
68 69 71 73 73 70 69 68 73 71 73 77 97 100 72 68 97 98 98 71 54 37 34 36 33 36 39 41 43 40 59 48 37 40 46 45 60 63 46 34 46 68 78 81 98 82 81
70 71 72 74 74 75 72 70 74 71 74 96 100 89 74 92 96 98 85 78 55 51 43 38 36 34 33 39 50 40 52 44 43 42 47 44 69 82 58 46 38 51 66 68 71 86 98
70 71 72 76 77 78 75 76 71 70 71 94 100 99 84 98 99 88 77 67 61 43 42 35 34 34 37 41 37 47 44 45 44 39 52 52 61 68 86 92 95 85 68 65 89 98 79
70 73 76 77 80 81 77 75 74 70 76 96 100 96 78 97 95 97 84 95 88 56 38 35 39 38 41 48 43 46 43 38 41 53 44 50 69 61 50 44 82 86 93 80 87 77 96
73 77 79 78 79 85 80 78 77 74 77 97 100 98 69 75 73 76 75 77 63 55 53 58 52 40 40 44 42 50 57 57 67 50 50 44 61 58 58 40 38 69 61 67 74 84 77
74 76 79 80 80 80 80 79 80 77 79 95 94 89 96 82 74 79 90 64 56 53 51 41 48 75 76 62 63 66 63 60 61 66 64 59 62 64 71 48 46 69 52 61 61 58 55
75 76 76 78 81 80 81 83 85 81 77 86 86 85 93 95 76 66 56 51 53 50 62 50 55 75 62 71 54 60 54 54 58 59 54 64 67 63 78 61 81 51 35 33 36 43 40
79 76 76 76 81 83 85 86 86 85 79 82 81 93 93 98 65 56 51 46 48 49 63 66 63 68 83 80 83 73 76 72 61 53 55 55 68 85 87 78 51 34 28 32 34 56 55
80 78 78 83 85 87 87 84 86 87 83 83 77 81 95 96 84 52 54 54 73 75 75 71 78 88 87 99 88 86 87 70 63 57 48 52 65 81 87 84 80 47 31 30 38 74 51
83 84 85 88 90 90 89 87 85 86 86 92 82 69 93 96 75 68 73 76 78 72 99 81 83 96 93 97 98 94 85 50 74 79 82 75 81 86 86 94 73 40 35 35 60 81 60
86 90 91 90 91 91 91 89 88 87 88 94 91 68 83 96 70 65 61 73 69 90 98 89 94 96 95 98 98 90 90 76 71 61 82 74 86 95 90 90 83 47 43 65 76 61 55
89 90 91 92 92 92 92 92 89 89 87 91 98 73 73 90 76 64 57 53 57 63 94 97 98 98 91 92 89 90 97 92 94 94 73 94 68 83 70 72 86 79 73 72 56 61 60

GFSGBSN_sfc_rhum_090.txt.gz
RH
68 71 71 70 70 70 70 69 71 75 77 77 74 68 66 69 71 74 80 83 83 78 77 77 78 77 75 64 56 25 67 52 61 59 46 38 26 22 28 29 31 32 27 22 20 17 17
65 67 68 72 74 71 69 70 72 76 78 79 79 77 72 70 70 73 80 83 84 83 78 77 78 77 92 84 22 20 21 21 41 41 31 36 35 23 27 29 30 26 24 23 20 18 17
66 67 65 67 69 73 75 74 75 75 76 76 76 76 76 70 71 75 78 83 84 83 78 76 77 72 78 72 36 27 32 30 22 23 26 19 24 32 34 34 28 26 30 26 25 22 21
63 66 68 65 68 71 74 75 75 73 76 72 71 75 79 77 80 82 84 85 84 81 77 74 76 74 80 43 48 43 38 27 24 24 25 23 19 19 26 31 32 35 37 40 28 23 21
70 65 65 68 68 71 73 75 76 73 74 78 73 77 79 81 83 85 84 84 83 80 74 74 85 77 80 47 50 40 32 28 26 24 26 19 23 18 23 41 49 47 48 41 35 24 23
68 69 68 67 68 67 66 70 76 76 75 75 74 74 77 80 82 83 83 82 72 79 74 66 64 92 67 38 27 22 28 26 26 33 30 29 23 22 35 50 57 53 51 51 45 30 25
65 67 66 66 68 68 64 64 71 78 76 73 74 74 75 78 79 80 83 78 60 61 62 76 69 68 46 38 25 24 20 31 33 34 42 33 26 30 29 34 42 43 44 46 45 37 43
63 67 69 69 68 67 66 66 70 74 72 72 71 74 72 74 78 80 84 94 74 56 79 53 55 52 50 45 48 35 22 26 46 47 43 43 43 26 25 29 32 38 47 52 46 35 36
59 60 61 64 64 65 66 67 70 73 71 72 73 71 72 78 80 86 88 69 53 52 80 60 48 50 41 33 46 37 25 25 31 46 42 52 45 35 33 35 32 44 48 48 45 40 40
66 68 66 68 68 68 70 71 69 69 72 75 75 74 79 80 75 85 60 52 58 59 94 55 54 39 34 32 40 27 23 23 30 42 56 64 62 66 75 68 57 53 41 40 38 77 82
65 66 68 69 70 70 69 68 69 70 72 71 77 74 78 72 94 94 54 54 56 69 81 37 34 23 27 31 30 28 25 26 33 59 62 63 74 77 80 77 60 58 41 43 54 78 82
60 62 62 65 68 68 67 67 68 72 72 75 74 75 78 82 92 86 58 53 79 92 80 45 31 30 35 36 34 26 27 26 28 56 59 54 56 67 65 57 65 52 56 67 64 82 96
60 62 63 62 62 64 66 68 69 71 72 71 74 74 75 72 92 60 59 83 95 90 36 34 38 36 38 40 36 28 31 40 53 62 69 59 57 55 59 70 66 75 93 99 99 98 82
65 67 67 67 68 68 66 67 74 71 70 72 77 81 83 73 84 69 87 98 90 50 41 26 29 34 37 26 31 31 35 43 51 55 54 68 59 50 51 59 74 72 93 99 87 96 78
64 66 63 65 65 66 69 68 67 73 70 76 76 96 95 73 82 86 99 99 70 48 39 40 30 32 30 23 30 34 43 45 39 49 53 58 65 52 48 50 54 81 98 78 98 95 94
66 68 63 66 69 69 68 69 70 67 67 76 96 97 90 74 84 93 99 88 62 38 41 39 44 41 47 38 47 59 58 52 47 40 40 47 58 43 58 61 63 67 84 98 99 95 96
62 69 68 68 71 73 74 69 69 72 67 74 95 94 78 77 92 97 99 85 60 43 41 43 40 43 42 42 42 62 81 65 41 42 42 51 52 58 48 61 75 87 97 96 89 88 96
67 71 72 72 74 75 75 74 71 73 70 83 94 97 79 78 95 98 94 94 62 52 49 47 44 38 42 44 44 50 75 54 41 44 46 49 66 70 53 35 47 64 92 94 99 92 90
67 71 74 73 73 75 77 77 74 72 73 96 99 97 78 87 96 92 91 75 65 60 52 49 50 45 43 44 48 61 63 51 45 48 49 46 61 92 69 57 53 82 69 80 89 96 98
66 71 72 72 74 76 80 77 77 71 72 95 99 98 91 98 99 91 81 82 72 49 50 45 45 42 47 51 44 51 60 53 48 44 61 56 62 77 96 81 87 97 86 91 89 99 89
67 71 72 77 78 78 78 85 80 71 74 95 98 96 94 99 98 94 91 92 83 65 53 52 48 46 52 55 53 49 48 50 50 60 51 57 74 67 59 51 75 76 79 81 96 92 98
66 69 74 77 80 78 80 82 80 74 76 97 99 98 92 90 76 98 98 86 92 60 64 58 68 62 71 81 75 62 64 68 71 59 62 55 66 65 65 48 52 46 69 75 82 92 90
67 69 73 77 78 78 80 81 79 79 82 95 98 93 93 86 85 85 87 66 66 61 57 48 50 63 82 75 76 69 63 62 64 70 67 61 71 73 75 52 44 62 58 73 56 75 74
68 69 73 75 76 76 81 83 84 82 78 93 96 92 96 94 84 74 62 55 53 53 67 60 61 73 67 65 61 63 61 57 64 66 63 67 69 72 86 66 63 45 36 40 69 62 56
67 71 75 75 76 78 82 85 84 85 81 94 91 94 96 99 83 70 64 59 68 67 63 63 67 81 80 72 83 86 78 74 67 64 68 67 73 86 87 82 57 38 30 42 62 72 62
68 74 75 78 81 84 86 88 85 86 82 83 78 94 95 99 87 60 74 65 77 83 85 75 87 91 86 94 98 91 89 75 70 64 57 60 70 82 90 89 85 54 39 36 49 91 60
72 75 78 82 86 89 90 90 89 86 85 92 87 76 94 98 82 76 82 86 86 91 97 91 88 94 94 98 98 96 87 62 78 78 86 86 92 85 85 94 79 55 63 49 64 85 63
74 78 84 87 90 90 90 91 91 88 86 93 96 72 82 98 72 70 70 83 81 98 99 94 91 93 99 97 95 93 96 78 80 65 76 82 95 90 92 92 89 76 63 87 81 66 65
79 85 88 90 91 91 89 88 89 88 86 90 99 75 71 94 80 67 62 60 64 76 94 94 98 100 96 98 97 97 97 95 93 96 85 98 86 89 76 77 87 76 80 71 65 75 73

GFSGBSN_sfc_rhum_093.txt.gz
RH
64 68 67 69 70 73 72 70 72 79 78 78 76 73 69 67 67 68 76 80 81 78 77 76 74 76 82 76 56 33 50 40 65 56 46 42 32 26 27 30 37 40 34 28 26 26 24
67 68 67 66 66 67 71 75 75 77 80 80 80 78 73 70 69 69 75 78 80 80 77 75 74 76 80 90 25 24 27 25 28 58 46 45 35 24 25 27 32 32 31 30 29 27 25
64 64 68 70 67 69 69 71 74 75 75 78 78 78 77 71 71 71 74 78 81 81 76 74 73 73 73 73 42 39 39 36 27 28 36 25 33 36 36 36 30 29 32 30 32 28 26
65 70 66 67 70 69 69 69 70 74 73 73 74 78 79 79 78 79 78 79 78 78 76 72 73 75 86 46 52 54 50 46 38 31 27 26 24 21 26 27 32 38 41 48 33 29 26
66 68 69 69 70 70 70 70 70 69 74 74 75 77 80 81 82 82 80 79 77 74 74 71 82 84 83 47 56 50 43 37 28 28 30 21 24 24 23 34 51 53 55 48 39 27 26
62 66 68 67 67 68 68 67 71 72 75 75 73 75 79 81 82 80 80 78 68 76 71 66 67 89 68 40 37 26 44 32 29 30 30 31 31 24 40 53 56 59 58 66 48 36 40
61 61 65 66 68 67 68 67 67 74 73 72 72 71 74 77 77 78 79 86 77 72 76 81 69 71 53 44 34 30 23 27 31 36 44 35 37 36 29 43 44 47 50 55 52 37 46
58 58 59 61 61 65 65 66 68 72 72 74 72 73 73 73 75 79 90 86 76 78 90 63 57 58 56 51 64 47 29 29 48 53 45 48 42 30 25 29 35 41 47 47 46 41 41
59 67 69 66 65 66 66 67 69 70 70 71 73 73 73 78 79 86 79 58 50 58 88 64 51 52 49 44 58 50 37 27 34 50 49 58 48 41 30 30 32 36 40 48 47 46 50
56 62 66 66 66 68 70 69 68 68 70 71 72 74 80 79 69 92 67 54 54 58 91 63 61 51 38 34 49 34 27 26 32 39 49 52 56 64 75 72 62 73 43 44 47 69 66
55 57 60 60 62 67 67 68 68 68 68 73 73 73 78 75 95 95 63 58 49 86 94 31 48 33 33 30 31 36 26 28 41 59 63 68 78 78 77 72 70 70 55 55 51 83 94
55 57 60 63 64 64 65 65 67 69 70 72 72 74 76 84 95 87 70 62 81 87 79 46 35 42 40 36 36 29 30 28 34 61 63 58 66 66 62 63 69 64 66 67 78 85 90
65 64 66 68 67 67 68 69 68 69 71 73 73 73 77 79 94 80 78 86 95 89 39 44 43 39 39 43 40 30 36 48 53 64 72 61 64 60 66 76 72 81 85 98 98 96 87
64 65 65 66 64 66 66 67 70 70 70 73 74 80 85 78 91 84 91 98 91 49 49 42 39 42 50 42 42 34 39 49 58 54 65 74 56 60 59 62 78 93 79 92 88 93 86
62 65 67 66 64 67 69 69 68 70 70 70 75 96 97 92 88 92 98 98 69 59 67 72 45 47 42 31 38 37 47 45 47 50 52 62 61 52 55 56 60 81 89 79 100 98 99
64 63 65 68 68 69 72 73 73 70 71 72 97 97 95 84 91 96 98 93 66 52 60 68 54 43 52 44 52 50 62 58 49 48 42 49 58 54 62 63 67 80 80 99 99 96 96
63 61 68 71 71 72 74 74 75 73 71 69 95 98 76 88 90 94 99 89 61 44 54 92 56 45 48 50 46 70 75 59 43 49 42 52 54 59 67 75 84 83 91 95 96 98 98
61 64 68 71 74 74 74 75 77 78 70 85 96 96 81 92 98 98 97 77 69 58 51 89 58 46 47 50 50 64 84 60 38 45 50 47 64 74 59 45 62 82 80 91 99 98 94
65 66 67 72 73 72 75 77 81 80 71 96 97 92 82 93 98 98 82 76 57 64 59 90 80 50 45 53 54 60 60 52 43 43 49 50 67 85 77 71 74 84 85 91 88 97 98
66 64 67 73 72 76 77 78 82 80 74 95 98 99 90 98 99 95 87 68 78 55 52 55 61 51 52 53 49 50 56 56 52 48 59 54 66 78 93 89 73 93 80 81 95 100 94
64 63 68 71 73 76 78 78 81 79 73 94 98 96 91 98 98 98 88 81 89 78 58 57 60 71 76 78 67 65 60 52 53 61 52 61 70 74 68 68 63 76 78 74 84 94 99
59 61 66 71 73 77 78 78 82 78 76 96 97 93 85 89 79 100 97 86 86 88 66 62 61 63 74 88 86 88 78 65 70 60 61 60 66 71 70 59 65 70 47 43 66 75 85
66 62 67 70 71 76 76 81 80 79 80 98 98 93 91 81 81 83 96 97 96 88 72 56 63 72 73 78 76 72 73 72 69 70 68 66 71 76 77 60 55 59 54 51 68 64 77
64 61 67 69 74 74 75 79 82 82 77 88 97 93 96 93 80 68 65 58 67 68 74 59 62 71 72 69 66 64 62 66 70 68 66 72 73 78 88 66 75 42 30 69 67 80 73
64 66 67 69 74 75 78 81 82 84 81 84 89 93 96 99 84 75 70 65 66 65 70 76 85 92 88 78 80 78 76 72 67 70 72 70 77 85 88 77 51 44 46 57 61 62 70
65 68 67 72 74 80 83 85 85 85 83 80 83 90 96 98 85 69 73 70 77 93 86 82 81 88 84 97 97 88 83 73 71 62 67 78 75 83 93 88 80 59 61 56 64 91 73
65 69 69 74 76 84 86 87 89 86 84 93 88 82 94 99 88 77 83 88 87 95 95 92 92 90 92 98 96 98 87 68 75 75 82 92 93 92 89 84 76 54 77 66 78 84 74
68 68 71 74 81 85 88 90 89 90 87 94 97 73 85 99 80 73 68 77 92 91 96 92 89 92 96 98 96 92 96 80 83 68 79 84 97 98 93 93 90 81 76 86 84 78 76
67 68 72 79 85 89 90 90 90 91 87 88 99 75 68 97 82 77 66 65 68 79 90 92 96 98 97 99 97 97 98 96 92 93 84 96 87 96 81 80 86 83 87 82 78 81 78

GFSGBSN_sfc_rhum_099.txt.gz
RH
64 62 66 68 67 67 65 66 67 68 68 70 73 74 73 72 72 72 74 78 74 71 68 67 66 67 65 78 59 30 46 44 48 59 38 29 30 32 35 34 36 40 33 29 25 23 24
65 66 62 67 69 67 66 67 67 68 68 70 71 73 74 73 72 71 73 78 80 75 70 67 66 66 79 89 33 30 36 36 28 52 44 32 26 24 25 24 25 25 28 24 27 26 26
63 66 72 72 71 71 69 69 66 68 68 70 71 74 75 74 73 73 74 77 80 79 73 68 68 65 74 66 39 34 36 39 35 28 30 42 30 25 26 28 23 24 27 23 23 23 24
58 64 68 69 68 67 67 67 70 68 67 69 71 72 75 76 77 78 78 82 80 77 73 74 73 69 83 45 43 50 47 48 44 41 34 23 30 38 33 26 23 34 37 39 32 26 23
55 60 62 64 66 68 68 67 66 67 70 71 71 72 74 79 80 82 82 81 76 71 75 74 74 78 79 49 52 47 48 48 38 41 37 23 28 28 22 26 27 40 38 44 35 28 25
55 53 58 58 58 60 60 61 66 68 69 69 69 70 71 75 78 79 81 78 69 74 66 57 58 88 58 40 44 42 48 47 38 41 34 31 32 33 28 26 34 32 43 43 39 28 29
54 56 63 59 58 58 59 60 67 68 67 67 68 69 70 71 74 78 79 63 61 58 63 74 65 64 61 44 41 42 38 42 38 33 35 36 37 40 34 31 30 34 41 42 39 31 36
54 54 56 59 59 58 60 63 67 67 67 67 67 68 70 72 74 75 76 71 69 84 96 69 71 68 54 44 54 39 38 39 39 35 36 36 43 35 30 30 30 32 33 35 34 32 34
52 55 57 60 59 58 60 62 63 64 64 66 68 69 70 74 76 76 84 74 59 64 98 74 57 57 62 59 68 46 42 36 46 47 43 45 42 32 31 32 33 32 33 34 32 28 34
53 52 54 56 58 62 64 64 65 66 67 68 70 71 72 75 71 87 78 63 68 72 98 57 63 56 48 52 74 39 35 29 33 50 49 50 37 34 31 32 29 37 30 27 34 44 48
52 54 56 60 64 66 66 65 66 66 68 69 69 71 72 73 90 93 68 73 68 92 81 30 45 37 44 50 34 49 32 33 33 47 48 49 59 60 51 46 34 44 49 44 48 53 63
53 58 62 63 66 65 64 66 66 67 68 69 70 69 71 83 89 82 78 79 87 85 65 40 50 60 56 49 40 43 42 29 30 54 53 52 58 53 49 64 58 58 58 61 66 65 72
58 59 62 63 65 63 65 66 69 71 70 69 70 72 73 78 84 78 83 81 82 85 39 50 58 57 57 57 41 45 47 47 46 53 64 62 66 59 58 70 66 62 58 73 78 87 56
58 54 62 64 65 66 65 67 70 73 74 73 73 75 83 78 86 84 84 80 90 37 48 61 62 71 75 43 40 40 44 45 46 46 52 63 71 64 60 52 64 66 59 61 55 71 66
52 53 63 61 63 68 69 70 72 74 75 75 78 88 88 83 86 88 88 91 56 62 78 92 65 80 96 41 43 41 43 40 44 43 52 55 54 54 56 56 54 77 72 67 87 74 77
54 53 62 60 66 69 72 73 73 75 76 72 93 92 81 86 89 92 91 72 62 52 62 96 94 83 93 77 81 49 49 47 41 44 38 46 68 56 60 53 65 63 66 87 85 87 84
51 56 62 61 67 69 73 73 74 76 74 76 94 91 70 90 91 94 94 73 61 48 64 100 96 94 94 92 92 55 74 47 42 45 38 43 52 71 63 62 71 78 80 84 78 91 90
56 63 60 65 65 68 74 74 76 76 75 83 92 92 76 90 97 96 92 67 60 52 42 50 92 99 98 99 98 82 78 64 54 42 48 53 60 67 66 58 56 63 69 67 82 94 84
59 60 63 63 62 70 72 75 78 73 70 95 96 93 79 94 97 94 80 76 63 55 55 60 77 85 93 99 98 98 86 68 62 47 54 56 66 87 94 66 55 67 72 73 98 97 90
59 61 68 60 62 70 70 74 80 73 76 94 96 96 77 96 95 90 85 74 71 58 58 65 82 90 100 99 96 99 100 72 68 59 69 62 65 60 67 70 65 75 74 68 78 96 74
60 65 63 58 59 66 70 73 78 79 75 92 93 91 87 97 90 91 90 89 91 87 71 89 96 96 100 97 86 88 84 69 60 61 60 58 65 60 57 56 64 63 62 57 57 60 82
63 62 54 57 59 64 71 72 78 78 76 94 98 90 84 89 81 90 86 76 73 82 100 99 88 73 80 92 96 94 87 79 76 57 58 55 66 60 59 50 57 57 47 40 46 53 55
68 58 58 62 60 65 69 72 79 80 76 96 96 89 85 79 68 74 87 80 79 75 65 86 86 74 80 91 94 84 70 73 69 66 63 62 63 59 52 58 55 47 45 39 58 60 64
60 66 60 57 57 63 69 75 79 81 70 78 90 84 92 85 72 65 64 65 65 64 62 73 82 91 82 80 76 74 69 65 64 64 64 67 65 67 67 62 57 35 34 44 48 51 64
65 69 57 57 58 67 68 76 79 80 76 74 85 89 83 95 72 65 69 68 67 57 73 75 79 78 84 82 74 54 60 55 61 72 70 61 66 75 71 65 49 44 68 64 69 50 75
66 68 59 66 60 68 69 77 78 81 82 93 84 81 94 95 72 67 79 72 73 81 83 77 73 78 82 85 84 74 76 64 59 62 69 71 70 68 77 72 73 59 65 64 69 66 78
69 66 65 66 59 66 70 76 77 83 82 94 96 80 99 97 76 73 75 72 75 85 86 83 83 90 83 90 86 86 75 65 68 66 75 80 84 85 86 75 63 81 73 67 45 78 90
81 63 64 70 62 66 70 73 78 84 84 93 98 79 97 96 76 73 65 64 64 83 88 81 84 86 94 90 87 90 88 79 77 70 79 73 80 88 77 82 82 81 69 84 89 88 93
68 64 67 69 65 68 71 74 79 83 85 89 99 79 86 99 85 82 72 63 58 69 85 82 83 95 99 88 86 89 90 89 87 81 75 94 97 93 84 94 97 91 96 92 84 94 97

GFSGBSN_sfc_rhum_102.txt.gz
RH
64 62 68 68 66 63 62 65 65 66 67 69 70 70 71 70 70 71 72 77 73 71 69 69 68 66 56 43 31 9 45 34 14 26 27 23 23 23 25 21 21 24 18 16 16 14 13
65 67 64 68 67 66 66 66 64 67 67 68 70 72 73 72 71 70 70 75 78 76 72 70 68 66 55 65 15 18 20 20 17 26 23 22 20 20 22 21 22 19 20 17 16 16 16
64 73 74 71 68 65 64 65 67 67 67 67 69 70 71 72 72 71 71 74 80 80 74 71 70 56 66 46 17 16 18 19 20 21 22 24 18 20 20 23 18 18 20 17 17 18 19
62 68 69 67 66 66 66 67 65 66 68 69 69 70 71 72 73 74 74 79 80 77 71 76 74 63 59 29 23 25 22 25 22 21 20 18 24 27 22 18 21 21 22 26 20 18 16
59 61 61 61 60 59 59 60 66 66 66 66 67 68 69 76 78 78 80 80 80 67 74 72 62 71 48 38 38 30 31 36 24 23 22 17 16 31 29 32 26 26 27 29 25 20 19
57 57 57 56 56 56 57 64 67 66 66 66 65 66 68 71 76 78 80 78 62 67 52 45 49 71 43 24 30 31 30 36 37 29 27 26 20 26 28 27 34 28 28 25 26 20 21
57 57 65 59 56 55 59 59 66 66 65 65 65 66 67 69 72 78 61 30 32 37 43 41 32 38 28 20 16 20 31 33 36 30 16 21 23 26 25 25 24 21 20 20 18 20 26
57 55 55 55 57 54 53 54 60 62 63 64 66 67 68 70 72 74 46 41 55 67 92 43 40 41 35 32 42 24 18 34 38 29 19 26 23 16 16 23 25 21 22 22 18 18 22
57 57 54 54 53 55 56 59 62 64 65 66 68 68 71 73 73 56 48 44 41 49 76 37 32 37 37 40 48 39 20 29 33 30 28 24 15 12 17 23 27 23 24 23 24 19 18
56 56 54 55 57 60 63 63 62 63 65 67 68 69 71 74 60 48 39 42 43 56 80 31 37 40 38 40 50 32 21 27 30 32 32 27 23 28 28 26 25 26 20 23 23 24 26
55 55 56 58 63 64 62 62 64 65 66 67 69 69 70 76 56 44 41 45 48 82 42 22 35 34 39 48 38 29 27 25 31 35 41 39 36 33 33 28 23 26 26 24 25 28 32
56 59 63 60 61 61 61 63 66 69 70 70 70 70 71 50 47 44 46 55 62 68 35 22 24 38 35 42 44 30 35 24 24 35 35 42 38 32 33 33 25 35 39 42 40 38 49
58 58 61 60 62 62 60 64 68 71 73 73 73 73 63 46 50 54 58 50 53 47 14 29 46 35 37 50 38 37 40 38 33 51 52 46 52 46 42 56 46 40 44 64 74 77 41
62 55 56 63 61 62 65 67 69 72 74 75 75 75 57 48 54 65 58 48 56 17 27 33 38 39 60 76 47 36 36 31 27 26 35 46 64 56 48 40 44 45 39 42 40 42 33
64 51 56 60 58 64 68 70 72 73 75 76 74 48 51 58 66 63 56 63 27 33 41 50 47 50 79 61 87 36 34 24 26 28 36 43 48 45 44 42 36 49 61 43 64 55 56
58 52 60 59 61 65 69 71 72 74 76 72 50 51 54 69 70 61 66 57 40 32 32 44 88 74 90 63 97 37 31 23 29 29 28 33 60 45 49 41 49 43 43 68 61 69 61
57 56 59 59 63 65 70 72 74 76 73 74 58 50 61 65 66 59 82 52 47 36 37 73 72 72 92 86 96 87 42 30 27 33 29 34 41 70 52 48 48 58 60 59 54 68 66
57 56 63 60 62 63 70 73 76 74 72 63 61 76 57 68 82 74 67 59 56 41 34 51 54 73 100 90 94 98 67 46 43 30 37 42 48 64 51 44 37 42 47 49 64 77 62
62 60 62 66 61 64 70 72 78 72 68 54 62 47 51 76 80 68 52 50 50 51 50 65 72 80 88 99 99 96 68 50 38 38 48 48 51 67 73 56 47 49 49 58 86 79 73
61 59 63 65 60 63 67 71 76 75 73 53 84 90 48 70 75 68 66 60 56 48 54 63 93 98 100 100 99 100 95 61 52 48 70 51 48 46 48 56 50 64 52 49 56 72 53
63 61 68 64 58 58 65 70 75 77 71 51 86 80 65 83 62 69 61 53 56 81 68 93 100 86 95 99 98 100 98 82 66 62 59 49 49 43 39 41 41 42 41 39 38 40 55
64 67 66 59 52 58 66 70 74 79 72 54 97 59 52 49 55 67 67 58 50 78 98 88 86 71 65 73 92 97 96 80 81 59 62 59 52 34 39 37 37 40 32 26 28 37 43
63 65 59 60 59 59 66 69 75 80 66 61 60 58 52 52 40 49 67 65 59 53 50 44 65 64 60 74 73 68 67 68 61 62 50 45 44 34 44 34 33 36 32 33 34 34 44
65 67 62 60 63 58 63 69 77 82 66 54 50 46 64 64 43 44 48 44 45 46 53 44 58 64 56 61 54 47 51 48 46 48 48 42 38 39 45 44 37 35 35 33 34 46 62
69 61 63 59 57 58 67 67 77 79 74 55 52 54 50 77 45 42 50 53 44 39 47 58 55 55 65 61 54 34 43 45 51 51 48 44 42 52 51 40 42 52 54 54 53 54 71
66 64 69 58 63 63 68 68 77 76 82 90 72 57 67 71 45 47 54 52 52 58 50 56 49 59 63 63 61 52 55 45 43 47 46 48 47 48 53 50 54 63 48 44 47 62 70
66 66 69 61 66 63 67 69 76 76 78 89 90 78 95 87 47 54 47 52 49 53 58 56 62 66 61 72 65 60 50 48 51 48 56 57 60 62 64 62 56 64 47 46 57 87 88
66 68 70 67 70 62 62 69 72 74 80 92 95 78 84 90 55 56 50 53 46 52 65 57 70 66 76 72 69 71 69 60 56 60 67 57 66 71 62 69 76 91 50 73 95 94 94
65 80 72 68 69 65 64 70 72 76 78 90 98 78 77 98 66 64 57 51 47 47 61 57 63 70 69 76 77 78 77 75 74 64 55 88 83 83 86 96 99 98 97 91 85 94 97

GFSGBSN_sfc_rhum_105.txt.gz
RH
69 69 68 68 66 62 63 62 61 65 66 67 69 70 71 70 70 70 70 75 72 69 67 68 68 68 52 29 25 11 46 37 14 12 21 23 22 18 19 18 16 16 15 14 13 12 11
66 65 70 68 66 66 64 61 62 66 66 66 68 70 71 71 70 70 70 74 76 73 70 69 70 70 52 47 15 10 10 13 11 7 17 16 19 15 16 17 18 16 15 16 14 14 14
67 71 70 71 68 63 62 63 67 65 66 68 68 69 70 70 70 71 72 74 78 78 72 71 72 54 50 33 14 10 11 13 10 11 13 15 16 18 18 21 16 17 20 17 16 16 15
68 74 72 69 66 65 65 62 62 63 65 65 66 67 68 69 71 72 74 79 80 76 71 71 75 56 45 17 15 17 14 14 13 13 12 13 15 22 19 17 18 19 21 24 17 14 14
67 69 67 66 63 57 56 56 63 63 64 65 65 65 67 72 75 77 79 80 80 72 63 70 61 62 42 32 29 20 19 22 19 18 14 12 15 25 23 26 25 22 24 23 18 13 14
63 62 61 60 58 56 58 64 66 65 65 64 64 65 67 70 75 77 79 81 56 59 53 35 31 60 37 23 20 21 22 23 31 27 20 17 18 18 19 25 33 26 24 20 19 16 15
60 61 60 59 59 56 55 55 61 62 62 64 65 66 69 70 72 76 64 24 25 29 31 31 22 33 18 12 11 13 11 22 29 30 28 17 20 18 16 22 22 22 21 20 16 14 18
62 62 62 58 58 54 52 53 58 61 64 65 66 68 68 71 71 74 50 33 38 46 69 32 27 25 20 20 31 24 14 22 32 35 24 14 18 12 12 14 22 23 24 22 16 12 19
62 60 60 59 56 56 56 58 60 62 64 65 67 68 69 71 73 57 34 35 27 33 56 29 18 21 22 29 36 31 20 19 27 32 24 14 13 10 12 15 22 26 26 23 16 13 13
62 61 58 58 59 61 61 59 60 61 63 65 67 68 70 74 64 31 29 27 31 42 73 18 27 30 34 31 39 24 21 19 21 29 25 17 10 14 14 17 19 30 22 19 16 19 22
61 61 59 61 64 64 60 61 62 65 67 68 69 70 71 71 47 34 30 32 37 60 52 13 22 25 26 33 28 30 19 19 22 25 26 24 15 16 18 19 17 24 17 17 19 23 22
60 60 62 64 63 61 61 61 64 68 70 72 72 72 70 39 37 32 36 43 45 75 41 14 15 27 28 21 22 22 26 24 15 25 23 22 17 18 16 17 23 19 22 24 23 23 35
60 62 67 64 64 62 59 60 65 70 72 74 74 74 60 38 44 43 49 42 44 55 14 18 27 21 22 32 43 38 41 37 25 38 64 32 36 21 19 26 24 23 33 56 59 51 40
62 62 62 65 64 62 63 64 68 71 74 76 76 76 62 36 42 53 47 41 45 17 18 18 21 22 37 56 54 66 35 29 22 21 35 44 86 38 30 28 31 34 36 41 49 42 28
65 60 58 66 61 63 66 68 70 72 75 77 77 42 41 50 54 48 48 57 29 25 22 28 26 38 56 45 66 96 55 25 20 22 80 43 72 49 34 28 34 51 47 28 56 44 46
68 58 60 63 60 64 66 70 71 74 76 74 42 36 41 53 56 54 56 44 31 24 25 31 66 43 80 64 91 64 39 20 20 21 43 37 59 44 36 33 33 41 30 55 51 52 43
63 58 63 63 64 65 67 70 73 76 73 68 49 37 46 50 54 49 79 40 33 27 29 50 60 72 85 86 93 64 29 16 16 26 24 37 45 52 42 42 38 46 53 53 45 52 58
63 60 60 62 65 63 68 70 74 74 72 70 47 70 44 49 81 53 50 39 46 38 37 45 54 79 100 92 93 97 60 19 18 21 26 26 39 62 61 27 25 28 34 39 54 56 44
61 60 63 63 65 63 69 69 75 73 73 44 39 33 42 54 74 57 38 37 34 44 42 55 84 95 98 100 98 100 68 43 32 28 34 31 47 65 87 45 42 45 36 42 58 55 59
63 61 64 66 64 64 67 68 73 75 74 53 72 90 40 40 51 51 48 42 44 41 52 53 88 98 96 100 100 100 94 64 46 42 66 49 46 52 55 44 41 53 48 42 45 62 51
65 63 63 70 63 62 64 68 71 76 76 56 78 70 48 77 56 53 47 40 44 62 51 54 94 59 84 98 90 100 97 70 51 62 48 46 61 66 50 40 39 43 46 42 48 40 47
66 64 67 68 61 58 61 68 71 76 75 50 96 49 40 35 41 50 56 45 41 44 62 69 56 50 50 58 72 91 78 74 97 70 63 51 41 34 40 32 33 38 29 24 23 27 33
67 64 70 65 59 59 62 68 70 79 77 47 39 40 40 44 32 40 54 45 43 39 40 34 47 51 49 57 59 62 50 52 50 53 73 67 42 40 46 27 26 35 32 28 27 52 57
69 66 66 63 59 62 62 67 71 78 80 52 40 39 43 55 30 34 34 32 33 32 40 36 44 53 44 47 44 37 43 39 39 40 39 37 39 32 42 38 42 39 29 28 46 57 61
70 66 65 63 64 61 60 67 69 76 81 63 44 50 45 67 32 33 39 36 34 32 36 38 42 42 48 48 52 37 43 47 34 37 36 36 35 44 44 36 39 49 40 43 44 84 56
70 71 64 67 63 62 64 68 68 74 79 68 50 57 60 66 41 37 42 35 39 40 41 38 39 44 51 46 51 43 49 43 40 35 30 34 35 40 44 40 67 76 46 37 37 89 71
71 67 65 70 67 65 63 68 68 74 77 79 89 73 65 85 42 44 46 49 38 39 42 40 49 54 50 63 66 51 46 34 45 43 46 46 48 54 54 50 68 91 66 47 76 97 86
74 70 70 73 69 69 66 70 70 72 75 82 78 64 70 83 50 47 46 52 45 42 55 45 58 59 70 70 63 64 64 51 55 43 53 59 76 65 56 57 86 92 54 84 97 95 94
74 70 72 74 73 73 67 67 68 71 75 86 95 68 72 84 56 59 55 50 48 46 53 45 54 64 62 75 71 70 74 62 54 88 47 77 71 79 88 94 97 88 89 91 76 81 84

GFSGBSN_sfc_rhum_108.txt.gz
RH
72 70 68 67 66 64 63 61 60 64 64 65 67 68 69 69 69 70 70 73 71 70 68 67 67 68 58 32 26 13 61 47 19 12 12 15 24 29 22 14 16 20 18 16 13 13 13
70 70 70 70 66 65 65 62 61 65 64 66 68 69 69 69 68 69 70 71 73 72 70 70 70 70 63 59 17 11 10 10 9 10 10 8 16 18 21 18 17 16 17 16 14 14 14
70 69 73 71 69 67 63 63 66 62 65 66 66 67 68 68 68 69 69 71 78 76 72 70 68 57 60 47 15 15 12 9 9 9 11 9 8 17 18 22 16 15 19 18 17 15 16
70 68 70 72 69 66 66 64 62 62 62 64 65 66 67 68 70 71 72 78 79 74 72 71 69 60 62 25 16 15 13 15 12 11 11 11 11 14 19 19 20 21 21 25 19 17 16
72 75 74 71 68 66 61 57 63 61 63 64 64 65 67 70 74 78 79 79 79 75 72 68 63 60 54 28 25 18 17 19 15 14 14 11 13 16 20 31 31 25 29 28 24 17 17
74 77 72 68 63 60 58 64 64 62 62 63 64 66 68 70 76 78 78 79 67 65 47 35 40 58 42 28 13 16 16 21 22 25 27 24 18 18 21 29 42 31 29 26 24 18 18
75 75 69 64 61 59 62 60 59 59 62 64 66 67 68 69 71 76 66 39 28 31 34 34 26 35 23 14 11 12 10 12 13 24 40 30 25 21 19 20 23 22 23 23 20 16 18
76 73 68 63 61 58 56 54 57 60 63 64 66 68 69 70 71 76 58 34 31 34 51 30 28 26 21 18 22 17 14 23 19 19 29 33 32 18 13 13 17 19 25 26 24 21 19
82 78 72 65 62 57 56 59 60 60 62 64 67 68 69 71 75 60 33 30 23 32 48 31 19 16 16 15 23 24 23 25 23 19 28 32 24 17 13 13 14 17 23 32 32 23 17
80 73 69 64 60 61 63 61 60 60 62 66 69 71 72 76 67 34 29 24 29 38 64 27 22 32 26 29 29 19 20 27 30 23 22 26 19 19 14 14 12 19 16 24 26 30 26
77 73 68 64 64 66 63 62 62 64 67 70 72 73 74 70 58 35 30 32 34 48 60 13 22 31 17 22 44 42 18 31 37 24 22 28 32 22 16 13 11 16 19 26 27 28 26
76 73 66 68 71 66 63 63 63 65 69 72 74 74 73 41 54 35 37 43 49 82 52 15 11 14 15 14 15 27 27 35 40 24 20 19 18 27 11 13 11 14 24 29 29 31 41
75 70 66 70 66 65 63 62 64 67 71 73 76 76 68 42 45 40 48 47 85 62 13 15 20 18 20 25 51 45 43 55 72 36 31 23 40 58 11 16 16 20 30 69 76 77 59
73 65 70 67 66 66 63 64 66 69 72 75 78 81 61 35 43 51 52 76 66 20 23 19 22 24 33 82 68 48 58 70 44 43 18 39 76 54 23 21 20 26 33 72 55 58 44
66 72 69 67 65 64 66 67 68 71 74 77 80 52 53 47 51 50 61 62 30 26 23 28 28 39 49 40 53 76 62 51 36 23 31 94 77 52 34 18 24 33 46 37 66 51 62
65 66 61 70 64 64 65 68 69 72 75 74 50 40 38 48 50 58 71 44 29 24 25 34 61 61 86 67 90 81 59 30 22 14 34 62 95 77 45 45 30 42 36 70 76 95 94
70 65 62 67 64 64 66 70 70 74 73 68 61 42 48 44 56 54 81 36 31 25 30 46 54 78 86 98 95 83 66 34 15 48 56 86 96 61 44 70 68 86 77 64 56 55 83
71 64 64 67 65 65 66 69 72 74 70 72 51 66 42 48 84 64 45 34 41 32 34 45 59 91 100 99 92 95 94 69 13 49 69 50 75 68 57 34 33 66 72 66 75 50 54
74 64 66 66 65 64 66 68 73 73 72 58 46 35 42 54 78 55 35 33 31 40 44 50 68 78 95 100 97 100 86 62 47 43 60 50 70 84 83 61 46 56 40 38 56 67 60
69 64 62 67 67 63 65 67 71 74 74 64 72 89 45 40 44 50 44 44 39 37 41 42 52 73 76 98 86 100 98 62 50 54 76 58 57 58 93 72 48 60 51 44 41 70 52
68 65 66 66 67 64 65 66 70 74 76 65 80 77 43 73 55 46 45 42 40 45 39 45 61 48 64 87 88 95 96 68 50 61 59 74 96 98 90 55 38 54 47 40 48 37 50
68 71 70 71 66 62 61 66 69 74 76 63 95 61 36 34 34 44 52 40 39 37 45 49 47 44 50 53 70 87 80 72 67 56 61 60 72 57 97 65 58 82 30 24 48 57 66
72 68 70 72 64 59 60 66 68 74 78 61 37 36 43 42 29 37 47 37 35 33 31 29 40 46 47 50 54 51 45 45 45 61 69 68 52 57 48 30 37 51 40 57 56 60 71
70 68 68 72 62 60 61 66 68 75 81 65 54 43 47 62 31 28 31 32 31 31 38 30 36 48 40 41 42 38 36 34 34 37 50 62 47 45 51 44 84 61 46 51 65 64 59
73 70 70 66 61 63 61 64 67 74 75 69 59 56 55 67 34 28 33 33 32 30 34 33 37 39 45 50 50 54 47 50 35 32 34 38 46 57 59 49 59 57 60 68 72 89 70
75 73 69 68 69 66 62 66 66 73 75 66 78 57 56 63 67 33 37 36 40 41 40 36 38 40 51 47 68 54 52 44 48 55 28 31 42 56 57 50 81 84 65 52 50 95 81
77 74 72 70 71 68 66 67 67 73 76 66 70 69 67 84 45 44 50 50 38 40 44 42 45 52 52 73 73 63 62 39 62 55 55 61 65 69 65 68 83 78 62 52 77 98 95
78 77 73 74 72 71 68 66 70 73 75 80 78 64 66 84 54 49 47 51 49 48 62 48 56 62 74 74 62 60 65 51 76 50 56 66 88 78 77 83 89 76 60 80 98 99 95
79 77 75 78 73 75 70 69 70 70 71 80 94 66 62 85 63 62 54 49 48 48 61 51 49 59 64 74 69 71 81 71 56 97 51 84 73 75 84 94 88 79 88 84 75 86 84

GFSGBSN_sfc_rhum_111.txt.gz
RH
80 77 75 72 69 68 65 63 61 64 64 66 67 69 69 69 67 67 68 69 69 68 68 67 68 68 73 62 52 26 59 61 42 26 20 19 20 38 49 33 24 18 19 21 21 21 21
80 79 75 71 69 66 65 64 60 65 65 67 68 68 68 67 66 67 68 69 70 70 69 69 69 68 78 85 28 22 22 29 29 24 16 15 15 12 18 32 35 21 18 16 19 21 20
80 77 75 74 70 68 68 64 66 63 64 65 66 67 68 68 68 70 71 72 75 71 71 70 69 63 75 66 35 33 31 31 24 18 16 14 15 13 16 22 22 25 28 22 19 18 21
79 76 73 76 72 71 67 67 65 62 61 64 65 66 68 69 71 73 74 79 79 74 72 72 69 76 80 36 39 34 31 29 21 20 18 16 16 19 23 19 21 27 28 37 24 19 18
80 74 74 74 73 70 69 65 66 62 62 63 64 66 68 71 75 78 79 78 80 76 73 72 78 84 81 41 41 32 29 26 21 19 19 12 15 21 23 27 35 38 46 38 30 21 20
78 72 73 76 73 69 64 62 66 64 61 62 65 67 69 70 76 78 79 78 72 73 61 40 45 74 62 45 26 17 17 15 28 30 27 32 27 27 27 28 46 45 47 40 36 27 23
75 76 81 77 71 65 63 66 66 61 60 64 66 68 68 69 71 77 83 66 44 49 40 42 41 47 36 24 19 20 18 18 19 20 26 34 54 50 36 25 23 30 37 39 29 23 25
81 83 80 74 69 65 65 61 62 61 62 63 65 67 68 70 71 77 83 43 38 44 69 39 34 33 28 26 32 25 19 25 26 34 28 25 44 41 30 24 22 24 27 28 24 21 22
83 79 77 75 72 70 64 60 62 63 61 63 66 69 72 74 77 76 55 37 36 48 69 44 26 25 37 35 38 35 34 53 58 36 36 39 24 32 33 27 22 21 24 25 26 21 27
81 80 76 75 71 65 62 63 64 61 63 67 70 73 75 80 76 65 47 42 45 57 94 43 27 34 23 12 31 16 36 53 74 68 56 35 21 22 30 31 22 22 16 17 20 23 66
79 81 81 76 68 65 68 66 63 64 67 70 73 75 76 74 83 66 52 54 53 68 65 14 13 26 14 18 18 17 24 30 62 79 57 73 31 26 31 35 20 19 17 18 28 72 69
85 82 78 71 67 72 68 67 67 67 68 72 75 76 75 66 86 64 60 67 73 87 56 20 19 22 24 25 44 36 33 36 44 66 53 56 27 21 29 38 46 17 23 55 53 57 81
86 82 74 69 72 72 66 68 67 66 70 73 76 79 79 61 76 61 70 80 87 67 20 24 28 26 31 37 49 54 50 57 67 75 72 53 37 21 34 52 48 26 49 85 82 95 79
84 80 71 72 72 68 66 65 66 68 72 75 80 84 78 59 69 74 83 84 71 29 29 25 32 36 42 50 58 58 66 69 54 60 79 65 59 37 44 54 49 34 50 86 79 92 66
82 73 71 69 68 69 66 65 67 70 74 77 80 87 84 77 66 79 91 95 46 34 28 37 42 57 66 57 77 80 70 62 52 59 80 81 43 53 50 52 38 40 50 50 84 71 84
74 68 76 71 66 66 66 67 68 71 75 75 88 83 74 64 67 89 94 71 39 29 31 41 71 66 91 81 93 82 76 61 64 50 47 81 82 80 54 52 51 38 32 66 94 92 95
70 76 68 73 68 66 65 68 69 74 75 71 91 86 71 58 77 94 96 56 37 28 42 61 75 86 87 86 87 75 67 56 70 59 61 75 85 94 74 66 60 77 72 82 85 90 97
70 70 65 72 66 66 65 69 70 74 74 81 91 94 67 70 96 94 90 44 45 41 43 53 66 87 98 90 92 95 86 90 77 58 65 78 99 98 86 76 60 80 72 68 96 97 91
77 69 67 70 67 67 66 68 72 74 73 94 91 82 67 77 96 94 56 46 38 45 47 55 63 77 84 98 96 99 94 74 73 67 82 79 94 92 83 90 76 90 78 74 76 95 98
79 69 71 70 66 65 65 67 71 75 75 93 96 95 81 79 66 70 63 57 50 40 44 47 53 74 84 95 91 98 92 68 63 62 74 78 81 96 98 99 76 83 68 64 93 96 98
77 72 66 69 68 66 65 66 70 73 76 94 98 93 71 93 86 61 62 56 52 52 43 51 67 59 73 86 85 92 96 79 61 63 67 78 97 94 92 76 92 100 95 94 83 67 97
72 71 70 71 70 66 64 66 69 74 78 96 90 92 54 55 48 56 71 63 45 43 56 64 60 54 59 68 75 86 83 85 76 66 76 72 99 95 99 79 76 94 63 66 74 94 97
71 70 73 70 70 64 61 64 69 74 82 94 74 62 69 64 50 66 76 54 48 49 44 34 50 58 64 60 58 58 60 66 65 74 80 75 78 89 93 68 61 91 75 74 79 78 82
72 69 68 72 68 62 62 67 69 75 82 94 90 88 82 88 64 42 36 38 41 40 50 43 52 59 51 51 54 54 56 53 47 64 58 67 71 62 73 59 93 95 64 67 85 87 77
77 72 67 73 66 63 66 68 68 74 74 88 87 90 88 93 55 41 41 42 45 50 50 50 51 49 60 60 74 68 69 68 56 56 54 58 66 75 81 93 91 70 68 83 81 96 84
77 74 70 74 71 72 70 68 68 73 73 92 93 91 87 92 88 49 57 58 66 65 65 61 46 60 63 80 90 75 79 62 74 56 43 53 64 77 78 81 96 83 74 63 67 96 94
77 76 76 75 74 74 72 70 69 71 75 89 92 86 92 98 71 65 72 71 62 70 77 67 65 71 71 95 91 85 80 51 90 79 81 79 90 89 92 95 84 87 73 60 80 98 98
79 78 78 76 77 74 75 72 73 73 75 91 93 84 90 96 77 75 66 75 70 74 93 78 82 80 91 94 88 88 91 78 92 69 73 88 94 99 89 88 90 85 70 85 99 99 98
80 79 79 78 76 75 75 74 74 73 76 83 97 83 82 95 90 76 73 70 69 67 82 80 77 84 91 95 92 87 94 90 80 97 69 95 86 93 91 93 97 90 97 96 92 97 91

GFSGBSN_sfc_rhum_114.txt.gz
RH
79 78 78 82 79 74 71 68 67 67 66 65 66 68 68 67 65 66 68 70 70 70 69 68 68 69 79 72 60 36 56 54 53 29 24 24 28 39 62 44 33 23 16 15 16 22 27
80 78 83 82 77 73 69 68 66 68 67 67 67 67 67 67 66 68 69 71 73 72 70 70 69 68 83 67 28 30 32 32 36 36 30 25 21 18 20 19 32 37 32 24 19 17 17
81 82 83 81 78 74 70 70 67 71 68 66 66 66 67 67 68 70 70 70 74 73 74 73 70 67 78 65 36 35 42 46 36 30 31 21 18 20 20 25 21 25 37 35 30 25 22
84 86 83 80 79 77 76 71 70 68 66 64 65 66 68 70 71 72 72 76 78 75 74 74 72 74 83 44 50 43 43 37 29 26 28 25 22 23 25 24 24 24 29 38 28 29 26
84 87 84 82 79 78 77 70 70 68 65 64 63 66 69 71 73 76 78 80 81 77 75 73 86 91 85 51 46 33 38 35 19 24 26 17 22 24 27 34 35 35 32 32 34 29 29
88 88 85 84 82 76 72 72 71 68 66 62 64 66 69 70 76 78 80 80 76 70 63 56 51 85 66 40 30 23 21 20 24 23 25 32 38 34 33 40 46 32 36 39 47 38 31
89 88 86 85 79 73 71 67 71 70 64 64 66 66 68 70 73 78 82 64 45 47 46 40 36 41 37 28 24 25 23 26 27 31 36 28 33 39 47 37 30 30 30 32 33 29 30
90 88 85 83 76 73 68 70 70 67 64 64 65 66 68 72 73 79 76 43 44 52 72 44 42 39 32 31 36 28 25 36 41 54 58 50 42 27 22 36 41 34 34 30 25 24 26
91 88 86 79 76 72 70 68 67 65 65 62 66 69 73 76 76 71 56 50 44 50 77 52 34 31 29 31 20 20 34 51 68 68 66 75 60 31 25 26 43 43 36 30 26 19 18
90 88 88 84 78 76 72 67 65 65 63 66 70 73 76 80 70 67 60 55 55 54 80 25 32 33 28 19 27 16 36 52 71 64 56 82 68 58 44 34 28 76 35 26 23 26 41
92 91 87 80 76 74 70 68 66 64 65 70 73 76 77 75 82 66 55 63 62 65 50 20 21 21 19 26 28 31 24 41 48 49 64 59 56 61 75 30 26 55 54 31 24 28 55
91 86 80 82 80 76 75 74 69 68 70 71 74 76 78 71 86 67 65 71 68 62 44 28 23 28 36 34 33 36 42 39 42 56 67 65 45 51 50 33 29 40 56 47 70 83 84
84 79 80 87 86 81 78 75 74 71 69 73 76 78 81 67 71 65 76 77 63 56 27 31 34 35 42 43 49 48 55 63 73 83 84 58 54 44 34 35 35 58 74 90 82 92 77
85 87 88 85 80 81 75 74 70 70 71 74 79 85 82 67 72 77 80 76 52 32 36 29 37 43 55 55 62 64 76 78 58 60 70 92 73 40 34 34 43 53 56 72 71 88 74
87 86 83 80 81 78 75 71 69 71 72 77 79 85 83 78 74 82 82 80 44 39 33 47 49 68 77 60 69 81 78 73 61 64 85 92 60 51 46 52 61 66 68 51 80 88 86
84 82 80 84 81 77 71 71 71 72 73 73 83 83 80 70 74 88 89 57 46 36 46 53 80 75 91 73 80 88 68 61 83 78 57 75 84 58 57 67 55 74 49 76 91 88 96
82 78 81 78 76 70 70 71 73 74 74 74 86 85 71 67 80 87 91 60 43 43 46 68 78 84 91 94 82 89 70 67 78 87 72 79 82 65 78 70 76 68 67 84 74 94 99
75 82 80 74 71 68 70 74 74 75 73 80 91 95 69 75 94 97 93 49 50 50 48 56 67 80 93 93 86 94 94 98 70 77 86 76 98 94 95 85 67 84 75 70 86 91 93
78 71 78 72 70 68 72 74 76 77 77 92 93 79 70 76 93 94 64 53 50 51 54 60 68 76 79 97 96 96 90 70 68 68 77 80 99 92 96 94 82 78 72 61 94 99 99
77 71 72 71 70 68 71 73 75 77 77 88 97 95 83 83 78 68 69 62 60 47 49 50 59 72 83 94 95 90 95 71 66 69 75 82 82 92 95 89 94 99 70 71 90 98 94
78 73 76 71 68 66 68 71 74 76 79 91 95 92 74 92 87 63 64 63 56 54 47 52 70 68 78 88 86 95 88 74 72 65 72 82 93 98 93 96 94 100 100 99 99 98 93
76 75 75 73 70 65 69 70 73 77 80 94 91 88 68 60 65 59 72 68 50 47 57 59 63 63 67 74 77 85 78 81 88 72 80 71 93 100 99 96 87 97 94 95 98 97 95
76 71 72 72 70 68 66 70 73 78 82 98 93 83 74 71 56 71 84 58 53 58 48 43 60 62 69 63 59 59 61 66 68 79 80 76 81 94 96 98 84 85 97 93 91 93 92
76 70 70 70 71 66 65 70 75 78 83 98 96 95 86 87 71 53 47 44 48 52 64 57 57 62 54 54 63 63 65 65 67 67 67 70 75 75 96 88 87 100 92 74 86 94 89
77 73 69 72 69 66 67 73 75 76 75 92 96 93 94 93 76 63 63 65 57 58 58 61 55 52 64 72 83 72 70 63 64 60 58 63 77 84 96 90 95 73 81 89 85 96 97
79 77 72 76 74 74 76 73 74 76 73 94 96 96 92 91 89 68 68 64 76 82 76 68 59 64 72 88 92 82 88 70 75 67 56 61 68 87 93 85 96 93 79 68 70 93 98
80 78 76 77 75 76 74 74 76 77 77 91 94 90 91 96 88 78 82 78 69 80 85 80 75 78 78 95 93 94 86 70 92 87 86 86 91 92 92 90 90 88 78 68 82 99 99
81 79 80 77 78 76 77 77 80 79 80 90 96 92 92 96 88 84 78 83 83 85 96 82 82 83 94 95 95 95 98 85 93 77 83 91 98 92 86 84 89 92 72 91 99 99 96
81 81 81 80 80 78 79 80 81 80 80 84 97 94 89 93 84 86 74 70 71 70 86 86 86 88 94 94 87 88 97 95 87 99 77 95 89 91 93 94 96 96 98 96 90 88 78

GFSGBSN_sfc_rhum_117.txt.gz
RH
86 83 82 81 81 82 79 77 73 70 70 69 69 69 69 68 67 67 69 70 72 72 71 69 69 71 77 60 36 34 48 41 42 41 32 28 32 43 63 38 35 24 17 15 16 16 16
86 85 83 82 83 84 78 76 72 71 72 71 71 70 68 68 66 68 69 71 71 71 71 72 71 69 77 34 30 34 37 40 34 42 37 29 27 22 23 23 32 32 22 21 20 24 29
88 85 85 83 85 84 80 78 75 70 73 71 70 68 68 66 67 70 71 72 74 75 74 72 71 69 80 61 42 50 49 45 41 35 36 28 23 23 27 29 24 24 26 22 20 23 32
88 88 84 83 86 83 80 78 76 71 72 71 67 67 67 68 71 73 73 75 78 77 76 74 71 72 85 47 52 54 45 40 35 37 34 29 28 30 29 27 27 28 29 33 23 25 26
89 88 85 87 86 82 80 79 76 72 71 68 67 65 68 71 73 74 76 78 81 77 74 75 86 89 85 51 51 35 32 32 22 23 26 19 27 31 30 36 39 37 37 33 27 20 26
89 88 87 89 86 82 82 81 76 74 70 68 64 66 68 70 72 80 82 82 78 65 71 66 65 85 60 33 30 29 27 23 27 29 26 29 34 46 44 40 60 48 38 32 34 26 32
90 89 89 89 86 85 81 77 78 76 71 67 65 66 68 70 73 79 89 58 42 36 46 30 48 45 36 30 28 29 26 31 29 33 42 34 40 45 37 43 39 41 44 44 34 26 28
91 90 90 90 88 85 80 77 76 75 70 66 66 64 68 72 74 78 78 53 44 47 63 44 48 44 37 34 39 27 28 39 51 53 64 69 59 43 35 32 32 35 53 51 39 31 32
91 91 92 90 88 84 80 76 76 72 67 67 65 66 72 76 78 70 66 57 49 47 68 50 42 38 32 35 30 23 32 50 58 70 70 75 49 44 46 42 40 34 34 45 58 42 29
93 91 92 90 89 84 78 81 76 69 68 66 68 71 76 79 68 80 72 64 59 53 68 26 34 32 26 24 33 20 30 41 75 68 58 68 52 65 72 63 47 57 37 35 60 62 57
92 92 92 90 86 82 83 83 82 79 71 70 72 74 77 76 74 68 63 69 65 61 40 24 22 20 25 34 35 35 35 50 57 55 61 61 54 58 56 55 50 62 36 39 56 73 50
93 91 91 88 85 86 83 81 78 71 71 72 73 74 77 76 90 69 70 80 66 56 37 32 27 34 41 42 40 38 46 47 47 57 55 57 45 56 56 46 48 40 58 61 67 67 74
93 93 90 89 87 83 81 78 76 76 75 72 73 76 81 71 70 78 80 73 56 53 30 32 38 42 49 53 56 61 68 74 82 86 76 66 67 59 51 67 51 54 67 90 86 93 82
93 90 88 86 85 84 83 76 76 76 74 73 77 83 81 75 75 81 78 67 47 36 39 30 41 51 64 66 67 72 78 87 65 81 91 96 83 55 39 58 44 50 65 84 70 75 69
93 92 90 86 82 82 78 75 76 75 74 76 78 86 81 78 78 83 72 80 43 39 35 53 55 76 81 65 74 85 77 67 96 89 96 95 77 47 55 61 47 64 68 46 72 68 92
88 88 87 87 86 79 76 77 76 74 76 78 79 84 80 75 79 82 86 50 43 40 49 57 83 80 97 82 91 90 76 59 94 74 81 75 96 59 59 57 64 58 69 83 87 78 86
89 86 89 89 83 81 81 77 75 76 78 75 83 80 74 78 79 82 89 56 42 46 48 68 79 90 94 98 90 78 77 66 73 70 70 83 87 71 64 64 68 79 88 79 64 76 96
87 88 85 82 78 79 78 75 77 79 78 76 90 94 74 79 94 97 91 61 51 51 51 60 68 79 93 93 81 85 92 82 65 67 82 82 99 98 88 79 76 86 71 67 80 79 93
85 80 78 77 75 74 76 78 79 79 76 92 89 79 73 75 95 94 65 56 51 53 56 60 69 78 84 98 96 94 86 68 68 71 82 79 98 93 81 84 67 80 78 88 87 96 98
88 80 76 72 69 73 78 78 81 79 77 86 95 94 81 83 81 68 66 64 58 49 51 55 60 73 84 91 94 94 94 70 64 72 74 85 99 99 96 99 98 99 72 82 80 94 97
78 79 78 75 70 75 76 77 78 79 78 82 95 89 76 95 89 67 68 63 57 54 48 57 71 70 80 90 87 99 86 73 67 68 75 87 99 98 96 100 88 99 91 99 93 96 94
78 80 79 76 72 71 74 76 78 80 78 90 95 83 65 74 64 62 70 68 52 50 58 61 62 62 72 72 73 79 83 76 88 78 81 73 98 100 98 80 78 96 97 99 94 87 93
77 78 78 75 70 72 72 74 78 79 77 95 96 84 70 74 61 68 84 61 52 59 57 56 64 68 70 65 62 59 60 64 66 78 90 81 83 94 97 89 85 84 98 96 92 95 89
78 74 73 72 68 68 69 75 78 79 84 94 97 90 79 88 68 57 60 49 58 60 66 59 63 70 59 58 69 70 76 76 76 71 76 85 83 79 97 90 88 99 91 90 90 94 93
79 72 71 72 70 68 71 77 78 79 79 93 98 89 88 94 80 69 66 64 63 65 62 65 60 55 66 79 84 71 72 67 65 61 62 69 85 98 96 90 96 86 84 91 88 98 96
79 76 73 78 75 75 75 77 79 78 79 93 98 94 86 86 89 76 69 70 78 85 75 71 65 69 76 85 88 84 94 80 86 76 61 68 70 90 94 83 94 94 85 88 75 92 93
79 77 78 78 77 79 75 76 79 78 79 88 97 92 85 95 87 78 81 76 75 83 86 82 77 82 80 95 94 97 91 77 97 91 95 86 88 92 90 93 88 88 94 96 90 95 98
82 79 80 78 78 77 76 79 81 82 80 88 98 95 86 94 82 86 81 80 84 87 94 78 80 85 95 94 93 94 97 93 97 86 94 89 93 92 87 83 90 92 75 85 97 95 98
81 81 81 79 80 80 79 83 85 84 82 85 98 95 87 88 74 90 80 71 75 71 89 83 83 91 94 93 87 92 98 97 92 100 81 93 86 90 92 93 95 95 96 96 85 82 80

GFSGBSN_sfc_rhum_120.txt.gz
RH
89 86 86 85 84 83 83 83 82 83 78 72 69 68 68 68 67 67 69 71 71 70 70 72 74 72 71 35 27 29 49 50 38 38 38 34 34 51 70 43 48 48 33 26 24 22 22
90 90 88 87 85 84 83 83 85 83 77 73 72 71 71 68 67 67 70 71 72 73 73 74 74 71 70 28 30 38 48 45 41 43 40 34 31 28 31 27 33 32 25 25 22 22 21
91 90 88 88 87 85 84 84 85 81 75 73 73 72 68 68 67 69 72 73 75 76 76 74 72 71 84 32 46 55 51 49 47 39 40 33 29 28 30 32 28 27 30 24 22 24 25
86 91 90 89 88 87 86 85 84 80 74 73 73 70 68 68 70 73 74 75 78 79 78 76 73 81 56 49 60 62 59 36 45 42 37 30 31 31 33 30 29 31 33 34 24 22 21
85 92 88 89 87 90 89 87 84 80 74 74 72 69 66 70 73 74 76 78 79 76 77 76 88 84 54 48 49 35 38 31 26 27 29 20 30 35 34 38 48 43 42 35 28 23 22
84 84 85 91 90 89 90 88 85 80 78 74 70 67 68 69 72 79 82 81 74 81 75 65 72 69 45 32 30 30 32 32 31 31 28 28 39 47 47 48 63 62 47 52 43 38 35
83 83 87 92 90 88 90 90 87 82 79 72 69 65 67 67 72 78 89 42 34 40 57 34 44 56 36 30 32 30 30 34 35 35 46 38 46 48 40 40 35 41 46 50 40 34 40
83 83 82 88 92 89 90 89 88 85 78 72 67 68 66 70 73 78 74 52 47 45 44 44 49 45 41 38 42 32 30 36 52 48 59 71 62 43 41 40 39 40 43 44 35 34 36
84 84 82 85 92 91 90 90 88 84 80 72 69 67 71 74 77 65 68 63 56 50 53 46 45 44 36 38 38 28 32 49 59 61 73 69 46 48 50 56 56 52 53 48 41 31 31
80 83 82 82 91 91 90 89 86 82 79 78 74 73 76 76 68 78 78 70 58 57 52 31 39 34 28 32 39 26 32 43 64 70 58 69 57 57 69 76 64 74 46 44 46 49 76
88 84 82 93 92 91 90 86 83 78 76 74 77 77 78 74 72 67 61 72 67 56 21 30 29 23 30 37 38 37 38 53 61 57 62 66 62 65 64 54 58 61 53 54 56 58 60
91 86 82 92 92 90 88 84 82 80 74 74 79 80 80 82 83 68 73 77 61 44 30 33 31 37 48 45 48 44 51 50 52 62 62 60 51 58 58 50 53 51 60 61 64 71 84
90 86 90 91 90 89 86 85 82 79 76 77 79 80 83 72 73 81 84 73 42 49 32 36 43 49 56 56 62 67 72 81 86 90 84 73 67 65 56 72 64 64 74 89 90 95 80
90 93 92 91 90 88 85 84 82 81 78 78 82 83 81 78 76 86 76 58 42 39 40 35 52 59 68 68 67 74 81 84 85 75 91 98 84 55 53 68 68 66 70 79 75 73 89
95 93 92 90 89 88 87 87 85 82 78 79 82 95 83 81 81 78 64 77 40 42 37 56 60 73 77 68 81 84 83 80 85 96 97 92 89 54 55 53 52 55 72 46 64 67 76
96 94 93 92 90 90 88 84 82 80 80 80 84 91 82 83 79 74 79 49 45 43 52 57 82 80 96 84 91 86 84 71 82 82 76 87 97 65 59 61 61 54 61 84 85 92 87
88 90 91 89 89 88 85 84 79 79 78 74 88 87 78 80 72 76 88 53 50 47 51 69 80 88 90 98 96 79 82 68 67 76 74 92 99 76 71 78 73 88 86 86 77 78 96
90 89 89 88 88 88 87 82 80 78 80 76 87 98 80 81 94 92 83 52 52 54 53 63 69 78 91 93 96 91 94 84 58 66 86 72 99 98 74 60 72 88 76 74 89 74 94
85 87 87 87 87 86 83 81 79 82 74 86 85 85 74 76 95 96 66 57 51 53 57 63 70 79 87 99 92 94 87 70 67 66 91 88 99 97 78 79 78 85 82 86 83 88 97
85 86 86 85 82 81 81 77 78 79 76 84 94 94 80 83 80 67 65 63 57 48 51 56 63 75 84 89 92 92 92 72 68 63 68 89 98 95 96 97 98 96 84 80 78 95 97
85 82 78 76 77 76 74 75 79 80 76 80 96 89 77 96 86 68 65 60 53 50 47 58 72 68 78 85 87 98 90 76 65 67 69 91 99 100 96 97 94 99 99 87 91 96 93
84 79 77 76 76 76 78 79 80 80 76 85 96 82 70 76 68 68 71 64 50 50 56 61 59 64 71 71 63 78 80 79 83 76 80 78 99 100 96 100 90 95 96 97 93 93 94
80 76 78 75 77 76 76 78 79 80 77 93 94 82 73 73 62 69 83 68 52 55 63 55 62 70 71 67 62 61 64 65 64 75 88 91 96 97 94 87 63 80 98 97 91 88 84
81 75 74 72 72 76 75 78 79 78 82 91 95 81 78 88 60 55 64 50 52 60 63 60 64 70 59 67 74 78 84 79 76 76 76 89 99 91 96 95 88 96 98 95 88 93 88
81 75 71 70 71 72 76 78 79 78 79 92 98 82 79 95 75 67 64 61 63 65 65 68 63 58 74 80 83 72 76 72 76 71 71 76 99 98 92 89 95 90 86 92 91 95 92
79 77 73 73 74 72 76 78 80 78 79 94 99 90 80 76 83 70 71 67 74 79 70 71 70 74 75 82 86 87 96 89 87 79 66 71 94 98 92 83 93 91 79 75 86 92 87
79 78 78 75 75 76 77 78 79 80 78 89 99 90 82 95 89 74 74 71 77 82 82 79 82 85 82 95 95 97 92 85 93 87 93 82 86 95 90 88 88 86 90 84 92 98 88
81 79 81 79 78 76 77 80 83 83 76 89 99 95 83 94 84 83 76 78 85 84 86 71 80 86 95 93 91 94 97 95 98 88 97 89 93 93 92 81 91 90 82 87 96 97 88
81 79 80 81 81 77 78 82 85 85 80 83 97 94 82 86 79 91 84 75 75 68 86 90 86 93 94 94 95 93 98 98 92 99 86 93 86 87 92 91 96 87 95 82 80 88 94

GFSGBSN_sfc_rhum_123.txt.gz
RH
91 90 88 88 88 88 86 84 84 85 84 82 78 70 67 67 67 68 67 70 71 71 72 73 74 74 57 18 15 21 53 48 32 29 28 26 24 34 35 34 32 35 32 21 19 18 16
92 90 90 89 89 89 88 85 85 86 86 83 78 72 71 70 68 66 68 71 73 74 75 75 73 73 53 21 21 40 45 36 32 29 30 26 23 22 26 25 22 22 21 21 19 18 18
81 87 94 91 91 90 88 86 86 86 87 82 78 74 74 70 68 66 70 72 75 77 77 75 72 69 56 26 35 46 48 35 36 29 24 26 24 24 23 26 24 24 26 19 15 17 17
78 82 85 91 91 90 88 88 87 89 88 82 75 75 74 71 68 71 72 74 78 80 80 77 73 71 31 39 46 46 43 25 35 32 31 26 24 25 27 25 25 25 27 27 19 17 17
74 76 82 84 86 92 90 89 88 90 87 82 77 76 74 72 73 73 74 78 80 77 78 76 76 68 34 42 33 28 32 23 23 22 25 21 25 29 26 31 37 34 28 28 25 19 21
74 75 80 83 84 90 90 90 88 90 87 84 79 74 71 71 73 78 82 78 81 78 73 64 67 48 30 29 25 26 24 25 25 26 23 24 28 32 33 33 33 29 32 29 33 26 25
74 76 78 79 83 85 94 91 89 90 88 85 79 74 69 72 70 78 67 55 35 39 62 28 30 43 30 26 28 24 24 26 26 28 29 33 29 29 29 33 26 30 33 34 29 24 28
80 80 79 80 80 83 84 87 89 90 87 85 79 71 70 70 69 75 57 37 31 33 29 39 41 39 36 32 32 26 24 27 37 38 46 46 43 31 33 34 37 38 43 41 33 29 30
81 82 78 78 80 83 83 86 93 91 87 85 78 73 70 72 72 62 53 48 47 43 33 38 38 37 33 32 31 25 25 38 42 50 52 45 34 36 40 40 44 40 51 49 46 34 31
82 82 83 83 83 83 83 94 94 89 86 84 78 75 76 76 72 61 59 56 54 50 38 32 38 30 31 31 32 22 25 36 50 53 50 53 46 49 50 52 47 52 44 44 45 48 54
84 85 83 81 83 80 84 89 91 88 86 83 76 73 77 72 69 58 51 68 59 54 13 25 31 24 30 33 35 32 31 43 52 50 52 50 54 58 60 50 51 55 44 46 49 53 55
86 87 86 88 91 82 83 86 89 87 83 79 77 78 78 78 78 61 68 66 60 36 17 31 28 35 41 40 44 42 48 45 44 54 54 53 44 47 48 46 43 42 51 51 57 61 72
85 88 92 94 92 84 87 92 89 85 81 81 81 80 79 74 78 71 72 63 39 40 28 35 40 45 47 55 54 57 63 66 70 75 71 63 57 52 47 56 55 53 62 60 63 83 57
88 92 96 94 89 86 92 90 87 81 82 83 82 84 76 69 72 77 71 57 34 31 32 39 50 53 54 63 63 65 68 69 75 74 80 77 64 46 47 47 40 61 53 48 54 46 44
88 96 93 92 88 90 91 88 83 82 83 85 84 94 87 83 79 72 67 65 30 35 36 54 57 58 66 64 72 74 70 69 75 84 94 85 78 51 44 45 47 51 57 41 54 49 63
88 97 91 95 92 90 88 85 83 84 86 80 93 85 75 81 82 70 72 43 40 42 50 51 68 66 79 71 79 75 74 62 70 73 77 86 97 58 54 54 52 53 46 72 64 83 90
88 90 96 92 91 89 88 87 85 85 80 76 91 93 82 82 72 72 86 49 53 46 49 62 71 79 78 87 86 73 71 62 62 66 63 79 98 68 62 66 64 74 72 65 62 76 88
89 89 87 90 92 90 89 87 86 84 82 82 96 98 82 82 93 85 72 50 56 51 52 60 65 70 81 89 84 83 78 77 54 62 74 70 100 94 78 54 56 68 70 63 79 70 78
88 90 90 88 88 87 88 87 85 84 85 96 95 93 80 75 94 89 61 55 50 54 52 57 71 71 80 94 83 91 80 62 61 62 75 88 91 82 59 63 52 78 79 91 70 77 94
82 85 85 88 89 88 89 89 87 85 82 84 95 98 82 81 77 69 64 58 55 47 52 53 68 76 76 88 91 90 84 63 63 59 65 89 87 80 89 96 92 92 81 70 82 86 91
83 85 85 87 88 88 88 86 80 83 78 79 93 90 78 95 80 69 64 55 54 51 47 56 72 58 70 84 80 96 84 65 57 64 64 88 99 100 96 96 88 96 94 89 89 97 92
82 84 88 86 85 82 81 82 83 81 76 77 97 78 73 71 69 67 68 53 48 49 56 55 54 56 67 60 52 62 66 67 70 66 71 79 93 100 97 98 89 96 96 96 85 84 92
83 79 81 81 81 81 82 81 81 80 75 85 86 70 67 66 62 67 74 60 53 63 60 49 56 59 62 60 57 51 52 54 55 65 77 87 97 89 90 92 81 78 97 95 86 83 85
84 73 76 80 77 78 79 80 79 78 80 85 88 69 75 76 56 58 56 47 55 54 63 56 59 56 54 63 69 74 73 69 69 68 66 81 91 91 86 96 89 97 98 92 90 92 82
84 75 71 76 76 77 78 79 80 78 81 86 90 72 72 88 61 61 58 64 63 62 63 60 54 56 70 66 68 64 66 71 73 75 69 75 88 93 88 82 92 94 86 91 92 92 85
84 76 73 74 76 79 78 79 80 80 78 88 95 90 75 66 75 57 65 60 64 65 60 64 63 71 66 66 70 74 73 75 76 63 61 74 81 97 80 78 86 88 77 74 78 86 80
83 77 74 74 72 76 78 80 80 81 78 85 94 92 80 95 81 66 65 69 71 69 66 68 75 75 67 77 81 78 81 77 78 74 77 70 76 93 85 83 83 80 84 79 91 91 78
82 81 80 79 76 77 78 81 84 80 80 84 94 91 79 95 80 77 67 78 76 66 65 66 74 78 83 80 74 80 86 85 87 78 82 76 83 86 91 88 89 80 92 83 93 90 79
82 83 82 82 80 78 82 82 85 82 80 81 92 89 78 84 81 85 75 70 63 59 80 86 76 87 79 80 78 79 89 91 81 95 73 81 72 76 82 85 90 89 88 76 74 80 82

GFSGBSN_sfc_rhum_126.txt.gz
RH
85 90 93 91 89 90 90 89 88 87 87 85 83 80 71 66 66 68 69 70 72 72 73 75 75 76 42 13 12 19 50 41 20 18 15 14 14 14 13 15 14 14 13 15 14 12 11
82 85 90 94 92 91 90 89 89 88 88 87 85 81 74 69 68 68 68 71 73 74 76 76 75 76 32 10 17 26 27 19 17 16 16 15 16 16 15 15 14 13 14 12 11 11 10
75 80 84 88 93 90 91 91 89 89 89 88 86 81 76 72 70 67 67 72 74 76 77 76 75 50 35 18 22 24 28 18 18 17 16 17 17 18 18 16 17 17 17 11 10 11 11
72 74 76 81 85 87 94 91 90 89 88 88 85 82 80 76 72 68 70 73 77 80 81 78 73 49 21 25 24 23 19 16 17 17 18 18 17 19 21 20 18 18 17 15 14 11 11
76 72 73 78 81 84 86 91 92 89 89 89 86 85 83 81 75 72 72 76 81 76 78 75 55 49 23 32 22 17 17 15 15 17 18 16 19 20 21 20 16 21 16 15 14 13 15
75 74 72 76 79 79 80 86 94 92 89 90 90 85 83 80 76 74 77 78 80 73 57 46 42 41 24 19 18 18 15 16 18 20 19 18 16 19 17 16 14 15 16 15 16 14 15
75 80 80 78 79 78 78 81 84 91 90 91 87 84 81 77 74 76 68 54 37 38 44 21 18 25 20 19 19 17 16 19 19 19 21 23 20 18 18 19 19 20 20 19 15 16 20
77 80 81 79 80 80 78 79 81 88 92 92 87 85 80 74 73 76 61 30 20 31 19 24 22 24 25 23 20 18 18 22 26 26 29 29 24 21 22 24 24 23 23 20 17 18 21
80 83 83 83 83 84 82 79 80 85 95 91 88 84 79 78 78 75 44 34 30 34 24 23 24 21 25 22 21 18 19 24 30 32 31 31 24 27 29 28 28 26 27 25 25 23 19
82 80 78 78 80 80 78 79 79 83 94 91 85 80 80 81 73 58 53 44 44 49 35 23 27 23 24 22 24 17 20 28 37 38 35 34 30 33 32 32 29 32 25 29 30 28 27
82 80 80 80 82 82 83 83 81 82 88 90 83 79 81 59 66 64 57 55 50 46 46 22 25 19 22 25 26 28 26 32 38 39 41 37 35 38 39 33 31 31 34 34 32 33 32
83 82 80 82 83 84 83 83 82 82 86 88 82 79 79 62 54 61 62 66 62 62 40 25 21 26 28 31 32 31 35 34 36 42 40 36 32 37 32 32 33 31 36 35 34 35 42
83 84 82 84 84 82 79 82 81 81 90 88 82 78 66 63 53 67 73 82 74 51 27 28 26 28 27 37 40 39 43 46 43 48 44 39 39 35 35 37 37 39 42 46 44 56 33
84 81 84 89 91 93 91 88 81 90 89 83 78 79 70 71 62 81 76 76 48 26 17 23 30 32 33 44 44 46 49 48 54 53 45 48 49 36 32 36 36 40 39 38 46 33 34
82 80 87 95 96 96 94 90 88 91 85 79 79 91 86 90 84 77 87 81 42 21 29 44 40 38 51 48 53 55 45 46 56 58 72 71 51 34 33 32 37 51 50 30 48 44 53
84 78 88 96 95 96 93 89 93 87 83 76 92 88 89 89 78 78 69 64 31 25 30 31 45 39 57 45 71 55 49 49 58 53 54 58 87 42 43 39 36 43 44 66 57 69 67
87 79 85 96 96 94 93 92 88 85 77 76 93 99 94 81 80 72 86 36 34 33 34 44 52 56 57 74 67 53 54 51 47 49 48 57 80 52 43 53 61 76 61 52 47 52 70
86 80 82 93 90 90 89 87 85 79 79 81 97 99 96 74 90 70 53 32 47 43 40 45 43 53 78 72 67 76 60 61 44 46 54 57 90 89 58 38 46 48 57 45 65 58 53
86 83 81 84 93 90 87 85 80 79 73 96 99 99 94 86 95 80 43 42 37 39 39 42 50 62 65 100 99 100 60 47 46 48 56 70 87 56 45 55 36 47 66 69 71 68 92
81 88 86 86 86 86 88 86 87 90 85 94 98 99 99 98 82 51 49 50 50 36 41 44 56 62 68 94 91 98 63 46 49 47 59 77 64 77 77 86 66 73 62 53 66 96 95
82 80 87 87 89 86 86 84 88 89 87 94 97 88 72 97 83 61 51 43 48 45 40 42 62 50 63 82 72 86 59 48 49 62 58 71 93 93 75 82 73 99 93 86 87 95 91
82 82 84 85 86 88 86 87 89 92 83 69 97 90 68 62 59 56 56 44 38 43 44 50 45 44 47 38 40 57 54 54 58 52 59 67 82 99 100 90 78 98 99 100 85 81 84
79 85 84 86 86 87 86 87 91 87 73 73 65 61 51 63 58 49 51 43 40 43 44 32 39 46 46 38 36 35 35 40 47 54 62 69 76 73 93 96 81 88 98 99 81 72 68
77 83 82 84 84 83 85 87 86 83 81 83 72 50 51 60 41 38 40 36 42 41 48 46 43 38 47 45 53 59 55 51 52 52 52 60 64 69 78 91 91 100 96 84 82 81 67
76 74 79 78 81 81 80 80 79 80 80 68 64 50 42 62 37 39 38 39 45 45 47 49 46 47 51 46 58 56 59 62 58 53 55 54 66 77 80 70 89 90 73 88 92 85 70
80 76 78 78 79 80 81 80 81 79 80 61 66 65 39 45 42 33 45 41 45 47 52 60 56 58 51 37 55 48 54 43 60 59 52 54 61 87 68 74 82 74 69 72 64 79 63
85 79 78 78 77 79 80 81 82 79 75 58 66 76 49 75 56 41 40 45 41 39 42 51 56 59 54 51 63 53 54 51 57 50 61 56 59 79 71 74 70 63 69 69 90 94 64
84 80 80 74 76 79 81 84 82 81 77 61 74 69 50 70 68 55 52 54 52 38 46 59 59 62 63 58 50 57 60 59 62 54 58 54 66 73 73 80 83 69 82 79 85 67 59
83 82 81 80 79 81 82 85 83 82 80 70 63 58 52 55 65 64 65 60 45 43 52 61 58 60 52 54 53 54 70 72 53 84 54 67 57 58 76 81 78 74 81 65 58 66 60

GFSGBSN_sfc_rhum_129.txt.gz
RH
77 80 85 90 93 92 91 91 91 90 89 88 86 84 78 71 67 66 70 72 70 71 72 74 75 76 45 18 8 16 48 42 17 13 11 10 10 10 9 8 8 9 8 8 9 8 8
76 78 83 86 87 94 91 91 92 92 90 89 88 86 83 74 68 68 70 70 72 74 74 75 76 80 34 15 12 16 17 14 12 11 12 11 11 11 11 10 10 9 10 9 8 8 7
72 74 75 82 84 87 94 93 93 92 91 90 89 87 84 76 71 70 70 69 74 74 76 77 76 42 27 15 14 15 15 12 11 12 12 13 12 13 13 12 11 12 12 9 7 8 8
73 75 75 78 81 84 86 89 96 93 92 91 90 88 85 81 78 73 69 71 75 77 80 80 76 35 18 17 16 17 12 11 11 11 12 12 13 15 16 13 14 13 12 13 10 9 9
72 77 78 78 80 82 81 83 86 90 93 91 90 89 85 84 82 76 69 72 78 77 75 75 53 35 16 29 17 11 11 12 11 13 14 12 14 16 15 17 12 11 12 11 8 6 9
69 72 77 79 78 79 81 82 83 86 90 94 90 88 86 87 83 78 72 73 77 78 57 33 26 32 20 16 13 12 11 12 14 16 16 17 14 16 13 12 14 12 11 10 10 8 9
71 70 73 80 82 79 79 79 80 83 86 93 91 89 88 86 80 78 71 61 50 37 34 20 17 15 15 13 13 12 11 14 15 16 18 16 17 13 13 16 14 14 14 12 10 9 13
71 73 74 74 78 79 77 79 79 82 82 86 95 92 87 82 77 79 68 48 31 36 25 20 15 17 16 13 15 13 12 16 20 19 18 20 21 15 17 18 19 18 18 16 13 11 14
76 76 74 73 74 76 75 78 82 83 83 82 87 91 86 84 82 72 52 40 36 37 35 20 13 12 17 15 12 14 13 16 20 20 20 21 16 21 22 20 20 18 19 19 19 15 14
77 78 82 80 78 76 77 78 80 79 79 80 83 92 86 85 74 43 46 41 49 56 82 39 21 15 18 15 18 11 13 20 26 26 21 22 19 23 22 21 21 26 20 22 21 21 19
76 78 80 82 84 82 82 81 79 80 82 80 87 91 84 67 50 43 38 43 63 44 95 40 21 13 14 15 18 18 18 24 27 26 29 27 24 25 26 22 23 26 25 26 25 24 24
72 78 79 81 83 84 83 80 80 80 82 82 92 89 80 65 51 42 48 59 72 93 89 33 21 24 22 18 20 20 26 26 26 29 26 25 21 24 21 23 26 24 29 28 27 26 32
74 78 80 82 85 82 82 82 83 80 81 83 93 86 68 47 58 53 50 71 89 90 31 25 24 22 21 25 25 26 31 36 32 40 37 26 26 22 24 28 27 30 35 47 40 41 33
77 78 81 84 83 83 86 84 81 85 81 82 92 80 62 55 58 74 51 84 94 46 33 18 20 22 25 27 29 29 31 30 31 31 30 30 43 26 24 27 30 31 34 42 39 29 27
74 78 82 84 84 86 82 80 87 94 84 84 92 86 70 86 74 75 93 96 69 42 38 24 25 29 34 34 38 37 33 27 30 36 48 44 34 22 23 24 29 43 42 30 41 37 45
77 80 82 83 88 89 92 92 94 92 86 90 92 88 95 82 81 88 97 84 53 25 19 23 37 28 47 38 57 42 35 28 41 38 39 43 64 32 27 30 28 34 34 57 47 61 59
78 82 81 84 90 93 93 94 92 88 91 74 82 96 97 86 89 96 96 80 44 25 24 33 35 38 42 46 54 42 35 36 36 40 36 46 57 44 35 38 40 48 52 53 40 45 66
78 85 82 87 92 95 97 94 93 86 79 75 93 99 98 88 99 99 95 50 37 31 39 46 33 37 58 52 57 51 43 47 32 34 46 46 84 80 43 29 32 38 46 56 60 54 56
80 85 87 86 92 92 90 87 85 81 73 97 99 100 95 93 97 93 55 48 30 34 38 42 53 64 59 100 100 99 46 40 38 40 47 52 81 61 53 51 32 38 41 48 61 92 87
80 85 88 84 89 92 88 86 86 86 76 94 98 99 100 100 96 64 53 44 37 30 30 32 42 64 69 98 78 100 58 45 41 40 62 62 50 64 66 76 50 60 52 49 54 89 100
80 80 88 86 82 89 89 89 89 90 86 96 97 80 66 99 96 60 43 44 41 39 33 37 57 50 60 91 61 79 45 45 42 58 51 64 78 80 54 57 57 86 79 82 83 87 94
80 78 84 88 86 86 88 89 90 88 90 96 100 74 50 58 64 61 62 56 45 37 42 45 41 37 34 44 46 58 60 47 52 47 62 58 94 98 100 74 61 94 96 99 73 74 76
80 79 80 88 87 86 87 88 93 92 90 95 91 61 60 87 80 78 85 58 44 43 40 34 33 36 33 29 28 31 33 39 41 46 54 63 70 71 79 86 67 77 98 92 69 59 59
82 81 82 81 84 88 86 89 89 86 80 63 60 69 74 93 79 70 48 42 38 41 40 29 32 34 40 32 39 42 38 38 42 43 40 48 52 54 82 72 88 98 63 59 70 69 61
81 78 84 82 83 86 87 89 88 83 78 59 59 56 52 82 56 45 38 35 33 35 37 37 35 36 35 37 47 55 58 57 50 43 46 41 47 61 70 68 84 83 68 67 73 78 62
76 75 79 84 86 88 87 86 83 80 79 63 58 65 50 54 53 37 37 35 43 42 48 56 47 44 42 32 46 42 47 35 50 54 42 41 48 67 59 63 79 65 48 46 47 76 51
81 80 78 77 82 82 84 83 79 76 75 66 51 70 47 51 30 30 35 40 31 39 41 49 50 47 43 39 54 40 40 30 48 48 61 58 50 65 64 63 68 48 54 56 84 91 55
82 84 82 77 78 79 79 81 80 78 73 61 57 60 43 56 48 40 37 42 35 32 46 45 50 48 48 48 37 40 47 43 49 36 42 43 53 68 60 62 81 52 64 79 76 57 50
83 85 81 80 80 80 80 80 77 79 73 68 49 45 38 42 61 54 52 46 41 37 36 49 40 38 34 36 38 37 58 58 40 72 40 57 45 61 65 82 75 64 73 56 51 54 50